﻿<?xml version="1.0" encoding="utf-8"?><gpx creator="Garmin Desktop App" version="1.1" xsi:schemaLocation="http://www.topografix.com/GPX/1/1 http://www.topografix.com/GPX/1/1/gpx.xsd http://www.garmin.com/xmlschemas/WaypointExtension/v1 http://www8.garmin.com/xmlschemas/WaypointExtensionv1.xsd http://www.garmin.com/xmlschemas/TrackPointExtension/v1 http://www.garmin.com/xmlschemas/TrackPointExtensionv1.xsd http://www.garmin.com/xmlschemas/GpxExtensions/v3 http://www8.garmin.com/xmlschemas/GpxExtensionsv3.xsd http://www.garmin.com/xmlschemas/ActivityExtension/v1 http://www8.garmin.com/xmlschemas/ActivityExtensionv1.xsd http://www.garmin.com/xmlschemas/AdventuresExtensions/v1 http://www8.garmin.com/xmlschemas/AdventuresExtensionv1.xsd http://www.garmin.com/xmlschemas/PressureExtension/v1 http://www.garmin.com/xmlschemas/PressureExtensionv1.xsd http://www.garmin.com/xmlschemas/TripExtensions/v1 http://www.garmin.com/xmlschemas/TripExtensionsv1.xsd http://www.garmin.com/xmlschemas/TripMetaDataExtensions/v1 http://www.garmin.com/xmlschemas/TripMetaDataExtensionsv1.xsd http://www.garmin.com/xmlschemas/ViaPointTransportationModeExtensions/v1 http://www.garmin.com/xmlschemas/ViaPointTransportationModeExtensionsv1.xsd http://www.garmin.com/xmlschemas/CreationTimeExtension/v1 http://www.garmin.com/xmlschemas/CreationTimeExtensionsv1.xsd http://www.garmin.com/xmlschemas/AccelerationExtension/v1 http://www.garmin.com/xmlschemas/AccelerationExtensionv1.xsd http://www.garmin.com/xmlschemas/PowerExtension/v1 http://www.garmin.com/xmlschemas/PowerExtensionv1.xsd http://www.garmin.com/xmlschemas/VideoExtension/v1 http://www.garmin.com/xmlschemas/VideoExtensionv1.xsd" xmlns="http://www.topografix.com/GPX/1/1" xmlns:xsi="http://www.w3.org/2001/XMLSchema-instance" xmlns:wptx1="http://www.garmin.com/xmlschemas/WaypointExtension/v1" xmlns:gpxtrx="http://www.garmin.com/xmlschemas/GpxExtensions/v3" xmlns:gpxtpx="http://www.garmin.com/xmlschemas/TrackPointExtension/v1" xmlns:gpxx="http://www.garmin.com/xmlschemas/GpxExtensions/v3" xmlns:trp="http://www.garmin.com/xmlschemas/TripExtensions/v1" xmlns:adv="http://www.garmin.com/xmlschemas/AdventuresExtensions/v1" xmlns:prs="http://www.garmin.com/xmlschemas/PressureExtension/v1" xmlns:tmd="http://www.garmin.com/xmlschemas/TripMetaDataExtensions/v1" xmlns:vptm="http://www.garmin.com/xmlschemas/ViaPointTransportationModeExtensions/v1" xmlns:ctx="http://www.garmin.com/xmlschemas/CreationTimeExtension/v1" xmlns:gpxacc="http://www.garmin.com/xmlschemas/AccelerationExtension/v1" xmlns:gpxpx="http://www.garmin.com/xmlschemas/PowerExtension/v1" xmlns:vidx1="http://www.garmin.com/xmlschemas/VideoExtension/v1">

  <metadata>
    <link href="http://www.garmin.com">
      <text>Garmin International</text>
    </link>
    <time>2022-01-07T07:47:27Z</time>
    <bounds maxlat="45.999413961544633" maxlon="8.155624894425273" minlat="45.986989131197333" minlon="8.126877564936876" />
  </metadata>

  <trk>
    <name>Alpe-Cingora2022-01-06</name>
    <extensions>
      <gpxx:TrackExtension>
        <gpxx:DisplayColor>Yellow</gpxx:DisplayColor>
      </gpxx:TrackExtension>
      <gpxtrkx:TrackStatsExtension xmlns:gpxtrkx="http://www.garmin.com/xmlschemas/TrackStatsExtension/v1">
        <gpxtrkx:Distance>10347</gpxtrkx:Distance>
        <gpxtrkx:TotalElapsedTime>27200</gpxtrkx:TotalElapsedTime>
        <gpxtrkx:MovingTime>14985</gpxtrkx:MovingTime>
        <gpxtrkx:StoppedTime>12204</gpxtrkx:StoppedTime>
        <gpxtrkx:MovingSpeed>0.691</gpxtrkx:MovingSpeed>
        <gpxtrkx:MaxSpeed>3.001</gpxtrkx:MaxSpeed>
        <gpxtrkx:MaxElevation>1295.349</gpxtrkx:MaxElevation>
        <gpxtrkx:MinElevation>572.114</gpxtrkx:MinElevation>
        <gpxtrkx:Ascent>846</gpxtrkx:Ascent>
        <gpxtrkx:Descent>858.604</gpxtrkx:Descent>
        <gpxtrkx:AvgAscentRate>0.052</gpxtrkx:AvgAscentRate>
        <gpxtrkx:MaxAscentRate>0.273</gpxtrkx:MaxAscentRate>
        <gpxtrkx:AvgDescentRate>0.092</gpxtrkx:AvgDescentRate>
        <gpxtrkx:MaxDescentRate>-0.404</gpxtrkx:MaxDescentRate>
      </gpxtrkx:TrackStatsExtension>
    </extensions>
    <trkseg>
      <trkpt lat="45.987000614404678" lon="8.128141220659018">
        <ele>586.10000000000002</ele>
        <time>2022-01-06T07:45:53Z</time>
      </trkpt>
      <trkpt lat="45.987002206966281" lon="8.12814180739224">
        <ele>586.10000000000002</ele>
        <time>2022-01-06T07:45:54Z</time>
      </trkpt>
      <trkpt lat="45.987008828669786" lon="8.128142142668366">
        <ele>584.75999999999999</ele>
        <time>2022-01-06T07:46:21Z</time>
      </trkpt>
      <trkpt lat="45.98700656555593" lon="8.128140047192574">
        <ele>586.27999999999997</ele>
        <time>2022-01-06T07:46:37Z</time>
      </trkpt>
      <trkpt lat="45.987002709880471" lon="8.128135101869702">
        <ele>585.10000000000002</ele>
        <time>2022-01-06T07:46:55Z</time>
      </trkpt>
      <trkpt lat="45.987003715708852" lon="8.128126971423626">
        <ele>585.55999999999995</ele>
        <time>2022-01-06T07:47:11Z</time>
      </trkpt>
      <trkpt lat="45.987004637718201" lon="8.128125881776214">
        <ele>585.46000000000004</ele>
        <time>2022-01-06T07:47:32Z</time>
      </trkpt>
      <trkpt lat="45.987001117318869" lon="8.128114985302091">
        <ele>585.38</ele>
        <time>2022-01-06T07:47:50Z</time>
      </trkpt>
      <trkpt lat="45.986993825063109" lon="8.128111297264695">
        <ele>585.37</ele>
        <time>2022-01-06T07:48:17Z</time>
      </trkpt>
      <trkpt lat="45.986990807577968" lon="8.128118338063359">
        <ele>585.13</ele>
        <time>2022-01-06T07:48:48Z</time>
      </trkpt>
      <trkpt lat="45.986989131197333" lon="8.128109704703093">
        <ele>585.05999999999995</ele>
        <time>2022-01-06T07:49:07Z</time>
      </trkpt>
      <trkpt lat="45.98699483089149" lon="8.128114314749837">
        <ele>585.22000000000003</ele>
        <time>2022-01-06T07:49:28Z</time>
      </trkpt>
      <trkpt lat="45.986994663253427" lon="8.128097299486399">
        <ele>585.20000000000005</ele>
        <time>2022-01-06T07:49:50Z</time>
      </trkpt>
      <trkpt lat="45.987022826448083" lon="8.12816770747304">
        <ele>584.99000000000001</ele>
        <time>2022-01-06T07:50:14Z</time>
      </trkpt>
      <trkpt lat="45.987073201686144" lon="8.128152284771204">
        <ele>585.10000000000002</ele>
        <time>2022-01-06T07:50:25Z</time>
      </trkpt>
      <trkpt lat="45.987077979370952" lon="8.128184052184224">
        <ele>585.13</ele>
        <time>2022-01-06T07:50:42Z</time>
      </trkpt>
      <trkpt lat="45.987082086503506" lon="8.128189500421286">
        <ele>585.16999999999996</ele>
        <time>2022-01-06T07:51:04Z</time>
      </trkpt>
      <trkpt lat="45.987081583589315" lon="8.12818774022162">
        <ele>583.77999999999997</ele>
        <time>2022-01-06T07:51:10Z</time>
      </trkpt>
      <trkpt lat="45.987081835046411" lon="8.128186902031303">
        <ele>585.62</ele>
        <time>2022-01-06T07:51:13Z</time>
      </trkpt>
      <trkpt lat="45.987081164494157" lon="8.128186902031303">
        <ele>584.25</ele>
        <time>2022-01-06T07:51:15Z</time>
      </trkpt>
      <trkpt lat="45.987083679065108" lon="8.128194948658347">
        <ele>585.12</ele>
        <time>2022-01-06T07:51:36Z</time>
      </trkpt>
      <trkpt lat="45.987084768712521" lon="8.128197463229299">
        <ele>585.29999999999995</ele>
        <time>2022-01-06T07:51:40Z</time>
      </trkpt>
      <trkpt lat="45.987080242484808" lon="8.128203246742487">
        <ele>585.19000000000005</ele>
        <time>2022-01-06T07:52:03Z</time>
      </trkpt>
      <trkpt lat="45.987088037654757" lon="8.128196289762855">
        <ele>585.15999999999997</ele>
        <time>2022-01-06T07:52:25Z</time>
      </trkpt>
      <trkpt lat="45.987113351002336" lon="8.128220681101084">
        <ele>584.86000000000001</ele>
        <time>2022-01-06T07:52:33Z</time>
      </trkpt>
      <trkpt lat="45.987132461741567" lon="8.128251526504755">
        <ele>585</ele>
        <time>2022-01-06T07:52:36Z</time>
      </trkpt>
      <trkpt lat="45.987209910526872" lon="8.128415392711759">
        <ele>586.49000000000001</ele>
        <time>2022-01-06T07:52:50Z</time>
      </trkpt>
      <trkpt lat="45.987215274944901" lon="8.128428719937801">
        <ele>586.63</ele>
        <time>2022-01-06T07:52:51Z</time>
      </trkpt>
      <trkpt lat="45.987272942438722" lon="8.1286118645221">
        <ele>587.12</ele>
        <time>2022-01-06T07:53:04Z</time>
      </trkpt>
      <trkpt lat="45.987341841682792" lon="8.128817137330771">
        <ele>589.19000000000005</ele>
        <time>2022-01-06T07:53:18Z</time>
      </trkpt>
      <trkpt lat="45.987394647672772" lon="8.128925766795874">
        <ele>590.29999999999995</ele>
        <time>2022-01-06T07:53:26Z</time>
      </trkpt>
      <trkpt lat="45.987447872757912" lon="8.12894269824028">
        <ele>590.75999999999999</ele>
        <time>2022-01-06T07:53:31Z</time>
      </trkpt>
      <trkpt lat="45.987535379827023" lon="8.128810850903392">
        <ele>591.97000000000003</ele>
        <time>2022-01-06T07:53:43Z</time>
      </trkpt>
      <trkpt lat="45.987502103671432" lon="8.128619072958827">
        <ele>593.60000000000002</ele>
        <time>2022-01-06T07:53:56Z</time>
      </trkpt>
      <trkpt lat="45.987425241619349" lon="8.128398461267352">
        <ele>595.55999999999995</ele>
        <time>2022-01-06T07:54:13Z</time>
      </trkpt>
      <trkpt lat="45.987439574673772" lon="8.128244318068028">
        <ele>596.94000000000005</ele>
        <time>2022-01-06T07:54:27Z</time>
      </trkpt>
      <trkpt lat="45.987537475302815" lon="8.128296453505755">
        <ele>598.42999999999995</ele>
        <time>2022-01-06T07:54:41Z</time>
      </trkpt>
      <trkpt lat="45.987554574385285" lon="8.128327466547489">
        <ele>598.62</ele>
        <time>2022-01-06T07:54:44Z</time>
      </trkpt>
      <trkpt lat="45.987655660137534" lon="8.128505581989884">
        <ele>599.54999999999995</ele>
        <time>2022-01-06T07:55:00Z</time>
      </trkpt>
      <trkpt lat="45.987670412287116" lon="8.12852636910975">
        <ele>600</ele>
        <time>2022-01-06T07:55:02Z</time>
      </trkpt>
      <trkpt lat="45.987731264904141" lon="8.128562327474356">
        <ele>600.53999999999996</ele>
        <time>2022-01-06T07:55:08Z</time>
      </trkpt>
      <trkpt lat="45.987773593515158" lon="8.128553945571184">
        <ele>600.88999999999999</ele>
        <time>2022-01-06T07:55:12Z</time>
      </trkpt>
      <trkpt lat="45.987818269059062" lon="8.128478843718767">
        <ele>601.66999999999996</ele>
        <time>2022-01-06T07:55:19Z</time>
      </trkpt>
      <trkpt lat="45.987828243523836" lon="8.128439197316766">
        <ele>601.74000000000001</ele>
        <time>2022-01-06T07:55:22Z</time>
      </trkpt>
      <trkpt lat="45.987789602950215" lon="8.128326125442982">
        <ele>603.26999999999998</ele>
        <time>2022-01-06T07:55:31Z</time>
      </trkpt>
      <trkpt lat="45.987784322351217" lon="8.128315899521112">
        <ele>602.91999999999996</ele>
        <time>2022-01-06T07:55:32Z</time>
      </trkpt>
      <trkpt lat="45.987671921029687" lon="8.128164689987898">
        <ele>604.25</ele>
        <time>2022-01-06T07:55:48Z</time>
      </trkpt>
      <trkpt lat="45.987559938803315" lon="8.128061089664698">
        <ele>605.51999999999998</ele>
        <time>2022-01-06T07:56:01Z</time>
      </trkpt>
      <trkpt lat="45.987500343471766" lon="8.127990597859025">
        <ele>606.38999999999999</ele>
        <time>2022-01-06T07:56:09Z</time>
      </trkpt>
      <trkpt lat="45.987528003752232" lon="8.127842321991921">
        <ele>607.33000000000004</ele>
        <time>2022-01-06T07:56:21Z</time>
      </trkpt>
      <trkpt lat="45.987581899389625" lon="8.127841567620635">
        <ele>608.05999999999995</ele>
        <time>2022-01-06T07:56:28Z</time>
      </trkpt>
      <trkpt lat="45.987655827775598" lon="8.12791608273983">
        <ele>608.71000000000004</ele>
        <time>2022-01-06T07:56:38Z</time>
      </trkpt>
      <trkpt lat="45.9877541474998" lon="8.128062933683395">
        <ele>609.69000000000005</ele>
        <time>2022-01-06T07:56:51Z</time>
      </trkpt>
      <trkpt lat="45.987823801115155" lon="8.128140214830637">
        <ele>609.89999999999998</ele>
        <time>2022-01-06T07:56:59Z</time>
      </trkpt>
      <trkpt lat="45.987996468320489" lon="8.1281110458076">
        <ele>611.48000000000002</ele>
        <time>2022-01-06T07:57:16Z</time>
      </trkpt>
      <trkpt lat="45.987976100295782" lon="8.127953885123134">
        <ele>612.73000000000002</ele>
        <time>2022-01-06T07:57:27Z</time>
      </trkpt>
      <trkpt lat="45.987835954874754" lon="8.127830503508449">
        <ele>614.30999999999995</ele>
        <time>2022-01-06T07:57:42Z</time>
      </trkpt>
      <trkpt lat="45.987792536616325" lon="8.12780661508441">
        <ele>614.40999999999997</ele>
        <time>2022-01-06T07:57:46Z</time>
      </trkpt>
      <trkpt lat="45.987746268510818" lon="8.127762861549854">
        <ele>614.62</ele>
        <time>2022-01-06T07:57:51Z</time>
      </trkpt>
      <trkpt lat="45.987687176093459" lon="8.127718437463045">
        <ele>615.00999999999999</ele>
        <time>2022-01-06T07:57:57Z</time>
      </trkpt>
      <trkpt lat="45.987650714814663" lon="8.127678288146853">
        <ele>615.53999999999996</ele>
        <time>2022-01-06T07:58:02Z</time>
      </trkpt>
      <trkpt lat="45.987680722028017" lon="8.127646017819643">
        <ele>616.63999999999999</ele>
        <time>2022-01-06T07:58:08Z</time>
      </trkpt>
      <trkpt lat="45.987796979025006" lon="8.127666553482413">
        <ele>618.21000000000004</ele>
        <time>2022-01-06T07:58:20Z</time>
      </trkpt>
      <trkpt lat="45.98784995265305" lon="8.127704188227654">
        <ele>618.66999999999996</ele>
        <time>2022-01-06T07:58:26Z</time>
      </trkpt>
      <trkpt lat="45.987886833027005" lon="8.127733692526817">
        <ele>618.96000000000004</ele>
        <time>2022-01-06T07:58:30Z</time>
      </trkpt>
      <trkpt lat="45.98799604922533" lon="8.127792365849018">
        <ele>619.87</ele>
        <time>2022-01-06T07:58:41Z</time>
      </trkpt>
      <trkpt lat="45.988079449161887" lon="8.127740062773228">
        <ele>620.92999999999995</ele>
        <time>2022-01-06T07:58:51Z</time>
      </trkpt>
      <trkpt lat="45.988136194646358" lon="8.127561612054706">
        <ele>622.63999999999999</ele>
        <time>2022-01-06T07:59:05Z</time>
      </trkpt>
      <trkpt lat="45.988171398639679" lon="8.127461196854711">
        <ele>623.52999999999997</ele>
        <time>2022-01-06T07:59:13Z</time>
      </trkpt>
      <trkpt lat="45.988203417509794" lon="8.127431608736515">
        <ele>624</ele>
        <time>2022-01-06T07:59:17Z</time>
      </trkpt>
      <trkpt lat="45.98824717104435" lon="8.127433955669403">
        <ele>624.61000000000001</ele>
        <time>2022-01-06T07:59:23Z</time>
      </trkpt>
      <trkpt lat="45.988273657858372" lon="8.127448707818985">
        <ele>624.86000000000001</ele>
        <time>2022-01-06T07:59:27Z</time>
      </trkpt>
      <trkpt lat="45.988288410007954" lon="8.127467064186931">
        <ele>624.98000000000002</ele>
        <time>2022-01-06T07:59:30Z</time>
      </trkpt>
      <trkpt lat="45.988307939842343" lon="8.127471338957548">
        <ele>625.10000000000002</ele>
        <time>2022-01-06T07:59:31Z</time>
      </trkpt>
      <trkpt lat="45.988330487161875" lon="8.127475110813975">
        <ele>625.10000000000002</ele>
        <time>2022-01-06T07:59:32Z</time>
      </trkpt>
      <trkpt lat="45.988343311473727" lon="8.127478379756212">
        <ele>625.23000000000002</ele>
        <time>2022-01-06T07:59:33Z</time>
      </trkpt>
      <trkpt lat="45.988354794681072" lon="8.127482905983925">
        <ele>625.25</ele>
        <time>2022-01-06T07:59:34Z</time>
      </trkpt>
      <trkpt lat="45.988367702811956" lon="8.12748902477324">
        <ele>625.39999999999998</ele>
        <time>2022-01-06T07:59:35Z</time>
      </trkpt>
      <trkpt lat="45.988385891541839" lon="8.127502016723156">
        <ele>625.38999999999999</ele>
        <time>2022-01-06T07:59:36Z</time>
      </trkpt>
      <trkpt lat="45.988455628976226" lon="8.127517690882087">
        <ele>625.67999999999995</ele>
        <time>2022-01-06T07:59:41Z</time>
      </trkpt>
      <trkpt lat="45.988491084426641" lon="8.127518780529499">
        <ele>626.03999999999996</ele>
        <time>2022-01-06T07:59:44Z</time>
      </trkpt>
      <trkpt lat="45.988495610654354" lon="8.127505788579583">
        <ele>626.01999999999998</ele>
        <time>2022-01-06T07:59:45Z</time>
      </trkpt>
      <trkpt lat="45.988502148538828" lon="8.127490617334843">
        <ele>626.13999999999999</ele>
        <time>2022-01-06T07:59:46Z</time>
      </trkpt>
      <trkpt lat="45.988507429137826" lon="8.127476284280419">
        <ele>626.25</ele>
        <time>2022-01-06T07:59:47Z</time>
      </trkpt>
      <trkpt lat="45.988513296470046" lon="8.127463879063726">
        <ele>626.37</ele>
        <time>2022-01-06T07:59:48Z</time>
      </trkpt>
      <trkpt lat="45.988524192944169" lon="8.127453317865729">
        <ele>626.52999999999997</ele>
        <time>2022-01-06T07:59:49Z</time>
      </trkpt>
      <trkpt lat="45.988529054448009" lon="8.127437476068735">
        <ele>626.72000000000003</ele>
        <time>2022-01-06T07:59:50Z</time>
      </trkpt>
      <trkpt lat="45.988531485199928" lon="8.12742062844336">
        <ele>626.86000000000001</ele>
        <time>2022-01-06T07:59:51Z</time>
      </trkpt>
      <trkpt lat="45.988542968407273" lon="8.12738886103034">
        <ele>627.25</ele>
        <time>2022-01-06T07:59:54Z</time>
      </trkpt>
      <trkpt lat="45.988546488806605" lon="8.12737762928009">
        <ele>627.40999999999997</ele>
        <time>2022-01-06T07:59:55Z</time>
      </trkpt>
      <trkpt lat="45.988538861274719" lon="8.127356506884098">
        <ele>627.5</ele>
        <time>2022-01-06T07:59:57Z</time>
      </trkpt>
      <trkpt lat="45.988530563190579" lon="8.12729649245739">
        <ele>628.37</ele>
        <time>2022-01-06T08:00:02Z</time>
      </trkpt>
      <trkpt lat="45.988523857668042" lon="8.127264054492116">
        <ele>629.10000000000002</ele>
        <time>2022-01-06T08:00:06Z</time>
      </trkpt>
      <trkpt lat="45.98851446993649" lon="8.127226084470749">
        <ele>629.27999999999997</ele>
        <time>2022-01-06T08:00:08Z</time>
      </trkpt>
      <trkpt lat="45.98850566893816" lon="8.127143019810319">
        <ele>630.63999999999999</ele>
        <time>2022-01-06T08:00:14Z</time>
      </trkpt>
      <trkpt lat="45.988505333662033" lon="8.127078227698803">
        <ele>631.48000000000002</ele>
        <time>2022-01-06T08:00:19Z</time>
      </trkpt>
      <trkpt lat="45.988504327833652" lon="8.127048304304481">
        <ele>631.87</ele>
        <time>2022-01-06T08:00:21Z</time>
      </trkpt>
      <trkpt lat="45.988522181287408" lon="8.126974459737539">
        <ele>632.62</ele>
        <time>2022-01-06T08:00:27Z</time>
      </trkpt>
      <trkpt lat="45.98853156901896" lon="8.126964652910829">
        <ele>632.69000000000005</ele>
        <time>2022-01-06T08:00:28Z</time>
      </trkpt>
      <trkpt lat="45.988599043339491" lon="8.126986026763916">
        <ele>634.23000000000002</ele>
        <time>2022-01-06T08:00:37Z</time>
      </trkpt>
      <trkpt lat="45.988617483526468" lon="8.127021817490459">
        <ele>634.83000000000004</ele>
        <time>2022-01-06T08:00:41Z</time>
      </trkpt>
      <trkpt lat="45.988641623407602" lon="8.127101780846715">
        <ele>635.94000000000005</ele>
        <time>2022-01-06T08:00:48Z</time>
      </trkpt>
      <trkpt lat="45.988667272031307" lon="8.127183001488447">
        <ele>636.90999999999997</ele>
        <time>2022-01-06T08:00:55Z</time>
      </trkpt>
      <trkpt lat="45.988691663369536" lon="8.127246955409646">
        <ele>637.64999999999998</ele>
        <time>2022-01-06T08:01:01Z</time>
      </trkpt>
      <trkpt lat="45.988735752180219" lon="8.127385508269072">
        <ele>639.29999999999995</ele>
        <time>2022-01-06T08:01:14Z</time>
      </trkpt>
      <trkpt lat="45.988766346126795" lon="8.127534789964557">
        <ele>641.49000000000001</ele>
        <time>2022-01-06T08:01:28Z</time>
      </trkpt>
      <trkpt lat="45.988781517371535" lon="8.127710223197937">
        <ele>644.04999999999995</ele>
        <time>2022-01-06T08:01:43Z</time>
      </trkpt>
      <trkpt lat="45.988795598968863" lon="8.12789018265903">
        <ele>646.39999999999998</ele>
        <time>2022-01-06T08:01:59Z</time>
      </trkpt>
      <trkpt lat="45.988804819062352" lon="8.128077937290072">
        <ele>648.88999999999999</ele>
        <time>2022-01-06T08:02:15Z</time>
      </trkpt>
      <trkpt lat="45.988800041377544" lon="8.128250017762184">
        <ele>651.59000000000003</ele>
        <time>2022-01-06T08:02:31Z</time>
      </trkpt>
      <trkpt lat="45.988780930638313" lon="8.128390163183212">
        <ele>653.12</ele>
        <time>2022-01-06T08:02:43Z</time>
      </trkpt>
      <trkpt lat="45.988778667524457" lon="8.128404496237636">
        <ele>653.52999999999997</ele>
        <time>2022-01-06T08:02:44Z</time>
      </trkpt>
      <trkpt lat="45.988741368055344" lon="8.128565344959498">
        <ele>654.88</ele>
        <time>2022-01-06T08:02:57Z</time>
      </trkpt>
      <trkpt lat="45.98871136084199" lon="8.12872719950974">
        <ele>656.51999999999998</ele>
        <time>2022-01-06T08:03:11Z</time>
      </trkpt>
      <trkpt lat="45.988713540136814" lon="8.128915037959814">
        <ele>658.35000000000002</ele>
        <time>2022-01-06T08:03:27Z</time>
      </trkpt>
      <trkpt lat="45.988752180710435" lon="8.129036324098706">
        <ele>659.09000000000003</ele>
        <time>2022-01-06T08:03:39Z</time>
      </trkpt>
      <trkpt lat="45.9887470677495" lon="8.129062140360475">
        <ele>659.25</ele>
        <time>2022-01-06T08:03:41Z</time>
      </trkpt>
      <trkpt lat="45.988733489066362" lon="8.129084436222911">
        <ele>659.24000000000001</ele>
        <time>2022-01-06T08:03:51Z</time>
      </trkpt>
      <trkpt lat="45.988732483237982" lon="8.129085442051292">
        <ele>659.26999999999998</ele>
        <time>2022-01-06T08:04:07Z</time>
      </trkpt>
      <trkpt lat="45.988728459924459" lon="8.129088627174497">
        <ele>659.34000000000003</ele>
        <time>2022-01-06T08:04:39Z</time>
      </trkpt>
      <trkpt lat="45.988739104941487" lon="8.129071779549122">
        <ele>659.62</ele>
        <time>2022-01-06T08:05:07Z</time>
      </trkpt>
      <trkpt lat="45.988756371662021" lon="8.129073707386851">
        <ele>659.76999999999998</ele>
        <time>2022-01-06T08:05:29Z</time>
      </trkpt>
      <trkpt lat="45.988790653645992" lon="8.129074797034264">
        <ele>659.80999999999995</ele>
        <time>2022-01-06T08:05:41Z</time>
      </trkpt>
      <trkpt lat="45.988775566220284" lon="8.129075048491359">
        <ele>659.73000000000002</ele>
        <time>2022-01-06T08:05:46Z</time>
      </trkpt>
      <trkpt lat="45.988743882626295" lon="8.129056189209223">
        <ele>659.63</ele>
        <time>2022-01-06T08:05:57Z</time>
      </trkpt>
      <trkpt lat="45.988744636997581" lon="8.129058452323079">
        <ele>659.64999999999998</ele>
        <time>2022-01-06T08:06:15Z</time>
      </trkpt>
      <trkpt lat="45.988744888454676" lon="8.129054680466652">
        <ele>659.38999999999999</ele>
        <time>2022-01-06T08:06:31Z</time>
      </trkpt>
      <trkpt lat="45.988744888454676" lon="8.129049651324749">
        <ele>659.51999999999998</ele>
        <time>2022-01-06T08:06:46Z</time>
      </trkpt>
      <trkpt lat="45.988739607855678" lon="8.129054512828589">
        <ele>659.57000000000005</ele>
        <time>2022-01-06T08:07:12Z</time>
      </trkpt>
      <trkpt lat="45.988739356398582" lon="8.129049316048622">
        <ele>659</ele>
        <time>2022-01-06T08:07:28Z</time>
      </trkpt>
      <trkpt lat="45.988740781322122" lon="8.129053004086018">
        <ele>660.03999999999996</ele>
        <time>2022-01-06T08:07:45Z</time>
      </trkpt>
      <trkpt lat="45.988746145740151" lon="8.1290452927351">
        <ele>659.72000000000003</ele>
        <time>2022-01-06T08:08:03Z</time>
      </trkpt>
      <trkpt lat="45.988767184317112" lon="8.129035402089357">
        <ele>659.65999999999997</ele>
        <time>2022-01-06T08:08:20Z</time>
      </trkpt>
      <trkpt lat="45.988762155175209" lon="8.129037246108055">
        <ele>659.63</ele>
        <time>2022-01-06T08:08:42Z</time>
      </trkpt>
      <trkpt lat="45.9887954313308" lon="8.129049316048622">
        <ele>659.91999999999996</ele>
        <time>2022-01-06T08:09:01Z</time>
      </trkpt>
      <trkpt lat="45.988825270906091" lon="8.129059877246618">
        <ele>659.88999999999999</ele>
        <time>2022-01-06T08:09:17Z</time>
      </trkpt>
      <trkpt lat="45.988859301432967" lon="8.129063816741109">
        <ele>659.84000000000003</ele>
        <time>2022-01-06T08:09:30Z</time>
      </trkpt>
      <trkpt lat="45.988859804347157" lon="8.129071108996868">
        <ele>659.89999999999998</ele>
        <time>2022-01-06T08:09:44Z</time>
      </trkpt>
      <trkpt lat="45.988916885107756" lon="8.129119221121073">
        <ele>660</ele>
        <time>2022-01-06T08:09:56Z</time>
      </trkpt>
      <trkpt lat="45.988967511802912" lon="8.129106732085347">
        <ele>660.75</ele>
        <time>2022-01-06T08:10:08Z</time>
      </trkpt>
      <trkpt lat="45.98900992423296" lon="8.129123328253627">
        <ele>661.24000000000001</ele>
        <time>2022-01-06T08:10:15Z</time>
      </trkpt>
      <trkpt lat="45.989020653069019" lon="8.129131710156798">
        <ele>661.35000000000002</ele>
        <time>2022-01-06T08:10:16Z</time>
      </trkpt>
      <trkpt lat="45.989034147933125" lon="8.129137493669987">
        <ele>661.36000000000001</ele>
        <time>2022-01-06T08:10:17Z</time>
      </trkpt>
      <trkpt lat="45.989045882597566" lon="8.129145121201873">
        <ele>661.26999999999998</ele>
        <time>2022-01-06T08:10:18Z</time>
      </trkpt>
      <trkpt lat="45.989090893417597" lon="8.129227599129081">
        <ele>661.69000000000005</ele>
        <time>2022-01-06T08:10:28Z</time>
      </trkpt>
      <trkpt lat="45.989158703014255" lon="8.129196250811219">
        <ele>663.49000000000001</ele>
        <time>2022-01-06T08:10:40Z</time>
      </trkpt>
      <trkpt lat="45.989186950027943" lon="8.129145456478">
        <ele>663.46000000000004</ele>
        <time>2022-01-06T08:10:54Z</time>
      </trkpt>
      <trkpt lat="45.989190135151148" lon="8.129257271066308">
        <ele>663.05999999999995</ele>
        <time>2022-01-06T08:11:05Z</time>
      </trkpt>
      <trkpt lat="45.989207988604903" lon="8.12934678979218">
        <ele>664.50999999999999</ele>
        <time>2022-01-06T08:11:20Z</time>
      </trkpt>
      <trkpt lat="45.989214358851314" lon="8.129483247175813">
        <ele>665.09000000000003</ele>
        <time>2022-01-06T08:11:35Z</time>
      </trkpt>
      <trkpt lat="45.989230871200562" lon="8.129500178620219">
        <ele>665.07000000000005</ele>
        <time>2022-01-06T08:11:51Z</time>
      </trkpt>
      <trkpt lat="45.989218968898058" lon="8.129532532766461">
        <ele>665</ele>
        <time>2022-01-06T08:12:07Z</time>
      </trkpt>
      <trkpt lat="45.989212933927774" lon="8.129591625183821">
        <ele>663.05999999999995</ele>
        <time>2022-01-06T08:12:14Z</time>
      </trkpt>
      <trkpt lat="45.98921611905098" lon="8.129607634618878">
        <ele>662.88</ele>
        <time>2022-01-06T08:12:15Z</time>
      </trkpt>
      <trkpt lat="45.989224668592215" lon="8.12961895018816">
        <ele>662.89999999999998</ele>
        <time>2022-01-06T08:12:16Z</time>
      </trkpt>
      <trkpt lat="45.989236989989877" lon="8.129628924652934">
        <ele>662.98000000000002</ele>
        <time>2022-01-06T08:12:17Z</time>
      </trkpt>
      <trkpt lat="45.989247970283031" lon="8.129638731479645">
        <ele>662.95000000000005</ele>
        <time>2022-01-06T08:12:18Z</time>
      </trkpt>
      <trkpt lat="45.989271607249975" lon="8.129660943523049">
        <ele>662.55999999999995</ele>
        <time>2022-01-06T08:12:21Z</time>
      </trkpt>
      <trkpt lat="45.989284263923764" lon="8.129684748128057">
        <ele>662.39999999999998</ele>
        <time>2022-01-06T08:12:23Z</time>
      </trkpt>
      <trkpt lat="45.989324497058988" lon="8.129765298217535">
        <ele>662.23000000000002</ele>
        <time>2022-01-06T08:12:29Z</time>
      </trkpt>
      <trkpt lat="45.989364730194211" lon="8.129811398684979">
        <ele>662.17999999999995</ele>
        <time>2022-01-06T08:12:33Z</time>
      </trkpt>
      <trkpt lat="45.989414770156145" lon="8.129902509972453">
        <ele>662.47000000000003</ele>
        <time>2022-01-06T08:12:41Z</time>
      </trkpt>
      <trkpt lat="45.989496074616909" lon="8.130032764747739">
        <ele>663.00999999999999</ele>
        <time>2022-01-06T08:12:54Z</time>
      </trkpt>
      <trkpt lat="45.989543600007892" lon="8.130045672878623">
        <ele>663.51999999999998</ele>
        <time>2022-01-06T08:13:01Z</time>
      </trkpt>
      <trkpt lat="45.989572014659643" lon="8.130199816077948">
        <ele>664.09000000000003</ele>
        <time>2022-01-06T08:13:12Z</time>
      </trkpt>
      <trkpt lat="45.989606631919742" lon="8.130338117480278">
        <ele>664.86000000000001</ele>
        <time>2022-01-06T08:13:28Z</time>
      </trkpt>
      <trkpt lat="45.989622725173831" lon="8.130367118865252">
        <ele>664.98000000000002</ele>
        <time>2022-01-06T08:13:41Z</time>
      </trkpt>
      <trkpt lat="45.989660359919071" lon="8.130392599850893">
        <ele>663.59000000000003</ele>
        <time>2022-01-06T08:13:52Z</time>
      </trkpt>
      <trkpt lat="45.989670334383845" lon="8.130391426384449">
        <ele>663.60000000000002</ele>
        <time>2022-01-06T08:13:53Z</time>
      </trkpt>
      <trkpt lat="45.98984501324594" lon="8.130380949005485">
        <ele>662.54999999999995</ele>
        <time>2022-01-06T08:14:06Z</time>
      </trkpt>
      <trkpt lat="45.989958252757788" lon="8.130429396405816">
        <ele>662.24000000000001</ele>
        <time>2022-01-06T08:14:16Z</time>
      </trkpt>
      <trkpt lat="45.990035114809871" lon="8.130495278164744">
        <ele>661.39999999999998</ele>
        <time>2022-01-06T08:14:25Z</time>
      </trkpt>
      <trkpt lat="45.990079622715712" lon="8.130567949265242">
        <ele>659.47000000000003</ele>
        <time>2022-01-06T08:14:39Z</time>
      </trkpt>
      <trkpt lat="45.990093285217881" lon="8.13059376552701">
        <ele>659.09000000000003</ele>
        <time>2022-01-06T08:14:41Z</time>
      </trkpt>
      <trkpt lat="45.990106528624892" lon="8.130726702511311">
        <ele>657.88</ele>
        <time>2022-01-06T08:14:48Z</time>
      </trkpt>
      <trkpt lat="45.990118095651269" lon="8.13084103167057">
        <ele>658.63999999999999</ele>
        <time>2022-01-06T08:14:55Z</time>
      </trkpt>
      <trkpt lat="45.990067720413208" lon="8.130963239818811">
        <ele>658.90999999999997</ele>
        <time>2022-01-06T08:15:06Z</time>
      </trkpt>
      <trkpt lat="45.990043748170137" lon="8.131022583693266">
        <ele>658.50999999999999</ele>
        <time>2022-01-06T08:15:19Z</time>
      </trkpt>
      <trkpt lat="45.989990271627903" lon="8.131150742992759">
        <ele>660.04999999999995</ele>
        <time>2022-01-06T08:15:30Z</time>
      </trkpt>
      <trkpt lat="45.989988092333078" lon="8.131155855953693">
        <ele>660.25</ele>
        <time>2022-01-06T08:15:31Z</time>
      </trkpt>
      <trkpt lat="45.98996520973742" lon="8.131235400214791">
        <ele>662.75999999999999</ele>
        <time>2022-01-06T08:15:46Z</time>
      </trkpt>
      <trkpt lat="45.989960515871644" lon="8.131325673311949">
        <ele>665.00999999999999</ele>
        <time>2022-01-06T08:16:02Z</time>
      </trkpt>
      <trkpt lat="45.989985326305032" lon="8.131431788206101">
        <ele>668.01999999999998</ele>
        <time>2022-01-06T08:16:20Z</time>
      </trkpt>
      <trkpt lat="45.990048525854945" lon="8.131500435993075">
        <ele>668.75999999999999</ele>
        <time>2022-01-06T08:16:30Z</time>
      </trkpt>
      <trkpt lat="45.990135278552771" lon="8.131605042144656">
        <ele>669.41999999999996</ele>
        <time>2022-01-06T08:16:44Z</time>
      </trkpt>
      <trkpt lat="45.990268383175135" lon="8.13169808126986">
        <ele>670.5</ele>
        <time>2022-01-06T08:17:02Z</time>
      </trkpt>
      <trkpt lat="45.990333762019873" lon="8.131810482591391">
        <ele>670.10000000000002</ele>
        <time>2022-01-06T08:17:14Z</time>
      </trkpt>
      <trkpt lat="45.990340718999505" lon="8.131818948313594">
        <ele>670.00999999999999</ele>
        <time>2022-01-06T08:17:15Z</time>
      </trkpt>
      <trkpt lat="45.990431243553758" lon="8.131954818964005">
        <ele>669.75</ele>
        <time>2022-01-06T08:17:28Z</time>
      </trkpt>
      <trkpt lat="45.990470638498664" lon="8.132118014618754">
        <ele>668.66999999999996</ele>
        <time>2022-01-06T08:17:41Z</time>
      </trkpt>
      <trkpt lat="45.990478182211518" lon="8.132297806441784">
        <ele>668.59000000000003</ele>
        <time>2022-01-06T08:17:52Z</time>
      </trkpt>
      <trkpt lat="45.99050366319716" lon="8.13250039704144">
        <ele>670.12</ele>
        <time>2022-01-06T08:18:06Z</time>
      </trkpt>
      <trkpt lat="45.990512715652585" lon="8.132550437003374">
        <ele>670.28999999999996</ele>
        <time>2022-01-06T08:18:09Z</time>
      </trkpt>
      <trkpt lat="45.990554792806506" lon="8.132638111710548">
        <ele>671.19000000000005</ele>
        <time>2022-01-06T08:18:18Z</time>
      </trkpt>
      <trkpt lat="45.990597289055586" lon="8.132802816107869">
        <ele>671.12</ele>
        <time>2022-01-06T08:18:28Z</time>
      </trkpt>
      <trkpt lat="45.990636348724365" lon="8.132988391444087">
        <ele>669.34000000000003</ele>
        <time>2022-01-06T08:18:41Z</time>
      </trkpt>
      <trkpt lat="45.990649089217186" lon="8.133026612922549">
        <ele>668.34000000000003</ele>
        <time>2022-01-06T08:18:54Z</time>
      </trkpt>
      <trkpt lat="45.990737937390804" lon="8.133033821359277">
        <ele>665.84000000000003</ele>
        <time>2022-01-06T08:19:07Z</time>
      </trkpt>
      <trkpt lat="45.990812620148063" lon="8.132963916286826">
        <ele>665.99000000000001</ele>
        <time>2022-01-06T08:19:18Z</time>
      </trkpt>
      <trkpt lat="45.990876574069262" lon="8.132972465828061">
        <ele>665.94000000000005</ele>
        <time>2022-01-06T08:19:26Z</time>
      </trkpt>
      <trkpt lat="45.990960728377104" lon="8.133038934320211">
        <ele>666.25999999999999</ele>
        <time>2022-01-06T08:19:38Z</time>
      </trkpt>
      <trkpt lat="45.991033567115664" lon="8.133198358118534">
        <ele>666.40999999999997</ele>
        <time>2022-01-06T08:19:53Z</time>
      </trkpt>
      <trkpt lat="45.991062400862575" lon="8.133362559601665">
        <ele>668.04999999999995</ele>
        <time>2022-01-06T08:20:08Z</time>
      </trkpt>
      <trkpt lat="45.991069944575429" lon="8.133462136611342">
        <ele>670.13999999999999</ele>
        <time>2022-01-06T08:20:23Z</time>
      </trkpt>
      <trkpt lat="45.991087295114994" lon="8.13358468003571">
        <ele>671.91999999999996</ele>
        <time>2022-01-06T08:20:39Z</time>
      </trkpt>
      <trkpt lat="45.991108836606145" lon="8.13360370695591">
        <ele>672.05999999999995</ele>
        <time>2022-01-06T08:20:43Z</time>
      </trkpt>
      <trkpt lat="45.99122735671699" lon="8.133624074980617">
        <ele>671.69000000000005</ele>
        <time>2022-01-06T08:20:59Z</time>
      </trkpt>
      <trkpt lat="45.991299021989107" lon="8.133596833795309">
        <ele>671.12</ele>
        <time>2022-01-06T08:21:08Z</time>
      </trkpt>
      <trkpt lat="45.991412680596113" lon="8.133530784398317">
        <ele>672.11000000000001</ele>
        <time>2022-01-06T08:21:23Z</time>
      </trkpt>
      <trkpt lat="45.99146431311965" lon="8.133547464385629">
        <ele>668.75</ele>
        <time>2022-01-06T08:21:33Z</time>
      </trkpt>
      <trkpt lat="45.991529356688261" lon="8.133626924827695">
        <ele>669.69000000000005</ele>
        <time>2022-01-06T08:21:48Z</time>
      </trkpt>
      <trkpt lat="45.991584928706288" lon="8.13372440636158">
        <ele>670.33000000000004</ele>
        <time>2022-01-06T08:21:59Z</time>
      </trkpt>
      <trkpt lat="45.991603871807456" lon="8.133850889280438">
        <ele>669.70000000000005</ele>
        <time>2022-01-06T08:22:09Z</time>
      </trkpt>
      <trkpt lat="45.991579229012132" lon="8.133880225941539">
        <ele>669.58000000000004</ele>
        <time>2022-01-06T08:22:12Z</time>
      </trkpt>
      <trkpt lat="45.991566404700279" lon="8.133934708312154">
        <ele>669.60000000000002</ele>
        <time>2022-01-06T08:22:23Z</time>
      </trkpt>
      <trkpt lat="45.991556262597442" lon="8.133963374421001">
        <ele>669.49000000000001</ele>
        <time>2022-01-06T08:22:32Z</time>
      </trkpt>
      <trkpt lat="45.991493230685592" lon="8.134081056341529">
        <ele>670.37</ele>
        <time>2022-01-06T08:22:43Z</time>
      </trkpt>
      <trkpt lat="45.991486106067896" lon="8.13412019982934">
        <ele>670.38999999999999</ele>
        <time>2022-01-06T08:22:46Z</time>
      </trkpt>
      <trkpt lat="45.991513850167394" lon="8.134248107671738">
        <ele>669.38999999999999</ele>
        <time>2022-01-06T08:22:57Z</time>
      </trkpt>
      <trkpt lat="45.991507479920983" lon="8.13428046181798">
        <ele>668.72000000000003</ele>
        <time>2022-01-06T08:22:59Z</time>
      </trkpt>
      <trkpt lat="45.991527009755373" lon="8.134358078241348">
        <ele>667.99000000000001</ele>
        <time>2022-01-06T08:23:03Z</time>
      </trkpt>
      <trkpt lat="45.99156791344285" lon="8.134459163993597">
        <ele>668.26999999999998</ele>
        <time>2022-01-06T08:23:13Z</time>
      </trkpt>
      <trkpt lat="45.991629268974066" lon="8.134527811780572">
        <ele>669.04999999999995</ele>
        <time>2022-01-06T08:23:20Z</time>
      </trkpt>
      <trkpt lat="45.991649636998773" lon="8.134521106258035">
        <ele>669.36000000000001</ele>
        <time>2022-01-06T08:23:35Z</time>
      </trkpt>
      <trkpt lat="45.991634633392096" lon="8.134557483717799">
        <ele>669.39999999999998</ele>
        <time>2022-01-06T08:23:56Z</time>
      </trkpt>
      <trkpt lat="45.991632118821144" lon="8.134546671062708">
        <ele>669.36000000000001</ele>
        <time>2022-01-06T08:24:25Z</time>
      </trkpt>
      <trkpt lat="45.991603704169393" lon="8.134597297757864">
        <ele>669.10000000000002</ele>
        <time>2022-01-06T08:24:43Z</time>
      </trkpt>
      <trkpt lat="45.9916016086936" lon="8.134613307192922">
        <ele>669.01999999999998</ele>
        <time>2022-01-06T08:24:44Z</time>
      </trkpt>
      <trkpt lat="45.991629771888256" lon="8.134767534211278">
        <ele>668.78999999999996</ele>
        <time>2022-01-06T08:24:54Z</time>
      </trkpt>
      <trkpt lat="45.991648714989424" lon="8.134823860600591">
        <ele>669.32000000000005</ele>
        <time>2022-01-06T08:24:58Z</time>
      </trkpt>
      <trkpt lat="45.991706466302276" lon="8.134983200579882">
        <ele>669.51999999999998</ele>
        <time>2022-01-06T08:25:09Z</time>
      </trkpt>
      <trkpt lat="45.991752902045846" lon="8.135145138949156">
        <ele>670.02999999999997</ele>
        <time>2022-01-06T08:25:20Z</time>
      </trkpt>
      <trkpt lat="45.991779724135995" lon="8.135233148932457">
        <ele>670.11000000000001</ele>
        <time>2022-01-06T08:25:32Z</time>
      </trkpt>
      <trkpt lat="45.991783663630486" lon="8.135253097862005">
        <ele>670.09000000000003</ele>
        <time>2022-01-06T08:25:38Z</time>
      </trkpt>
      <trkpt lat="45.99179464392364" lon="8.135410090908408">
        <ele>669.15999999999997</ele>
        <time>2022-01-06T08:25:51Z</time>
      </trkpt>
      <trkpt lat="45.991810234263539" lon="8.135488964617252">
        <ele>669.00999999999999</ele>
        <time>2022-01-06T08:26:03Z</time>
      </trkpt>
      <trkpt lat="45.991835212334991" lon="8.135560462251306">
        <ele>668.50999999999999</ele>
        <time>2022-01-06T08:26:13Z</time>
      </trkpt>
      <trkpt lat="45.991841247305274" lon="8.135587284341455">
        <ele>668.42999999999995</ele>
        <time>2022-01-06T08:26:15Z</time>
      </trkpt>
      <trkpt lat="45.991894388571382" lon="8.135715695098043">
        <ele>666.49000000000001</ele>
        <time>2022-01-06T08:26:25Z</time>
      </trkpt>
      <trkpt lat="45.991917522624135" lon="8.135788617655635">
        <ele>666.13999999999999</ele>
        <time>2022-01-06T08:26:36Z</time>
      </trkpt>
      <trkpt lat="45.991945937275887" lon="8.13582893460989">
        <ele>667.24000000000001</ele>
        <time>2022-01-06T08:26:52Z</time>
      </trkpt>
      <trkpt lat="45.991978878155351" lon="8.135876292362809">
        <ele>669.25</ele>
        <time>2022-01-06T08:27:13Z</time>
      </trkpt>
      <trkpt lat="45.992052806541324" lon="8.135954411700368">
        <ele>671.09000000000003</ele>
        <time>2022-01-06T08:27:27Z</time>
      </trkpt>
      <trkpt lat="45.992088681086898" lon="8.13603462651372">
        <ele>669.25999999999999</ele>
        <time>2022-01-06T08:27:44Z</time>
      </trkpt>
      <trkpt lat="45.992075437679887" lon="8.136103441938758">
        <ele>669.89999999999998</ele>
        <time>2022-01-06T08:28:00Z</time>
      </trkpt>
      <trkpt lat="45.992078203707933" lon="8.136177705600858">
        <ele>672.51999999999998</ele>
        <time>2022-01-06T08:28:17Z</time>
      </trkpt>
      <trkpt lat="45.992093710228801" lon="8.136309636756778">
        <ele>675.02999999999997</ele>
        <time>2022-01-06T08:28:33Z</time>
      </trkpt>
      <trkpt lat="45.992156825959682" lon="8.13648615963757">
        <ele>677.45000000000005</ele>
        <time>2022-01-06T08:28:54Z</time>
      </trkpt>
      <trkpt lat="45.992182223126292" lon="8.136618342250586">
        <ele>679.74000000000001</ele>
        <time>2022-01-06T08:29:14Z</time>
      </trkpt>
      <trkpt lat="45.99219873547554" lon="8.136734934523702">
        <ele>680.47000000000003</ele>
        <time>2022-01-06T08:29:27Z</time>
      </trkpt>
      <trkpt lat="45.992203848436475" lon="8.13682378269732">
        <ele>681.54999999999995</ele>
        <time>2022-01-06T08:29:40Z</time>
      </trkpt>
      <trkpt lat="45.992208458483219" lon="8.136867368593812">
        <ele>682.47000000000003</ele>
        <time>2022-01-06T08:29:53Z</time>
      </trkpt>
      <trkpt lat="45.992223965004086" lon="8.136959066614509">
        <ele>683.34000000000003</ele>
        <time>2022-01-06T08:30:07Z</time>
      </trkpt>
      <trkpt lat="45.992254810407758" lon="8.137034755200148">
        <ele>684.92999999999995</ele>
        <time>2022-01-06T08:30:22Z</time>
      </trkpt>
      <trkpt lat="45.992278531193733" lon="8.137071887031198">
        <ele>685.77999999999997</ele>
        <time>2022-01-06T08:30:34Z</time>
      </trkpt>
      <trkpt lat="45.992308370769024" lon="8.13708471134305">
        <ele>687.39999999999998</ele>
        <time>2022-01-06T08:30:52Z</time>
      </trkpt>
      <trkpt lat="45.992314824834466" lon="8.137075742706657">
        <ele>688.59000000000003</ele>
        <time>2022-01-06T08:31:15Z</time>
      </trkpt>
      <trkpt lat="45.992357572540641" lon="8.137051519006491">
        <ele>690.48000000000002</ele>
        <time>2022-01-06T08:31:27Z</time>
      </trkpt>
      <trkpt lat="45.992426890879869" lon="8.137044478207827">
        <ele>692.62</ele>
        <time>2022-01-06T08:31:38Z</time>
      </trkpt>
      <trkpt lat="45.99249972961843" lon="8.137081526219845">
        <ele>694.46000000000004</ele>
        <time>2022-01-06T08:31:54Z</time>
      </trkpt>
      <trkpt lat="45.992581285536289" lon="8.137134667485952">
        <ele>695.45000000000005</ele>
        <time>2022-01-06T08:32:10Z</time>
      </trkpt>
      <trkpt lat="45.99263459444046" lon="8.137180767953396">
        <ele>697.23000000000002</ele>
        <time>2022-01-06T08:32:24Z</time>
      </trkpt>
      <trkpt lat="45.992640964686871" lon="8.137264838442206">
        <ele>695.74000000000001</ele>
        <time>2022-01-06T08:32:39Z</time>
      </trkpt>
      <trkpt lat="45.992661584168673" lon="8.13739744015038">
        <ele>696.75999999999999</ele>
        <time>2022-01-06T08:32:52Z</time>
      </trkpt>
      <trkpt lat="45.99265999160707" lon="8.137458292767406">
        <ele>696.03999999999996</ele>
        <time>2022-01-06T08:33:00Z</time>
      </trkpt>
      <trkpt lat="45.992674073204398" lon="8.137613525614142">
        <ele>693.42999999999995</ele>
        <time>2022-01-06T08:33:16Z</time>
      </trkpt>
      <trkpt lat="45.992704080417752" lon="8.137711761519313">
        <ele>693.21000000000004</ele>
        <time>2022-01-06T08:33:27Z</time>
      </trkpt>
      <trkpt lat="45.992708187550306" lon="8.137815361842513">
        <ele>692.57000000000005</ele>
        <time>2022-01-06T08:33:37Z</time>
      </trkpt>
      <trkpt lat="45.992764346301556" lon="8.137901863083243">
        <ele>692.89999999999998</ele>
        <time>2022-01-06T08:33:51Z</time>
      </trkpt>
      <trkpt lat="45.992789240553975" lon="8.137972690165043">
        <ele>693.70000000000005</ele>
        <time>2022-01-06T08:34:04Z</time>
      </trkpt>
      <trkpt lat="45.992804579436779" lon="8.138049887493253">
        <ele>694.03999999999996</ele>
        <time>2022-01-06T08:34:16Z</time>
      </trkpt>
      <trkpt lat="45.992769962176681" lon="8.138120379298925">
        <ele>694.21000000000004</ele>
        <time>2022-01-06T08:34:27Z</time>
      </trkpt>
      <trkpt lat="45.992734339088202" lon="8.138220040127635">
        <ele>696.87</ele>
        <time>2022-01-06T08:34:43Z</time>
      </trkpt>
      <trkpt lat="45.992733165621758" lon="8.138237139210105">
        <ele>697.49000000000001</ele>
        <time>2022-01-06T08:34:57Z</time>
      </trkpt>
      <trkpt lat="45.992745654657483" lon="8.138288520276547">
        <ele>699.54999999999995</ele>
        <time>2022-01-06T08:35:16Z</time>
      </trkpt>
      <trkpt lat="45.992755210027099" lon="8.138372590765357">
        <ele>699.48000000000002</ele>
        <time>2022-01-06T08:35:22Z</time>
      </trkpt>
      <trkpt lat="45.992748253047466" lon="8.138569565489888">
        <ele>699.53999999999996</ele>
        <time>2022-01-06T08:35:35Z</time>
      </trkpt>
      <trkpt lat="45.992750767618418" lon="8.13860041089356">
        <ele>699.66999999999996</ele>
        <time>2022-01-06T08:35:39Z</time>
      </trkpt>
      <trkpt lat="45.992730315774679" lon="8.138743909075856">
        <ele>699.96000000000004</ele>
        <time>2022-01-06T08:35:49Z</time>
      </trkpt>
      <trkpt lat="45.992727968841791" lon="8.138771234080195">
        <ele>699.88</ele>
        <time>2022-01-06T08:35:51Z</time>
      </trkpt>
      <trkpt lat="45.992687148973346" lon="8.138923868536949">
        <ele>699.73000000000002</ele>
        <time>2022-01-06T08:36:04Z</time>
      </trkpt>
      <trkpt lat="45.992682203650475" lon="8.138938117772341">
        <ele>699.80999999999995</ele>
        <time>2022-01-06T08:36:05Z</time>
      </trkpt>
      <trkpt lat="45.99265513010323" lon="8.138981116935611">
        <ele>699.13</ele>
        <time>2022-01-06T08:36:09Z</time>
      </trkpt>
      <trkpt lat="45.992637947201729" lon="8.139144983142614">
        <ele>698.45000000000005</ele>
        <time>2022-01-06T08:36:23Z</time>
      </trkpt>
      <trkpt lat="45.99263752810657" lon="8.139159148558974">
        <ele>698.49000000000001</ele>
        <time>2022-01-06T08:36:24Z</time>
      </trkpt>
      <trkpt lat="45.992641132324934" lon="8.139205249026418">
        <ele>698.67999999999995</ele>
        <time>2022-01-06T08:36:27Z</time>
      </trkpt>
      <trkpt lat="45.992653788998723" lon="8.13934170641005">
        <ele>699.30999999999995</ele>
        <time>2022-01-06T08:36:39Z</time>
      </trkpt>
      <trkpt lat="45.992669379338622" lon="8.139434913173318">
        <ele>700.41999999999996</ele>
        <time>2022-01-06T08:36:53Z</time>
      </trkpt>
      <trkpt lat="45.992649598047137" lon="8.139460142701864">
        <ele>700.49000000000001</ele>
        <time>2022-01-06T08:37:07Z</time>
      </trkpt>
      <trkpt lat="45.992657309398055" lon="8.139512026682496">
        <ele>700.62</ele>
        <time>2022-01-06T08:37:26Z</time>
      </trkpt>
      <trkpt lat="45.992723107337952" lon="8.13954446464777">
        <ele>701.30999999999995</ele>
        <time>2022-01-06T08:37:40Z</time>
      </trkpt>
      <trkpt lat="45.992749510332942" lon="8.139552678912878">
        <ele>702.29999999999995</ele>
        <time>2022-01-06T08:37:44Z</time>
      </trkpt>
      <trkpt lat="45.992786306887865" lon="8.139572627842426">
        <ele>702.22000000000003</ele>
        <time>2022-01-06T08:37:47Z</time>
      </trkpt>
      <trkpt lat="45.992842298001051" lon="8.139639934524894">
        <ele>703.17999999999995</ele>
        <time>2022-01-06T08:37:58Z</time>
      </trkpt>
      <trkpt lat="45.992888482287526" lon="8.139739679172635">
        <ele>702.89999999999998</ele>
        <time>2022-01-06T08:38:14Z</time>
      </trkpt>
      <trkpt lat="45.992893176153302" lon="8.139814529567957">
        <ele>700.49000000000001</ele>
        <time>2022-01-06T08:38:27Z</time>
      </trkpt>
      <trkpt lat="45.992843387648463" lon="8.139909831807017">
        <ele>702.63</ele>
        <time>2022-01-06T08:38:41Z</time>
      </trkpt>
      <trkpt lat="45.992837687954307" lon="8.139986526221037">
        <ele>703.08000000000004</ele>
        <time>2022-01-06T08:38:54Z</time>
      </trkpt>
      <trkpt lat="45.992829222232103" lon="8.140003457665443">
        <ele>703.16999999999996</ele>
        <time>2022-01-06T08:39:14Z</time>
      </trkpt>
      <trkpt lat="45.992820421233773" lon="8.140014354139566">
        <ele>703.41999999999996</ele>
        <time>2022-01-06T08:39:40Z</time>
      </trkpt>
      <trkpt lat="45.992834586650133" lon="8.140037739649415">
        <ele>703.64999999999998</ele>
        <time>2022-01-06T08:39:59Z</time>
      </trkpt>
      <trkpt lat="45.992817739024758" lon="8.140137735754252">
        <ele>704.73000000000002</ele>
        <time>2022-01-06T08:40:15Z</time>
      </trkpt>
      <trkpt lat="45.992795526981354" lon="8.140245946124196">
        <ele>703.55999999999995</ele>
        <time>2022-01-06T08:40:30Z</time>
      </trkpt>
      <trkpt lat="45.992794772610068" lon="8.140319120138884">
        <ele>703.80999999999995</ele>
        <time>2022-01-06T08:40:38Z</time>
      </trkpt>
      <trkpt lat="45.992824612185359" lon="8.140456918627024">
        <ele>704.03999999999996</ele>
        <time>2022-01-06T08:40:51Z</time>
      </trkpt>
      <trkpt lat="45.992807010188699" lon="8.140564290806651">
        <ele>702.97000000000003</ele>
        <time>2022-01-06T08:41:00Z</time>
      </trkpt>
      <trkpt lat="45.992788402363658" lon="8.140670070424676">
        <ele>702.72000000000003</ele>
        <time>2022-01-06T08:41:14Z</time>
      </trkpt>
      <trkpt lat="45.992768537253141" lon="8.140700832009316">
        <ele>702.38</ele>
        <time>2022-01-06T08:41:34Z</time>
      </trkpt>
      <trkpt lat="45.992790833115578" lon="8.140818681567907">
        <ele>703.76999999999998</ele>
        <time>2022-01-06T08:41:48Z</time>
      </trkpt>
      <trkpt lat="45.992802819237113" lon="8.140867548063397">
        <ele>703.75999999999999</ele>
        <time>2022-01-06T08:42:04Z</time>
      </trkpt>
      <trkpt lat="45.99282318726182" lon="8.140923790633678">
        <ele>703.42999999999995</ele>
        <time>2022-01-06T08:42:20Z</time>
      </trkpt>
      <trkpt lat="45.992830228060484" lon="8.140988918021321">
        <ele>701.51999999999998</ele>
        <time>2022-01-06T08:42:43Z</time>
      </trkpt>
      <trkpt lat="45.992861576378345" lon="8.141110455617309">
        <ele>701.54999999999995</ele>
        <time>2022-01-06T08:42:57Z</time>
      </trkpt>
      <trkpt lat="45.992840202525258" lon="8.141202656552196">
        <ele>700.54999999999995</ele>
        <time>2022-01-06T08:43:09Z</time>
      </trkpt>
      <trkpt lat="45.992847410961986" lon="8.141301227733493">
        <ele>698.55999999999995</ele>
        <time>2022-01-06T08:43:25Z</time>
      </trkpt>
      <trkpt lat="45.992829138413072" lon="8.141318829730153">
        <ele>697.52999999999997</ele>
        <time>2022-01-06T08:43:41Z</time>
      </trkpt>
      <trkpt lat="45.992780355736613" lon="8.141370797529817">
        <ele>697.49000000000001</ele>
        <time>2022-01-06T08:43:57Z</time>
      </trkpt>
      <trkpt lat="45.992796951904893" lon="8.141404157504439">
        <ele>696.40999999999997</ele>
        <time>2022-01-06T08:44:12Z</time>
      </trkpt>
      <trkpt lat="45.992791838943958" lon="8.141447408124805">
        <ele>695.38999999999999</ele>
        <time>2022-01-06T08:44:29Z</time>
      </trkpt>
      <trkpt lat="45.992785301059484" lon="8.14148630015552">
        <ele>694.67999999999995</ele>
        <time>2022-01-06T08:44:45Z</time>
      </trkpt>
      <trkpt lat="45.99276652559638" lon="8.141520665958524">
        <ele>692.62</ele>
        <time>2022-01-06T08:45:01Z</time>
      </trkpt>
      <trkpt lat="45.992729561403394" lon="8.141550086438656">
        <ele>691.58000000000004</ele>
        <time>2022-01-06T08:45:05Z</time>
      </trkpt>
      <trkpt lat="45.99269368685782" lon="8.141520582139492">
        <ele>691.08000000000004</ele>
        <time>2022-01-06T08:45:17Z</time>
      </trkpt>
      <trkpt lat="45.992683377116919" lon="8.141473056748509">
        <ele>690.96000000000004</ele>
        <time>2022-01-06T08:45:37Z</time>
      </trkpt>
      <trkpt lat="45.992682874202728" lon="8.141431314870715">
        <ele>690.13</ele>
        <time>2022-01-06T08:45:56Z</time>
      </trkpt>
      <trkpt lat="45.992656974121928" lon="8.141422513872385">
        <ele>690.86000000000001</ele>
        <time>2022-01-06T08:46:14Z</time>
      </trkpt>
      <trkpt lat="45.992635516449809" lon="8.141387812793255">
        <ele>691.29999999999995</ele>
        <time>2022-01-06T08:46:27Z</time>
      </trkpt>
      <trkpt lat="45.992631912231445" lon="8.141417233273387">
        <ele>690.39999999999998</ele>
        <time>2022-01-06T08:46:47Z</time>
      </trkpt>
      <trkpt lat="45.992626547813416" lon="8.141495604068041">
        <ele>689.30999999999995</ele>
        <time>2022-01-06T08:47:04Z</time>
      </trkpt>
      <trkpt lat="45.992582039907575" lon="8.141547068953514">
        <ele>686.92999999999995</ele>
        <time>2022-01-06T08:47:20Z</time>
      </trkpt>
      <trkpt lat="45.992516996338964" lon="8.141640359535813">
        <ele>686.28999999999996</ele>
        <time>2022-01-06T08:47:36Z</time>
      </trkpt>
      <trkpt lat="45.992475003004074" lon="8.141722586005926">
        <ele>685.80999999999995</ele>
        <time>2022-01-06T08:47:50Z</time>
      </trkpt>
      <trkpt lat="45.9924391284585" lon="8.141821408644319">
        <ele>683.88999999999999</ele>
        <time>2022-01-06T08:48:04Z</time>
      </trkpt>
      <trkpt lat="45.99243275821209" lon="8.141904892399907">
        <ele>683.19000000000005</ele>
        <time>2022-01-06T08:48:19Z</time>
      </trkpt>
      <trkpt lat="45.992454215884209" lon="8.141945796087384">
        <ele>683.34000000000003</ele>
        <time>2022-01-06T08:48:35Z</time>
      </trkpt>
      <trkpt lat="45.992441475391388" lon="8.142018718644977">
        <ele>682.22000000000003</ele>
        <time>2022-01-06T08:48:49Z</time>
      </trkpt>
      <trkpt lat="45.992444157600403" lon="8.142049815505743">
        <ele>681.52999999999997</ele>
        <time>2022-01-06T08:49:02Z</time>
      </trkpt>
      <trkpt lat="45.992459915578365" lon="8.142106477171183">
        <ele>679.45000000000005</ele>
        <time>2022-01-06T08:49:18Z</time>
      </trkpt>
      <trkpt lat="45.992499478161335" lon="8.142136400565505">
        <ele>677.75999999999999</ele>
        <time>2022-01-06T08:49:37Z</time>
      </trkpt>
      <trkpt lat="45.992547087371349" lon="8.142160372808576">
        <ele>677.67999999999995</ele>
        <time>2022-01-06T08:49:56Z</time>
      </trkpt>
      <trkpt lat="45.992558570578694" lon="8.142232373356819">
        <ele>674.89999999999998</ele>
        <time>2022-01-06T08:50:15Z</time>
      </trkpt>
      <trkpt lat="45.992541555315256" lon="8.1423335429281">
        <ele>672.64999999999998</ele>
        <time>2022-01-06T08:50:32Z</time>
      </trkpt>
      <trkpt lat="45.992503082379699" lon="8.14247477799654">
        <ele>672.42999999999995</ele>
        <time>2022-01-06T08:50:46Z</time>
      </trkpt>
      <trkpt lat="45.992460753768682" lon="8.142623975872994">
        <ele>672.75999999999999</ele>
        <time>2022-01-06T08:51:02Z</time>
      </trkpt>
      <trkpt lat="45.992454048246145" lon="8.142687007784843">
        <ele>674.5</ele>
        <time>2022-01-06T08:51:17Z</time>
      </trkpt>
      <trkpt lat="45.992448516190052" lon="8.142749201506376">
        <ele>675.91999999999996</ele>
        <time>2022-01-06T08:51:31Z</time>
      </trkpt>
      <trkpt lat="45.992456478998065" lon="8.142803516238928">
        <ele>676.83000000000004</ele>
        <time>2022-01-06T08:51:48Z</time>
      </trkpt>
      <trkpt lat="45.992467626929283" lon="8.142788428813219">
        <ele>676.47000000000003</ele>
        <time>2022-01-06T08:52:04Z</time>
      </trkpt>
      <trkpt lat="45.99245136603713" lon="8.14280510880053">
        <ele>676.60000000000002</ele>
        <time>2022-01-06T08:52:24Z</time>
      </trkpt>
      <trkpt lat="45.992454048246145" lon="8.142837127670646">
        <ele>676.69000000000005</ele>
        <time>2022-01-06T08:52:48Z</time>
      </trkpt>
      <trkpt lat="45.992437116801739" lon="8.142833607271314">
        <ele>676.61000000000001</ele>
        <time>2022-01-06T08:53:10Z</time>
      </trkpt>
      <trkpt lat="45.992412557825446" lon="8.142809886485338">
        <ele>677.00999999999999</ele>
        <time>2022-01-06T08:53:33Z</time>
      </trkpt>
      <trkpt lat="45.992398643866181" lon="8.142889179289341">
        <ele>676.65999999999997</ele>
        <time>2022-01-06T08:53:47Z</time>
      </trkpt>
      <trkpt lat="45.992423454299569" lon="8.143047848716378">
        <ele>674.85000000000002</ele>
        <time>2022-01-06T08:54:00Z</time>
      </trkpt>
      <trkpt lat="45.992450276389718" lon="8.143169889226556">
        <ele>674.08000000000004</ele>
        <time>2022-01-06T08:54:13Z</time>
      </trkpt>
      <trkpt lat="45.992454132065177" lon="8.143279775977135">
        <ele>671.48000000000002</ele>
        <time>2022-01-06T08:54:28Z</time>
      </trkpt>
      <trkpt lat="45.992420772090554" lon="8.14332403242588">
        <ele>668.46000000000004</ele>
        <time>2022-01-06T08:54:43Z</time>
      </trkpt>
      <trkpt lat="45.99238196387887" lon="8.143377928063273">
        <ele>668.46000000000004</ele>
        <time>2022-01-06T08:54:49Z</time>
      </trkpt>
      <trkpt lat="45.992335611954331" lon="8.143456466495991">
        <ele>670.27999999999997</ele>
        <time>2022-01-06T08:55:03Z</time>
      </trkpt>
      <trkpt lat="45.992301078513265" lon="8.143592588603497">
        <ele>669.63999999999999</ele>
        <time>2022-01-06T08:55:16Z</time>
      </trkpt>
      <trkpt lat="45.992310801520944" lon="8.143721921369433">
        <ele>669.00999999999999</ele>
        <time>2022-01-06T08:55:26Z</time>
      </trkpt>
      <trkpt lat="45.992323039099574" lon="8.143881261348724">
        <ele>667.96000000000004</ele>
        <time>2022-01-06T08:55:39Z</time>
      </trkpt>
      <trkpt lat="45.992302168160677" lon="8.144050156697631">
        <ele>667.00999999999999</ele>
        <time>2022-01-06T08:55:55Z</time>
      </trkpt>
      <trkpt lat="45.992305940017104" lon="8.144156942144036">
        <ele>666.26999999999998</ele>
        <time>2022-01-06T08:56:07Z</time>
      </trkpt>
      <trkpt lat="45.992310214787722" lon="8.144229864701629">
        <ele>665.36000000000001</ele>
        <time>2022-01-06T08:56:23Z</time>
      </trkpt>
      <trkpt lat="45.992325386032462" lon="8.144308235496283">
        <ele>664.83000000000004</ele>
        <time>2022-01-06T08:56:34Z</time>
      </trkpt>
      <trkpt lat="45.992337372153997" lon="8.144345618784428">
        <ele>664.37</ele>
        <time>2022-01-06T08:56:48Z</time>
      </trkpt>
      <trkpt lat="45.992302587255836" lon="8.144405800849199">
        <ele>663.75999999999999</ele>
        <time>2022-01-06T08:57:09Z</time>
      </trkpt>
      <trkpt lat="45.992206195369363" lon="8.144503282383084">
        <ele>661.96000000000004</ele>
        <time>2022-01-06T08:57:21Z</time>
      </trkpt>
      <trkpt lat="45.992213906720281" lon="8.144596153870225">
        <ele>660.62</ele>
        <time>2022-01-06T08:57:30Z</time>
      </trkpt>
      <trkpt lat="45.992218013852835" lon="8.144726241007447">
        <ele>658.25</ele>
        <time>2022-01-06T08:57:47Z</time>
      </trkpt>
      <trkpt lat="45.992195047438145" lon="8.144788350909948">
        <ele>656.04999999999995</ele>
        <time>2022-01-06T08:57:59Z</time>
      </trkpt>
      <trkpt lat="45.992200747132301" lon="8.144884072244167">
        <ele>653.60000000000002</ele>
        <time>2022-01-06T08:58:13Z</time>
      </trkpt>
      <trkpt lat="45.992168057709932" lon="8.144997814670205">
        <ele>652.36000000000001</ele>
        <time>2022-01-06T08:58:21Z</time>
      </trkpt>
      <trkpt lat="45.992161855101585" lon="8.145049279555678">
        <ele>651.83000000000004</ele>
        <time>2022-01-06T08:58:24Z</time>
      </trkpt>
      <trkpt lat="45.992174092680216" lon="8.145139217376709">
        <ele>650.57000000000005</ele>
        <time>2022-01-06T08:58:31Z</time>
      </trkpt>
      <trkpt lat="45.99219337105751" lon="8.145161513239145">
        <ele>649.90999999999997</ele>
        <time>2022-01-06T08:58:33Z</time>
      </trkpt>
      <trkpt lat="45.992240393534303" lon="8.145296629518271">
        <ele>647.32000000000005</ele>
        <time>2022-01-06T08:58:46Z</time>
      </trkpt>
      <trkpt lat="45.992205021902919" lon="8.145384136587381">
        <ele>645.60000000000002</ele>
        <time>2022-01-06T08:58:59Z</time>
      </trkpt>
      <trkpt lat="45.992197897285223" lon="8.145433338358998">
        <ele>646.44000000000005</ele>
        <time>2022-01-06T08:59:15Z</time>
      </trkpt>
      <trkpt lat="45.992204267531633" lon="8.145481701940298">
        <ele>647.49000000000001</ele>
        <time>2022-01-06T08:59:35Z</time>
      </trkpt>
      <trkpt lat="45.992198651656508" lon="8.145503243431449">
        <ele>648.13999999999999</ele>
        <time>2022-01-06T08:59:39Z</time>
      </trkpt>
      <trkpt lat="45.992166046053171" lon="8.145544063299894">
        <ele>646.91999999999996</ele>
        <time>2022-01-06T08:59:50Z</time>
      </trkpt>
      <trkpt lat="45.992168812081218" lon="8.145514307543635">
        <ele>646.45000000000005</ele>
        <time>2022-01-06T09:00:13Z</time>
      </trkpt>
      <trkpt lat="45.992097733542323" lon="8.145522689446807">
        <ele>646.11000000000001</ele>
        <time>2022-01-06T09:00:37Z</time>
      </trkpt>
      <trkpt lat="45.992108210921288" lon="8.145541129633784">
        <ele>646.19000000000005</ele>
        <time>2022-01-06T09:01:00Z</time>
      </trkpt>
      <trkpt lat="45.992146516218781" lon="8.145511290058494">
        <ele>646.24000000000001</ele>
        <time>2022-01-06T09:01:23Z</time>
      </trkpt>
      <trkpt lat="45.99213276989758" lon="8.145469715818763">
        <ele>647.27999999999997</ele>
        <time>2022-01-06T09:01:42Z</time>
      </trkpt>
      <trkpt lat="45.99211567081511" lon="8.145527886226773">
        <ele>647.42999999999995</ele>
        <time>2022-01-06T09:01:59Z</time>
      </trkpt>
      <trkpt lat="45.992118520662189" lon="8.1455213483423">
        <ele>647.38999999999999</ele>
        <time>2022-01-06T09:02:03Z</time>
      </trkpt>
      <trkpt lat="45.992118436843157" lon="8.145557893440127">
        <ele>646.87</ele>
        <time>2022-01-06T09:02:19Z</time>
      </trkpt>
      <trkpt lat="45.99210343323648" lon="8.145555714145303">
        <ele>647.23000000000002</ele>
        <time>2022-01-06T09:02:32Z</time>
      </trkpt>
      <trkpt lat="45.99210393615067" lon="8.14555604942143">
        <ele>647.21000000000004</ele>
        <time>2022-01-06T09:02:50Z</time>
      </trkpt>
      <trkpt lat="45.992091111838818" lon="8.145600808784366">
        <ele>647.14999999999998</ele>
        <time>2022-01-06T09:03:16Z</time>
      </trkpt>
      <trkpt lat="45.99207510240376" lon="8.145620506256819">
        <ele>647.34000000000003</ele>
        <time>2022-01-06T09:03:37Z</time>
      </trkpt>
      <trkpt lat="45.9920575004071" lon="8.145634168758988">
        <ele>647.13</ele>
        <time>2022-01-06T09:04:06Z</time>
      </trkpt>
      <trkpt lat="45.992012657225132" lon="8.145744809880853">
        <ele>646.08000000000004</ele>
        <time>2022-01-06T09:04:17Z</time>
      </trkpt>
      <trkpt lat="45.992013495415449" lon="8.145781019702554">
        <ele>645.65999999999997</ele>
        <time>2022-01-06T09:04:19Z</time>
      </trkpt>
      <trkpt lat="45.992107121273875" lon="8.145970283076167">
        <ele>645.52999999999997</ele>
        <time>2022-01-06T09:04:32Z</time>
      </trkpt>
      <trkpt lat="45.992145594209433" lon="8.146054856479168">
        <ele>643.34000000000003</ele>
        <time>2022-01-06T09:04:45Z</time>
      </trkpt>
      <trkpt lat="45.992142492905259" lon="8.146090311929584">
        <ele>642.14999999999998</ele>
        <time>2022-01-06T09:04:57Z</time>
      </trkpt>
      <trkpt lat="45.992167051881552" lon="8.146160300821066">
        <ele>639.63</ele>
        <time>2022-01-06T09:05:18Z</time>
      </trkpt>
      <trkpt lat="45.992175601422787" lon="8.14621570520103">
        <ele>638.09000000000003</ele>
        <time>2022-01-06T09:05:25Z</time>
      </trkpt>
      <trkpt lat="45.992243913933635" lon="8.146325591951609">
        <ele>636.21000000000004</ele>
        <time>2022-01-06T09:05:39Z</time>
      </trkpt>
      <trkpt lat="45.992226898670197" lon="8.146386947482824">
        <ele>635.79999999999995</ele>
        <time>2022-01-06T09:05:53Z</time>
      </trkpt>
      <trkpt lat="45.992174930870533" lon="8.146478561684489">
        <ele>634.10000000000002</ele>
        <time>2022-01-06T09:06:08Z</time>
      </trkpt>
      <trkpt lat="45.992141654714942" lon="8.146609319373965">
        <ele>633.44000000000005</ele>
        <time>2022-01-06T09:06:18Z</time>
      </trkpt>
      <trkpt lat="45.992146097123623" lon="8.146731527522206">
        <ele>634.10000000000002</ele>
        <time>2022-01-06T09:06:29Z</time>
      </trkpt>
      <trkpt lat="45.992144672200084" lon="8.146782740950584">
        <ele>634.35000000000002</ele>
        <time>2022-01-06T09:06:33Z</time>
      </trkpt>
      <trkpt lat="45.992205021902919" lon="8.14690662547946">
        <ele>635.35000000000002</ele>
        <time>2022-01-06T09:06:48Z</time>
      </trkpt>
      <trkpt lat="45.992227233946323" lon="8.146997652947903">
        <ele>637.26999999999998</ele>
        <time>2022-01-06T09:07:02Z</time>
      </trkpt>
      <trkpt lat="45.992146851494908" lon="8.147134361788631">
        <ele>637.48000000000002</ele>
        <time>2022-01-06T09:07:18Z</time>
      </trkpt>
      <trkpt lat="45.992095218971372" lon="8.147159507498145">
        <ele>636.95000000000005</ele>
        <time>2022-01-06T09:07:34Z</time>
      </trkpt>
      <trkpt lat="45.99201743490994" lon="8.147208960726857">
        <ele>634.20000000000005</ele>
        <time>2022-01-06T09:07:50Z</time>
      </trkpt>
      <trkpt lat="45.991969658061862" lon="8.147338628768921">
        <ele>634.60000000000002</ele>
        <time>2022-01-06T09:08:03Z</time>
      </trkpt>
      <trkpt lat="45.991949122399092" lon="8.147419849410653">
        <ele>636.82000000000005</ele>
        <time>2022-01-06T09:08:20Z</time>
      </trkpt>
      <trkpt lat="45.991949457675219" lon="8.147500567138195">
        <ele>637.79999999999995</ele>
        <time>2022-01-06T09:08:27Z</time>
      </trkpt>
      <trkpt lat="45.99193244241178" lon="8.147665103897452">
        <ele>637.75</ele>
        <time>2022-01-06T09:08:39Z</time>
      </trkpt>
      <trkpt lat="45.991932358592749" lon="8.147732997313142">
        <ele>637.88999999999999</ele>
        <time>2022-01-06T09:08:46Z</time>
      </trkpt>
      <trkpt lat="45.991946943104267" lon="8.147838357836008">
        <ele>637.59000000000003</ele>
        <time>2022-01-06T09:08:56Z</time>
      </trkpt>
      <trkpt lat="45.991990780457854" lon="8.14798160456121">
        <ele>637.63</ele>
        <time>2022-01-06T09:09:11Z</time>
      </trkpt>
      <trkpt lat="45.992007879540324" lon="8.148091156035662">
        <ele>638.25999999999999</ele>
        <time>2022-01-06T09:09:22Z</time>
      </trkpt>
      <trkpt lat="45.992040233686566" lon="8.148195007815957">
        <ele>640.62</ele>
        <time>2022-01-06T09:09:37Z</time>
      </trkpt>
      <trkpt lat="45.992018859833479" lon="8.148310594260693">
        <ele>642.82000000000005</ele>
        <time>2022-01-06T09:09:56Z</time>
      </trkpt>
      <trkpt lat="45.992005616426468" lon="8.148528104647994">
        <ele>645.36000000000001</ele>
        <time>2022-01-06T09:10:15Z</time>
      </trkpt>
      <trkpt lat="45.991969322785735" lon="8.148657605051994">
        <ele>646.21000000000004</ele>
        <time>2022-01-06T09:10:27Z</time>
      </trkpt>
      <trkpt lat="45.991950714960694" lon="8.148752320557833">
        <ele>648.27999999999997</ele>
        <time>2022-01-06T09:10:40Z</time>
      </trkpt>
      <trkpt lat="45.99192900583148" lon="8.148847622796893">
        <ele>649.08000000000004</ele>
        <time>2022-01-06T09:10:49Z</time>
      </trkpt>
      <trkpt lat="45.991933029145002" lon="8.148883078247309">
        <ele>649.13999999999999</ele>
        <time>2022-01-06T09:10:51Z</time>
      </trkpt>
      <trkpt lat="45.991947781294584" lon="8.148944014683366">
        <ele>648.97000000000003</ele>
        <time>2022-01-06T09:10:55Z</time>
      </trkpt>
      <trkpt lat="45.992002682760358" lon="8.149070246145129">
        <ele>650.26999999999998</ele>
        <time>2022-01-06T09:11:07Z</time>
      </trkpt>
      <trkpt lat="45.99202087149024" lon="8.149143503978849">
        <ele>650.67999999999995</ele>
        <time>2022-01-06T09:11:14Z</time>
      </trkpt>
      <trkpt lat="45.992012992501259" lon="8.149272920563817">
        <ele>649.37</ele>
        <time>2022-01-06T09:11:27Z</time>
      </trkpt>
      <trkpt lat="45.992016345262527" lon="8.149377861991525">
        <ele>647.77999999999997</ele>
        <time>2022-01-06T09:11:43Z</time>
      </trkpt>
      <trkpt lat="45.9920125734061" lon="8.14940401352942">
        <ele>648.09000000000003</ele>
        <time>2022-01-06T09:11:59Z</time>
      </trkpt>
      <trkpt lat="45.991993881762028" lon="8.149420944973826">
        <ele>648</ele>
        <time>2022-01-06T09:12:18Z</time>
      </trkpt>
      <trkpt lat="45.991965131834149" lon="8.149456651881337">
        <ele>647.94000000000005</ele>
        <time>2022-01-06T09:12:42Z</time>
      </trkpt>
      <trkpt lat="45.991959851235151" lon="8.14943284727633">
        <ele>647.65999999999997</ele>
        <time>2022-01-06T09:13:01Z</time>
      </trkpt>
      <trkpt lat="45.991973932832479" lon="8.149448605254293">
        <ele>647.86000000000001</ele>
        <time>2022-01-06T09:13:17Z</time>
      </trkpt>
      <trkpt lat="45.99199840798974" lon="8.149555223062635">
        <ele>649.82000000000005</ele>
        <time>2022-01-06T09:13:33Z</time>
      </trkpt>
      <trkpt lat="45.992055991664529" lon="8.149649100378156">
        <ele>651.73000000000002</ele>
        <time>2022-01-06T09:13:47Z</time>
      </trkpt>
      <trkpt lat="45.992086166515946" lon="8.149789664894342">
        <ele>654.70000000000005</ele>
        <time>2022-01-06T09:14:05Z</time>
      </trkpt>
      <trkpt lat="45.992107288911939" lon="8.149892929941416">
        <ele>657.28999999999996</ele>
        <time>2022-01-06T09:14:22Z</time>
      </trkpt>
      <trkpt lat="45.992143247276545" lon="8.149992674589157">
        <ele>660.29999999999995</ele>
        <time>2022-01-06T09:14:40Z</time>
      </trkpt>
      <trkpt lat="45.992171075195074" lon="8.150088479742408">
        <ele>662.21000000000004</ele>
        <time>2022-01-06T09:14:55Z</time>
      </trkpt>
      <trkpt lat="45.992190521210432" lon="8.150193756446242">
        <ele>664.13</ele>
        <time>2022-01-06T09:15:09Z</time>
      </trkpt>
      <trkpt lat="45.992203513160348" lon="8.1503651663661">
        <ele>665.75</ele>
        <time>2022-01-06T09:15:24Z</time>
      </trkpt>
      <trkpt lat="45.992202255874872" lon="8.150407914072275">
        <ele>665.79999999999995</ele>
        <time>2022-01-06T09:15:27Z</time>
      </trkpt>
      <trkpt lat="45.992198148742318" lon="8.150535821914673">
        <ele>665.63</ele>
        <time>2022-01-06T09:15:37Z</time>
      </trkpt>
      <trkpt lat="45.992215164005756" lon="8.150578988716006">
        <ele>665.35000000000002</ele>
        <time>2022-01-06T09:15:41Z</time>
      </trkpt>
      <trkpt lat="45.992226898670197" lon="8.150698682293296">
        <ele>664.19000000000005</ele>
        <time>2022-01-06T09:15:51Z</time>
      </trkpt>
      <trkpt lat="45.992251709103584" lon="8.15080395899713">
        <ele>663.60000000000002</ele>
        <time>2022-01-06T09:16:04Z</time>
      </trkpt>
      <trkpt lat="45.992274004966021" lon="8.15093832090497">
        <ele>662.37</ele>
        <time>2022-01-06T09:16:18Z</time>
      </trkpt>
      <trkpt lat="45.99225296638906" lon="8.150987606495619">
        <ele>662.55999999999995</ele>
        <time>2022-01-06T09:16:30Z</time>
      </trkpt>
      <trkpt lat="45.992208458483219" lon="8.15108441747725">
        <ele>662.65999999999997</ele>
        <time>2022-01-06T09:16:42Z</time>
      </trkpt>
      <trkpt lat="45.99219529889524" lon="8.151171505451202">
        <ele>662.62</ele>
        <time>2022-01-06T09:16:49Z</time>
      </trkpt>
      <trkpt lat="45.992254810407758" lon="8.151293713599443">
        <ele>661.63999999999999</ele>
        <time>2022-01-06T09:17:00Z</time>
      </trkpt>
      <trkpt lat="45.992391603067517" lon="8.151397230103612">
        <ele>662.13</ele>
        <time>2022-01-06T09:17:14Z</time>
      </trkpt>
      <trkpt lat="45.992494784295559" lon="8.151453640311956">
        <ele>664.63999999999999</ele>
        <time>2022-01-06T09:17:30Z</time>
      </trkpt>
      <trkpt lat="45.992577178403735" lon="8.15157157368958">
        <ele>666.37</ele>
        <time>2022-01-06T09:17:47Z</time>
      </trkpt>
      <trkpt lat="45.992624703794718" lon="8.151670228689909">
        <ele>667.65999999999997</ele>
        <time>2022-01-06T09:17:58Z</time>
      </trkpt>
      <trkpt lat="45.992670385167003" lon="8.15180316567421">
        <ele>668.74000000000001</ele>
        <time>2022-01-06T09:18:11Z</time>
      </trkpt>
      <trkpt lat="45.992676503956318" lon="8.15194683149457">
        <ele>670.88</ele>
        <time>2022-01-06T09:18:28Z</time>
      </trkpt>
      <trkpt lat="45.992706678807735" lon="8.152075074613094">
        <ele>672.96000000000004</ele>
        <time>2022-01-06T09:18:42Z</time>
      </trkpt>
      <trkpt lat="45.992759987711906" lon="8.152249418199062">
        <ele>674.57000000000005</ele>
        <time>2022-01-06T09:18:59Z</time>
      </trkpt>
      <trkpt lat="45.992835341021419" lon="8.1523562874645">
        <ele>675.95000000000005</ele>
        <time>2022-01-06T09:19:13Z</time>
      </trkpt>
      <trkpt lat="45.992844477295876" lon="8.152378415688872">
        <ele>675.87</ele>
        <time>2022-01-06T09:19:15Z</time>
      </trkpt>
      <trkpt lat="45.992857217788696" lon="8.15240615978837">
        <ele>675.96000000000004</ele>
        <time>2022-01-06T09:19:17Z</time>
      </trkpt>
      <trkpt lat="45.992948831990361" lon="8.152548903599381">
        <ele>676.21000000000004</ele>
        <time>2022-01-06T09:19:31Z</time>
      </trkpt>
      <trkpt lat="45.992999207228422" lon="8.152579246088862">
        <ele>676.59000000000003</ele>
        <time>2022-01-06T09:19:37Z</time>
      </trkpt>
      <trkpt lat="45.993072129786015" lon="8.152650408446789">
        <ele>678.02999999999997</ele>
        <time>2022-01-06T09:19:51Z</time>
      </trkpt>
      <trkpt lat="45.99316424690187" lon="8.152698269113898">
        <ele>679.10000000000002</ele>
        <time>2022-01-06T09:20:03Z</time>
      </trkpt>
      <trkpt lat="45.993276983499527" lon="8.152722744271159">
        <ele>680.13</ele>
        <time>2022-01-06T09:20:18Z</time>
      </trkpt>
      <trkpt lat="45.993344122543931" lon="8.152811592444778">
        <ele>679.72000000000003</ele>
        <time>2022-01-06T09:20:27Z</time>
      </trkpt>
      <trkpt lat="45.993361473083496" lon="8.152839671820402">
        <ele>679.71000000000004</ele>
        <time>2022-01-06T09:20:29Z</time>
      </trkpt>
      <trkpt lat="45.993392150849104" lon="8.152906140312553">
        <ele>679.70000000000005</ele>
        <time>2022-01-06T09:20:34Z</time>
      </trkpt>
      <trkpt lat="45.993500612676144" lon="8.152961879968643">
        <ele>681.28999999999996</ele>
        <time>2022-01-06T09:20:49Z</time>
      </trkpt>
      <trkpt lat="45.993607984855771" lon="8.153070341795683">
        <ele>682.76999999999998</ele>
        <time>2022-01-06T09:21:05Z</time>
      </trkpt>
      <trkpt lat="45.99361427128315" lon="8.153082747012377">
        <ele>682.84000000000003</ele>
        <time>2022-01-06T09:21:06Z</time>
      </trkpt>
      <trkpt lat="45.993706472218037" lon="8.153164722025394">
        <ele>683.59000000000003</ele>
        <time>2022-01-06T09:21:17Z</time>
      </trkpt>
      <trkpt lat="45.99378040060401" lon="8.153270250186324">
        <ele>683.45000000000005</ele>
        <time>2022-01-06T09:21:28Z</time>
      </trkpt>
      <trkpt lat="45.993784423917532" lon="8.153285421431065">
        <ele>683.76999999999998</ele>
        <time>2022-01-06T09:21:33Z</time>
      </trkpt>
      <trkpt lat="45.993805462494493" lon="8.153327917680144">
        <ele>683.40999999999997</ele>
        <time>2022-01-06T09:21:36Z</time>
      </trkpt>
      <trkpt lat="45.993904368951917" lon="8.153554312884808">
        <ele>682.48000000000002</ele>
        <time>2022-01-06T09:21:51Z</time>
      </trkpt>
      <trkpt lat="45.994008472189307" lon="8.153767548501492">
        <ele>683.39999999999998</ele>
        <time>2022-01-06T09:22:08Z</time>
      </trkpt>
      <trkpt lat="45.994089609012008" lon="8.153891852125526">
        <ele>684.91999999999996</ele>
        <time>2022-01-06T09:22:23Z</time>
      </trkpt>
      <trkpt lat="45.994150210171938" lon="8.153992099687457">
        <ele>685.49000000000001</ele>
        <time>2022-01-06T09:22:36Z</time>
      </trkpt>
      <trkpt lat="45.994187677279115" lon="8.154041469097138">
        <ele>687.14999999999998</ele>
        <time>2022-01-06T09:22:50Z</time>
      </trkpt>
      <trkpt lat="45.994249703362584" lon="8.154070554301143">
        <ele>688.91999999999996</ele>
        <time>2022-01-06T09:23:06Z</time>
      </trkpt>
      <trkpt lat="45.994345424696803" lon="8.154105339199305">
        <ele>691.10000000000002</ele>
        <time>2022-01-06T09:23:19Z</time>
      </trkpt>
      <trkpt lat="45.994398398324847" lon="8.154143141582608">
        <ele>692.46000000000004</ele>
        <time>2022-01-06T09:23:33Z</time>
      </trkpt>
      <trkpt lat="45.994447181001306" lon="8.154116487130523">
        <ele>693.04999999999995</ele>
        <time>2022-01-06T09:23:53Z</time>
      </trkpt>
      <trkpt lat="45.994506441056728" lon="8.154216315597296">
        <ele>695.07000000000005</ele>
        <time>2022-01-06T09:24:07Z</time>
      </trkpt>
      <trkpt lat="45.99457835778594" lon="8.154299128800631">
        <ele>695.57000000000005</ele>
        <time>2022-01-06T09:24:20Z</time>
      </trkpt>
      <trkpt lat="45.994657147675753" lon="8.154390240088105">
        <ele>696.41999999999996</ele>
        <time>2022-01-06T09:24:31Z</time>
      </trkpt>
      <trkpt lat="45.994699560105801" lon="8.154450422152877">
        <ele>696.86000000000001</ele>
        <time>2022-01-06T09:24:46Z</time>
      </trkpt>
      <trkpt lat="45.994787067174911" lon="8.154583610594273">
        <ele>698.13999999999999</ele>
        <time>2022-01-06T09:25:01Z</time>
      </trkpt>
      <trkpt lat="45.99488815292716" lon="8.154638763517141">
        <ele>698.50999999999999</ele>
        <time>2022-01-06T09:25:12Z</time>
      </trkpt>
      <trkpt lat="45.994975576177239" lon="8.154662232846022">
        <ele>699.35000000000002</ele>
        <time>2022-01-06T09:25:26Z</time>
      </trkpt>
      <trkpt lat="45.995012708008289" lon="8.154764240607619">
        <ele>699.82000000000005</ele>
        <time>2022-01-06T09:25:39Z</time>
      </trkpt>
      <trkpt lat="45.995026454329491" lon="8.154816292226315">
        <ele>699.82000000000005</ele>
        <time>2022-01-06T09:25:55Z</time>
      </trkpt>
      <trkpt lat="45.995053695514798" lon="8.154844120144844">
        <ele>699.98000000000002</ele>
        <time>2022-01-06T09:26:07Z</time>
      </trkpt>
      <trkpt lat="45.995054449886084" lon="8.154884772375226">
        <ele>699.91999999999996</ele>
        <time>2022-01-06T09:26:18Z</time>
      </trkpt>
      <trkpt lat="45.995064508169889" lon="8.15485174767673">
        <ele>700.19000000000005</ele>
        <time>2022-01-06T09:26:33Z</time>
      </trkpt>
      <trkpt lat="45.995042296126485" lon="8.154968172311783">
        <ele>699.76999999999998</ele>
        <time>2022-01-06T09:26:44Z</time>
      </trkpt>
      <trkpt lat="45.995032321661711" lon="8.155036568641663">
        <ele>699.61000000000001</ele>
        <time>2022-01-06T09:27:00Z</time>
      </trkpt>
      <trkpt lat="45.995020838454366" lon="8.155075460672379">
        <ele>699.48000000000002</ele>
        <time>2022-01-06T09:27:09Z</time>
      </trkpt>
      <trkpt lat="45.995014132931828" lon="8.155102031305432">
        <ele>699.20000000000005</ele>
        <time>2022-01-06T09:27:11Z</time>
      </trkpt>
      <trkpt lat="45.994956130161881" lon="8.155092392116785">
        <ele>699.12</ele>
        <time>2022-01-06T09:27:23Z</time>
      </trkpt>
      <trkpt lat="45.994997955858707" lon="8.155107479542494">
        <ele>699.09000000000003</ele>
        <time>2022-01-06T09:27:35Z</time>
      </trkpt>
      <trkpt lat="45.995016060769558" lon="8.155303867533803">
        <ele>698.73000000000002</ele>
        <time>2022-01-06T09:27:48Z</time>
      </trkpt>
      <trkpt lat="45.995029639452696" lon="8.155416185036302">
        <ele>698.41999999999996</ele>
        <time>2022-01-06T09:27:55Z</time>
      </trkpt>
      <trkpt lat="45.995052605867386" lon="8.155494639649987">
        <ele>697.65999999999997</ele>
        <time>2022-01-06T09:28:06Z</time>
      </trkpt>
      <trkpt lat="45.995038440451026" lon="8.15553093329072">
        <ele>697.38999999999999</ele>
        <time>2022-01-06T09:28:09Z</time>
      </trkpt>
      <trkpt lat="45.995018826797605" lon="8.155620284378529">
        <ele>696.38999999999999</ele>
        <time>2022-01-06T09:28:23Z</time>
      </trkpt>
      <trkpt lat="45.995008768513799" lon="8.155624894425273">
        <ele>695.64999999999998</ele>
        <time>2022-01-06T09:28:36Z</time>
      </trkpt>
      <trkpt lat="45.995039530098438" lon="8.155549960210919">
        <ele>696.59000000000003</ele>
        <time>2022-01-06T09:28:43Z</time>
      </trkpt>
      <trkpt lat="45.995025616139174" lon="8.155439822003245">
        <ele>697.98000000000002</ele>
        <time>2022-01-06T09:28:52Z</time>
      </trkpt>
      <trkpt lat="45.995000638067722" lon="8.155352314934135">
        <ele>698.46000000000004</ele>
        <time>2022-01-06T09:29:07Z</time>
      </trkpt>
      <trkpt lat="45.994996782392263" lon="8.15517227165401">
        <ele>699</ele>
        <time>2022-01-06T09:29:21Z</time>
      </trkpt>
      <trkpt lat="45.995006673038006" lon="8.155008237808943">
        <ele>699.62</ele>
        <time>2022-01-06T09:29:36Z</time>
      </trkpt>
      <trkpt lat="45.995011115446687" lon="8.154993150383234">
        <ele>699.50999999999999</ele>
        <time>2022-01-06T09:29:56Z</time>
      </trkpt>
      <trkpt lat="45.995009774342179" lon="8.154993569478393">
        <ele>699.41999999999996</ele>
        <time>2022-01-06T09:30:19Z</time>
      </trkpt>
      <trkpt lat="45.995024694129825" lon="8.155002873390913">
        <ele>699.32000000000005</ele>
        <time>2022-01-06T09:30:37Z</time>
      </trkpt>
      <trkpt lat="45.99502544850111" lon="8.154992312192917">
        <ele>699.47000000000003</ele>
        <time>2022-01-06T09:30:57Z</time>
      </trkpt>
      <trkpt lat="45.995029974728823" lon="8.154941266402602">
        <ele>699.55999999999995</ele>
        <time>2022-01-06T09:31:20Z</time>
      </trkpt>
      <trkpt lat="45.99501958116889" lon="8.154859459027648">
        <ele>700.13999999999999</ele>
        <time>2022-01-06T09:31:35Z</time>
      </trkpt>
      <trkpt lat="45.995028046891093" lon="8.154851328581572">
        <ele>700.03999999999996</ele>
        <time>2022-01-06T09:32:03Z</time>
      </trkpt>
      <trkpt lat="45.995029555633664" lon="8.154851663857698">
        <ele>699.76999999999998</ele>
        <time>2022-01-06T09:32:25Z</time>
      </trkpt>
      <trkpt lat="45.995066519826651" lon="8.154829619452357">
        <ele>700.03999999999996</ele>
        <time>2022-01-06T09:32:48Z</time>
      </trkpt>
      <trkpt lat="45.995077332481742" lon="8.154750410467386">
        <ele>700.20000000000005</ele>
        <time>2022-01-06T09:33:00Z</time>
      </trkpt>
      <trkpt lat="45.995073057711124" lon="8.154717050492764">
        <ele>700.42999999999995</ele>
        <time>2022-01-06T09:33:11Z</time>
      </trkpt>
      <trkpt lat="45.995067525655031" lon="8.154708836227655">
        <ele>700.57000000000005</ele>
        <time>2022-01-06T09:33:28Z</time>
      </trkpt>
      <trkpt lat="45.995066519826651" lon="8.15469735302031">
        <ele>700.62</ele>
        <time>2022-01-06T09:33:47Z</time>
      </trkpt>
      <trkpt lat="45.995081104338169" lon="8.154718643054366">
        <ele>700.79999999999995</ele>
        <time>2022-01-06T09:34:07Z</time>
      </trkpt>
      <trkpt lat="45.995196523144841" lon="8.154697269201279">
        <ele>703.36000000000001</ele>
        <time>2022-01-06T09:34:24Z</time>
      </trkpt>
      <trkpt lat="45.995263326913118" lon="8.154656700789928">
        <ele>704.82000000000005</ele>
        <time>2022-01-06T09:34:37Z</time>
      </trkpt>
      <trkpt lat="45.995338261127472" lon="8.154607499018312">
        <ele>706.60000000000002</ele>
        <time>2022-01-06T09:34:49Z</time>
      </trkpt>
      <trkpt lat="45.995405316352844" lon="8.154569696635008">
        <ele>708.87</ele>
        <time>2022-01-06T09:35:07Z</time>
      </trkpt>
      <trkpt lat="45.99544077180326" lon="8.154545724391937">
        <ele>710.70000000000005</ele>
        <time>2022-01-06T09:35:22Z</time>
      </trkpt>
      <trkpt lat="45.995550658553839" lon="8.154442207887769">
        <ele>713.94000000000005</ele>
        <time>2022-01-06T09:35:40Z</time>
      </trkpt>
      <trkpt lat="45.995612349361181" lon="8.154382947832346">
        <ele>716.14999999999998</ele>
        <time>2022-01-06T09:35:56Z</time>
      </trkpt>
      <trkpt lat="45.995666496455669" lon="8.154425946995616">
        <ele>718.04999999999995</ele>
        <time>2022-01-06T09:36:08Z</time>
      </trkpt>
      <trkpt lat="45.995661551132798" lon="8.154352605342865">
        <ele>719.79999999999995</ele>
        <time>2022-01-06T09:36:20Z</time>
      </trkpt>
      <trkpt lat="45.995685942471027" lon="8.154321843758225">
        <ele>721.22000000000003</ele>
        <time>2022-01-06T09:36:35Z</time>
      </trkpt>
      <trkpt lat="45.995747549459338" lon="8.154351515695453">
        <ele>723.25</ele>
        <time>2022-01-06T09:36:49Z</time>
      </trkpt>
      <trkpt lat="45.995786525309086" lon="8.154365932568908">
        <ele>725.00999999999999</ele>
        <time>2022-01-06T09:37:03Z</time>
      </trkpt>
      <trkpt lat="45.995835643261671" lon="8.154383031651378">
        <ele>727.29999999999995</ele>
        <time>2022-01-06T09:37:15Z</time>
      </trkpt>
      <trkpt lat="45.995903369039297" lon="8.154442794620991">
        <ele>728.92999999999995</ele>
        <time>2022-01-06T09:37:27Z</time>
      </trkpt>
      <trkpt lat="45.995947876945138" lon="8.154443297535181">
        <ele>730.36000000000001</ele>
        <time>2022-01-06T09:37:39Z</time>
      </trkpt>
      <trkpt lat="45.995995821431279" lon="8.15439241938293">
        <ele>732.63</ele>
        <time>2022-01-06T09:37:54Z</time>
      </trkpt>
      <trkpt lat="45.996010154485703" lon="8.154342966154218">
        <ele>734.38999999999999</ele>
        <time>2022-01-06T09:38:07Z</time>
      </trkpt>
      <trkpt lat="45.996054243296385" lon="8.154331734403968">
        <ele>736.61000000000001</ele>
        <time>2022-01-06T09:38:20Z</time>
      </trkpt>
      <trkpt lat="45.996097745373845" lon="8.154304744675756">
        <ele>738.47000000000003</ele>
        <time>2022-01-06T09:38:31Z</time>
      </trkpt>
      <trkpt lat="45.996140660718083" lon="8.154257889837027">
        <ele>740.08000000000004</ele>
        <time>2022-01-06T09:38:42Z</time>
      </trkpt>
      <trkpt lat="45.996146025136113" lon="8.154200557619333">
        <ele>741.59000000000003</ele>
        <time>2022-01-06T09:38:53Z</time>
      </trkpt>
      <trkpt lat="45.996176619082689" lon="8.154161833226681">
        <ele>743.92999999999995</ele>
        <time>2022-01-06T09:39:05Z</time>
      </trkpt>
      <trkpt lat="45.9962088894099" lon="8.154103495180607">
        <ele>746.24000000000001</ele>
        <time>2022-01-06T09:39:20Z</time>
      </trkpt>
      <trkpt lat="45.996213750913739" lon="8.1540313269943">
        <ele>748.24000000000001</ele>
        <time>2022-01-06T09:39:35Z</time>
      </trkpt>
      <trkpt lat="45.996229173615575" lon="8.153984053060412">
        <ele>749.96000000000004</ele>
        <time>2022-01-06T09:39:48Z</time>
      </trkpt>
      <trkpt lat="45.996191622689366" lon="8.153946083039045">
        <ele>752.11000000000001</ele>
        <time>2022-01-06T09:40:03Z</time>
      </trkpt>
      <trkpt lat="45.996213164180517" lon="8.153892857953906">
        <ele>754.19000000000005</ele>
        <time>2022-01-06T09:40:15Z</time>
      </trkpt>
      <trkpt lat="45.996174104511738" lon="8.153890762478113">
        <ele>756.05999999999995</ele>
        <time>2022-01-06T09:40:26Z</time>
      </trkpt>
      <trkpt lat="45.996116856113076" lon="8.153869472444058">
        <ele>757.63999999999999</ele>
        <time>2022-01-06T09:40:38Z</time>
      </trkpt>
      <trkpt lat="45.996068995445967" lon="8.153782719746232">
        <ele>759.51999999999998</ele>
        <time>2022-01-06T09:40:52Z</time>
      </trkpt>
      <trkpt lat="45.996012333780527" lon="8.153702085837722">
        <ele>760.89999999999998</ele>
        <time>2022-01-06T09:41:06Z</time>
      </trkpt>
      <trkpt lat="45.995949720963836" lon="8.153618266806006">
        <ele>762.86000000000001</ele>
        <time>2022-01-06T09:41:20Z</time>
      </trkpt>
      <trkpt lat="45.995878139510751" lon="8.153553055599332">
        <ele>765.02999999999997</ele>
        <time>2022-01-06T09:41:36Z</time>
      </trkpt>
      <trkpt lat="45.995815945789218" lon="8.153493208810687">
        <ele>766.53999999999996</ele>
        <time>2022-01-06T09:41:49Z</time>
      </trkpt>
      <trkpt lat="45.995751321315765" lon="8.153406791388989">
        <ele>767.88</ele>
        <time>2022-01-06T09:42:05Z</time>
      </trkpt>
      <trkpt lat="45.995697509497404" lon="8.153328504413366">
        <ele>769.83000000000004</ele>
        <time>2022-01-06T09:42:20Z</time>
      </trkpt>
      <trkpt lat="45.995675129815936" lon="8.15324267372489">
        <ele>771.77999999999997</ele>
        <time>2022-01-06T09:42:37Z</time>
      </trkpt>
      <trkpt lat="45.995636573061347" lon="8.153181402012706">
        <ele>773.65999999999997</ele>
        <time>2022-01-06T09:42:49Z</time>
      </trkpt>
      <trkpt lat="45.995604051277041" lon="8.153110910207033">
        <ele>775.21000000000004</ele>
        <time>2022-01-06T09:43:03Z</time>
      </trkpt>
      <trkpt lat="45.995588460937142" lon="8.153071179986">
        <ele>776.28999999999996</ele>
        <time>2022-01-06T09:43:19Z</time>
      </trkpt>
      <trkpt lat="45.995529452338815" lon="8.152988702058792">
        <ele>778.97000000000003</ele>
        <time>2022-01-06T09:43:34Z</time>
      </trkpt>
      <trkpt lat="45.995449656620622" lon="8.152931369841099">
        <ele>781.04999999999995</ele>
        <time>2022-01-06T09:43:48Z</time>
      </trkpt>
      <trkpt lat="45.995400957763195" lon="8.152888454496861">
        <ele>783.01999999999998</ele>
        <time>2022-01-06T09:43:58Z</time>
      </trkpt>
      <trkpt lat="45.995335411280394" lon="8.152830954641104">
        <ele>785.16999999999996</ele>
        <time>2022-01-06T09:44:13Z</time>
      </trkpt>
      <trkpt lat="45.995296100154519" lon="8.152766413986683">
        <ele>786.90999999999997</ele>
        <time>2022-01-06T09:44:26Z</time>
      </trkpt>
      <trkpt lat="45.995255028828979" lon="8.152716122567654">
        <ele>788.62</ele>
        <time>2022-01-06T09:44:39Z</time>
      </trkpt>
      <trkpt lat="45.995208593085408" lon="8.152662226930261">
        <ele>790.87</ele>
        <time>2022-01-06T09:44:54Z</time>
      </trkpt>
      <trkpt lat="45.995220327749848" lon="8.152650911360979">
        <ele>791.25999999999999</ele>
        <time>2022-01-06T09:45:07Z</time>
      </trkpt>
      <trkpt lat="45.995275313034654" lon="8.152673123404384">
        <ele>792.75</ele>
        <time>2022-01-06T09:45:23Z</time>
      </trkpt>
      <trkpt lat="45.995334824547172" lon="8.152686031535268">
        <ele>794.74000000000001</ele>
        <time>2022-01-06T09:45:34Z</time>
      </trkpt>
      <trkpt lat="45.995379164814949" lon="8.152702543884516">
        <ele>797.21000000000004</ele>
        <time>2022-01-06T09:45:52Z</time>
      </trkpt>
      <trkpt lat="45.995469940826297" lon="8.152759792283177">
        <ele>800.38</ele>
        <time>2022-01-06T09:46:11Z</time>
      </trkpt>
      <trkpt lat="45.995533056557178" lon="8.152762725949287">
        <ele>802.20000000000005</ele>
        <time>2022-01-06T09:46:23Z</time>
      </trkpt>
      <trkpt lat="45.995595585554838" lon="8.152757696807385">
        <ele>805.25999999999999</ele>
        <time>2022-01-06T09:46:37Z</time>
      </trkpt>
      <trkpt lat="45.995661970227957" lon="8.152770521119237">
        <ele>807.30999999999995</ele>
        <time>2022-01-06T09:46:50Z</time>
      </trkpt>
      <trkpt lat="45.995669178664684" lon="8.152792565524578">
        <ele>807.99000000000001</ele>
        <time>2022-01-06T09:47:09Z</time>
      </trkpt>
      <trkpt lat="45.995738664641976" lon="8.152814526110888">
        <ele>809.73000000000002</ele>
        <time>2022-01-06T09:47:21Z</time>
      </trkpt>
      <trkpt lat="45.995770012959838" lon="8.152706734836102">
        <ele>812.12</ele>
        <time>2022-01-06T09:47:35Z</time>
      </trkpt>
      <trkpt lat="45.9957857709378" lon="8.15261771902442">
        <ele>813.83000000000004</ele>
        <time>2022-01-06T09:47:48Z</time>
      </trkpt>
      <trkpt lat="45.995801528915763" lon="8.152525266632438">
        <ele>815.42999999999995</ele>
        <time>2022-01-06T09:48:00Z</time>
      </trkpt>
      <trkpt lat="45.995810497552156" lon="8.152439603582025">
        <ele>817.77999999999997</ele>
        <time>2022-01-06T09:48:14Z</time>
      </trkpt>
      <trkpt lat="45.995818627998233" lon="8.152303816750646">
        <ele>819.75</ele>
        <time>2022-01-06T09:48:28Z</time>
      </trkpt>
      <trkpt lat="45.995823489502072" lon="8.152221674099565">
        <ele>821.32000000000005</ele>
        <time>2022-01-06T09:48:39Z</time>
      </trkpt>
      <trkpt lat="45.995837319642305" lon="8.152135256677866">
        <ele>823.88</ele>
        <time>2022-01-06T09:48:55Z</time>
      </trkpt>
      <trkpt lat="45.995858693495393" lon="8.152070883661509">
        <ele>826.35000000000002</ele>
        <time>2022-01-06T09:49:09Z</time>
      </trkpt>
      <trkpt lat="45.995910577476025" lon="8.151995278894901">
        <ele>828.04999999999995</ele>
        <time>2022-01-06T09:49:22Z</time>
      </trkpt>
      <trkpt lat="45.995920887216926" lon="8.151984382420778">
        <ele>828.24000000000001</ele>
        <time>2022-01-06T09:49:24Z</time>
      </trkpt>
      <trkpt lat="45.995940836146474" lon="8.151948759332299">
        <ele>828.46000000000004</ele>
        <time>2022-01-06T09:49:27Z</time>
      </trkpt>
      <trkpt lat="45.995956510305405" lon="8.151838788762689">
        <ele>830.14999999999998</ele>
        <time>2022-01-06T09:49:40Z</time>
      </trkpt>
      <trkpt lat="45.995958019047976" lon="8.151776678860188">
        <ele>831.62</ele>
        <time>2022-01-06T09:49:52Z</time>
      </trkpt>
      <trkpt lat="45.995952151715755" lon="8.151741642504931">
        <ele>831.42999999999995</ele>
        <time>2022-01-06T09:50:07Z</time>
      </trkpt>
      <trkpt lat="45.995962209999561" lon="8.151731919497252">
        <ele>831.79999999999995</ele>
        <time>2022-01-06T09:50:26Z</time>
      </trkpt>
      <trkpt lat="45.995974699035287" lon="8.15161800943315">
        <ele>834.90999999999997</ele>
        <time>2022-01-06T09:50:40Z</time>
      </trkpt>
      <trkpt lat="45.995997162535787" lon="8.151471745222807">
        <ele>837.09000000000003</ele>
        <time>2022-01-06T09:50:56Z</time>
      </trkpt>
      <trkpt lat="45.995972519740462" lon="8.151356913149357">
        <ele>839.88999999999999</ele>
        <time>2022-01-06T09:51:11Z</time>
      </trkpt>
      <trkpt lat="45.995999677106738" lon="8.151263454928994">
        <ele>841.74000000000001</ele>
        <time>2022-01-06T09:51:26Z</time>
      </trkpt>
      <trkpt lat="45.996001688763499" lon="8.151156920939684">
        <ele>844.69000000000005</ele>
        <time>2022-01-06T09:51:43Z</time>
      </trkpt>
      <trkpt lat="45.9959860984236" lon="8.151071928441525">
        <ele>846.23000000000002</ele>
        <time>2022-01-06T09:51:56Z</time>
      </trkpt>
      <trkpt lat="45.995977129787207" lon="8.150981906801462">
        <ele>848.42999999999995</ele>
        <time>2022-01-06T09:52:13Z</time>
      </trkpt>
      <trkpt lat="45.995928850024939" lon="8.15090361982584">
        <ele>849.98000000000002</ele>
        <time>2022-01-06T09:52:27Z</time>
      </trkpt>
      <trkpt lat="45.99589766934514" lon="8.150787781924009">
        <ele>851.83000000000004</ele>
        <time>2022-01-06T09:52:41Z</time>
      </trkpt>
      <trkpt lat="45.995885850861669" lon="8.15070522017777">
        <ele>853.38999999999999</ele>
        <time>2022-01-06T09:52:55Z</time>
      </trkpt>
      <trkpt lat="45.995840756222606" lon="8.15057085826993">
        <ele>856.41999999999996</ele>
        <time>2022-01-06T09:53:11Z</time>
      </trkpt>
      <trkpt lat="45.995793398469687" lon="8.150468766689301">
        <ele>858.82000000000005</ele>
        <time>2022-01-06T09:53:23Z</time>
      </trkpt>
      <trkpt lat="45.995743945240974" lon="8.150370949879289">
        <ele>858.91999999999996</ele>
        <time>2022-01-06T09:53:34Z</time>
      </trkpt>
      <trkpt lat="45.995701951906085" lon="8.150314623489976">
        <ele>859.58000000000004</ele>
        <time>2022-01-06T09:53:46Z</time>
      </trkpt>
      <trkpt lat="45.99569977261126" lon="8.150259219110012">
        <ele>859.51999999999998</ele>
        <time>2022-01-06T09:54:00Z</time>
      </trkpt>
      <trkpt lat="45.995702371001244" lon="8.150283610448241">
        <ele>858.19000000000005</ele>
        <time>2022-01-06T09:54:11Z</time>
      </trkpt>
      <trkpt lat="45.995683595538139" lon="8.150282436981797">
        <ele>858.55999999999995</ele>
        <time>2022-01-06T09:54:49Z</time>
      </trkpt>
      <trkpt lat="45.995690217241645" lon="8.150283023715019">
        <ele>859.90999999999997</ele>
        <time>2022-01-06T09:55:19Z</time>
      </trkpt>
      <trkpt lat="45.995677812024951" lon="8.150297524407506">
        <ele>859.87</ele>
        <time>2022-01-06T09:55:31Z</time>
      </trkpt>
      <trkpt lat="45.995648307725787" lon="8.150236587971449">
        <ele>860.46000000000004</ele>
        <time>2022-01-06T09:55:38Z</time>
      </trkpt>
      <trkpt lat="45.995613941922784" lon="8.150178836658597">
        <ele>860.27999999999997</ele>
        <time>2022-01-06T09:55:45Z</time>
      </trkpt>
      <trkpt lat="45.995568428188562" lon="8.150090826675296">
        <ele>860.62</ele>
        <time>2022-01-06T09:55:53Z</time>
      </trkpt>
      <trkpt lat="45.995488129556179" lon="8.14995177090168">
        <ele>861.51999999999998</ele>
        <time>2022-01-06T09:56:06Z</time>
      </trkpt>
      <trkpt lat="45.995414033532143" lon="8.14979980699718">
        <ele>863.42999999999995</ele>
        <time>2022-01-06T09:56:21Z</time>
      </trkpt>
      <trkpt lat="45.99538704380393" lon="8.149736104533076">
        <ele>863.57000000000005</ele>
        <time>2022-01-06T09:56:33Z</time>
      </trkpt>
      <trkpt lat="45.995386959984899" lon="8.149737697094679">
        <ele>862.45000000000005</ele>
        <time>2022-01-06T09:56:45Z</time>
      </trkpt>
      <trkpt lat="45.995403304696083" lon="8.149747755378485">
        <ele>862.58000000000004</ele>
        <time>2022-01-06T09:57:00Z</time>
      </trkpt>
      <trkpt lat="45.995404394343495" lon="8.149780025705695">
        <ele>863.45000000000005</ele>
        <time>2022-01-06T09:57:16Z</time>
      </trkpt>
      <trkpt lat="45.995400790125132" lon="8.149769715964794">
        <ele>863.78999999999996</ele>
        <time>2022-01-06T09:57:26Z</time>
      </trkpt>
      <trkpt lat="45.995399029925466" lon="8.14975630491972">
        <ele>863.67999999999995</ele>
        <time>2022-01-06T09:57:43Z</time>
      </trkpt>
      <trkpt lat="45.995396599173546" lon="8.149759322404862">
        <ele>863.37</ele>
        <time>2022-01-06T09:57:56Z</time>
      </trkpt>
      <trkpt lat="45.995395677164197" lon="8.149750018492341">
        <ele>863.75</ele>
        <time>2022-01-06T09:58:12Z</time>
      </trkpt>
      <trkpt lat="45.995402885600924" lon="8.149747755378485">
        <ele>863.63999999999999</ele>
        <time>2022-01-06T09:58:27Z</time>
      </trkpt>
      <trkpt lat="45.995403556153178" lon="8.149758232757449">
        <ele>863.53999999999996</ele>
        <time>2022-01-06T09:58:41Z</time>
      </trkpt>
      <trkpt lat="45.995403556153178" lon="8.149752952158451">
        <ele>864.11000000000001</ele>
        <time>2022-01-06T09:58:53Z</time>
      </trkpt>
      <trkpt lat="45.9954041428864" lon="8.149762004613876">
        <ele>863.85000000000002</ele>
        <time>2022-01-06T09:59:08Z</time>
      </trkpt>
      <trkpt lat="45.995397940278053" lon="8.149740127846599">
        <ele>863.38999999999999</ele>
        <time>2022-01-06T09:59:18Z</time>
      </trkpt>
      <trkpt lat="45.995393749326468" lon="8.149737026542425">
        <ele>862.16999999999996</ele>
        <time>2022-01-06T09:59:23Z</time>
      </trkpt>
      <trkpt lat="45.995393749326468" lon="8.149735853075981">
        <ele>863.61000000000001</ele>
        <time>2022-01-06T09:59:25Z</time>
      </trkpt>
      <trkpt lat="45.995394084602594" lon="8.149734092876315">
        <ele>865.03999999999996</ele>
        <time>2022-01-06T09:59:27Z</time>
      </trkpt>
      <trkpt lat="45.995393330231309" lon="8.149734260514379">
        <ele>863.32000000000005</ele>
        <time>2022-01-06T09:59:45Z</time>
      </trkpt>
      <trkpt lat="45.995410848408937" lon="8.149694865569472">
        <ele>863.47000000000003</ele>
        <time>2022-01-06T09:59:59Z</time>
      </trkpt>
      <trkpt lat="45.995451333001256" lon="8.149659996852279">
        <ele>863.09000000000003</ele>
        <time>2022-01-06T10:00:08Z</time>
      </trkpt>
      <trkpt lat="45.995448399335146" lon="8.149660164490342">
        <ele>863.03999999999996</ele>
        <time>2022-01-06T10:00:09Z</time>
      </trkpt>
      <trkpt lat="45.995475640520453" lon="8.149665025994182">
        <ele>862.89999999999998</ele>
        <time>2022-01-06T10:00:18Z</time>
      </trkpt>
      <trkpt lat="45.995414704084396" lon="8.149578189477325">
        <ele>862.73000000000002</ele>
        <time>2022-01-06T10:00:29Z</time>
      </trkpt>
      <trkpt lat="45.995343709364533" lon="8.149537956342101">
        <ele>863.27999999999997</ele>
        <time>2022-01-06T10:00:39Z</time>
      </trkpt>
      <trkpt lat="45.995282270014286" lon="8.149513565003872">
        <ele>863.62</ele>
        <time>2022-01-06T10:00:50Z</time>
      </trkpt>
      <trkpt lat="45.9952780790627" lon="8.149503841996193">
        <ele>863.59000000000003</ele>
        <time>2022-01-06T10:01:01Z</time>
      </trkpt>
      <trkpt lat="45.99529123865068" lon="8.14950954169035">
        <ele>863.49000000000001</ele>
        <time>2022-01-06T10:01:09Z</time>
      </trkpt>
      <trkpt lat="45.995281348004937" lon="8.149506188929081">
        <ele>863.79999999999995</ele>
        <time>2022-01-06T10:01:21Z</time>
      </trkpt>
      <trkpt lat="45.99524094723165" lon="8.149427063763142">
        <ele>863.85000000000002</ele>
        <time>2022-01-06T10:01:31Z</time>
      </trkpt>
      <trkpt lat="45.995236253365874" lon="8.149318182840943">
        <ele>864.20000000000005</ele>
        <time>2022-01-06T10:01:41Z</time>
      </trkpt>
      <trkpt lat="45.995247568935156" lon="8.14927451312542">
        <ele>864.07000000000005</ele>
        <time>2022-01-06T10:01:45Z</time>
      </trkpt>
      <trkpt lat="45.995266009122133" lon="8.149177869781852">
        <ele>864.57000000000005</ele>
        <time>2022-01-06T10:01:53Z</time>
      </trkpt>
      <trkpt lat="45.995322419330478" lon="8.14907074905932">
        <ele>866.50999999999999</ele>
        <time>2022-01-06T10:02:06Z</time>
      </trkpt>
      <trkpt lat="45.995351169258356" lon="8.149053398519754">
        <ele>866.67999999999995</ele>
        <time>2022-01-06T10:02:16Z</time>
      </trkpt>
      <trkpt lat="45.995387881994247" lon="8.148989276960492">
        <ele>867.88999999999999</ele>
        <time>2022-01-06T10:02:31Z</time>
      </trkpt>
      <trkpt lat="45.995449153706431" lon="8.148877462372184">
        <ele>869.55999999999995</ele>
        <time>2022-01-06T10:02:46Z</time>
      </trkpt>
      <trkpt lat="45.995473880320787" lon="8.148765731602907">
        <ele>871.17999999999995</ele>
        <time>2022-01-06T10:02:58Z</time>
      </trkpt>
      <trkpt lat="45.9954749699682" lon="8.148692306131125">
        <ele>872.27999999999997</ele>
        <time>2022-01-06T10:03:12Z</time>
      </trkpt>
      <trkpt lat="45.995524004101753" lon="8.148672357201576">
        <ele>873.28999999999996</ele>
        <time>2022-01-06T10:03:30Z</time>
      </trkpt>
      <trkpt lat="45.995556861162186" lon="8.148539084941149">
        <ele>876.23000000000002</ele>
        <time>2022-01-06T10:03:49Z</time>
      </trkpt>
      <trkpt lat="45.99554730579257" lon="8.148472867906094">
        <ele>877.34000000000003</ele>
        <time>2022-01-06T10:04:02Z</time>
      </trkpt>
      <trkpt lat="45.995562979951501" lon="8.148479992523789">
        <ele>877.15999999999997</ele>
        <time>2022-01-06T10:04:18Z</time>
      </trkpt>
      <trkpt lat="45.995598351582885" lon="8.14848585985601">
        <ele>877.65999999999997</ele>
        <time>2022-01-06T10:04:32Z</time>
      </trkpt>
      <trkpt lat="45.995695414021611" lon="8.148482507094741">
        <ele>879.64999999999998</ele>
        <time>2022-01-06T10:04:47Z</time>
      </trkpt>
      <trkpt lat="45.995728019624949" lon="8.148408411070705">
        <ele>881.91999999999996</ele>
        <time>2022-01-06T10:05:00Z</time>
      </trkpt>
      <trkpt lat="45.995773449540138" lon="8.148388378322125">
        <ele>883.69000000000005</ele>
        <time>2022-01-06T10:05:11Z</time>
      </trkpt>
      <trkpt lat="45.995825920253992" lon="8.148352084681392">
        <ele>885.79999999999995</ele>
        <time>2022-01-06T10:05:26Z</time>
      </trkpt>
      <trkpt lat="45.995902363210917" lon="8.148349234834313">
        <ele>887.88</ele>
        <time>2022-01-06T10:05:45Z</time>
      </trkpt>
      <trkpt lat="45.995966233313084" lon="8.148320987820625">
        <ele>890</ele>
        <time>2022-01-06T10:06:04Z</time>
      </trkpt>
      <trkpt lat="45.996013004332781" lon="8.148309169337153">
        <ele>891.59000000000003</ele>
        <time>2022-01-06T10:06:22Z</time>
      </trkpt>
      <trkpt lat="45.996058434247971" lon="8.148269271478057">
        <ele>893.58000000000004</ele>
        <time>2022-01-06T10:06:39Z</time>
      </trkpt>
      <trkpt lat="45.996134961023927" lon="8.148286873474717">
        <ele>895.25999999999999</ele>
        <time>2022-01-06T10:06:53Z</time>
      </trkpt>
      <trkpt lat="45.996208302676678" lon="8.14825183711946">
        <ele>897.46000000000004</ele>
        <time>2022-01-06T10:07:09Z</time>
      </trkpt>
      <trkpt lat="45.996245602145791" lon="8.148212861269712">
        <ele>898.66999999999996</ele>
        <time>2022-01-06T10:07:21Z</time>
      </trkpt>
      <trkpt lat="45.996285080909729" lon="8.148195678368211">
        <ele>900.48000000000002</ele>
        <time>2022-01-06T10:07:36Z</time>
      </trkpt>
      <trkpt lat="45.996332438662648" lon="8.148160725831986">
        <ele>902.80999999999995</ele>
        <time>2022-01-06T10:07:52Z</time>
      </trkpt>
      <trkpt lat="45.996327493339777" lon="8.148110266774893">
        <ele>904.48000000000002</ele>
        <time>2022-01-06T10:08:06Z</time>
      </trkpt>
      <trkpt lat="45.996283991262317" lon="8.148053521290422">
        <ele>906.75999999999999</ele>
        <time>2022-01-06T10:08:22Z</time>
      </trkpt>
      <trkpt lat="45.996258007362485" lon="8.147978251799941">
        <ele>909.75</ele>
        <time>2022-01-06T10:08:38Z</time>
      </trkpt>
      <trkpt lat="45.996241075918078" lon="8.147913459688425">
        <ele>911.49000000000001</ele>
        <time>2022-01-06T10:08:51Z</time>
      </trkpt>
      <trkpt lat="45.996301844716072" lon="8.147879848256707">
        <ele>914.22000000000003</ele>
        <time>2022-01-06T10:09:08Z</time>
      </trkpt>
      <trkpt lat="45.996386166661978" lon="8.147869538515806">
        <ele>917.24000000000001</ele>
        <time>2022-01-06T10:09:25Z</time>
      </trkpt>
      <trkpt lat="45.9964644536376" lon="8.147862497717142">
        <ele>919.34000000000003</ele>
        <time>2022-01-06T10:09:41Z</time>
      </trkpt>
      <trkpt lat="45.996539136394858" lon="8.147800136357546">
        <ele>921.54999999999995</ele>
        <time>2022-01-06T10:09:58Z</time>
      </trkpt>
      <trkpt lat="45.996567131951451" lon="8.147705253213644">
        <ele>924.5</ele>
        <time>2022-01-06T10:10:16Z</time>
      </trkpt>
      <trkpt lat="45.996561432257295" lon="8.147670719772577">
        <ele>927.22000000000003</ele>
        <time>2022-01-06T10:10:30Z</time>
      </trkpt>
      <trkpt lat="45.996506446972489" lon="8.147641802206636">
        <ele>928.78999999999996</ele>
        <time>2022-01-06T10:10:43Z</time>
      </trkpt>
      <trkpt lat="45.996475433930755" lon="8.147584469988942">
        <ele>930.58000000000004</ele>
        <time>2022-01-06T10:10:57Z</time>
      </trkpt>
      <trkpt lat="45.996501334011555" lon="8.147500650957227">
        <ele>933.15999999999997</ele>
        <time>2022-01-06T10:11:16Z</time>
      </trkpt>
      <trkpt lat="45.996475601568818" lon="8.14741431735456">
        <ele>936.23000000000002</ele>
        <time>2022-01-06T10:11:30Z</time>
      </trkpt>
      <trkpt lat="45.996459256857634" lon="8.147330330684781">
        <ele>938.44000000000005</ele>
        <time>2022-01-06T10:11:43Z</time>
      </trkpt>
      <trkpt lat="45.996423298493028" lon="8.147266041487455">
        <ele>940.75999999999999</ele>
        <time>2022-01-06T10:11:56Z</time>
      </trkpt>
      <trkpt lat="45.996375354006886" lon="8.147184988483787">
        <ele>942.51999999999998</ele>
        <time>2022-01-06T10:12:10Z</time>
      </trkpt>
      <trkpt lat="45.996342496946454" lon="8.147121956571937">
        <ele>944.38999999999999</ele>
        <time>2022-01-06T10:12:21Z</time>
      </trkpt>
      <trkpt lat="45.99635012447834" lon="8.147076861932874">
        <ele>945.97000000000003</ele>
        <time>2022-01-06T10:12:33Z</time>
      </trkpt>
      <trkpt lat="45.996414581313729" lon="8.147101504728198">
        <ele>947.23000000000002</ele>
        <time>2022-01-06T10:12:49Z</time>
      </trkpt>
      <trkpt lat="45.996488761156797" lon="8.147115670144558">
        <ele>948.48000000000002</ele>
        <time>2022-01-06T10:13:03Z</time>
      </trkpt>
      <trkpt lat="45.996527737006545" lon="8.147111311554909">
        <ele>950.08000000000004</ele>
        <time>2022-01-06T10:13:17Z</time>
      </trkpt>
      <trkpt lat="45.996528491377831" lon="8.147154813632369">
        <ele>950.21000000000004</ele>
        <time>2022-01-06T10:13:30Z</time>
      </trkpt>
      <trkpt lat="45.996547602117062" lon="8.147119944915175">
        <ele>950.67999999999995</ele>
        <time>2022-01-06T10:13:45Z</time>
      </trkpt>
      <trkpt lat="45.996547853574157" lon="8.147048028185964">
        <ele>950.78999999999996</ele>
        <time>2022-01-06T10:14:04Z</time>
      </trkpt>
      <trkpt lat="45.996548859402537" lon="8.146998574957252">
        <ele>951.77999999999997</ele>
        <time>2022-01-06T10:14:17Z</time>
      </trkpt>
      <trkpt lat="45.996556486934423" lon="8.147040903568268">
        <ele>952.38999999999999</ele>
        <time>2022-01-06T10:14:33Z</time>
      </trkpt>
      <trkpt lat="45.996560258790851" lon="8.147055404260755">
        <ele>952.14999999999998</ele>
        <time>2022-01-06T10:14:52Z</time>
      </trkpt>
      <trkpt lat="45.996556235477328" lon="8.147062277421355">
        <ele>952.38</ele>
        <time>2022-01-06T10:15:08Z</time>
      </trkpt>
      <trkpt lat="45.996545422822237" lon="8.147070156410337">
        <ele>952.16999999999996</ele>
        <time>2022-01-06T10:15:22Z</time>
      </trkpt>
      <trkpt lat="45.99652748554945" lon="8.147058924660087">
        <ele>952.86000000000001</ele>
        <time>2022-01-06T10:15:33Z</time>
      </trkpt>
      <trkpt lat="45.996528156101704" lon="8.147076610475779">
        <ele>953.23000000000002</ele>
        <time>2022-01-06T10:16:05Z</time>
      </trkpt>
      <trkpt lat="45.996537460014224" lon="8.1470703240484">
        <ele>953.29999999999995</ele>
        <time>2022-01-06T10:16:30Z</time>
      </trkpt>
      <trkpt lat="45.996550619602203" lon="8.147001843899488">
        <ele>955.64999999999998</ele>
        <time>2022-01-06T10:16:45Z</time>
      </trkpt>
      <trkpt lat="45.99653284996748" lon="8.146925065666437">
        <ele>958.00999999999999</ele>
        <time>2022-01-06T10:17:00Z</time>
      </trkpt>
      <trkpt lat="45.996563443914056" lon="8.146845102310181">
        <ele>960.40999999999997</ele>
        <time>2022-01-06T10:17:15Z</time>
      </trkpt>
      <trkpt lat="45.996578112244606" lon="8.146765055134893">
        <ele>962.99000000000001</ele>
        <time>2022-01-06T10:17:30Z</time>
      </trkpt>
      <trkpt lat="45.996588002890348" lon="8.146683415398002">
        <ele>964.99000000000001</ele>
        <time>2022-01-06T10:17:43Z</time>
      </trkpt>
      <trkpt lat="45.996603760868311" lon="8.146570343524218">
        <ele>967.15999999999997</ele>
        <time>2022-01-06T10:17:59Z</time>
      </trkpt>
      <trkpt lat="45.996620943769813" lon="8.146469341591001">
        <ele>968.72000000000003</ele>
        <time>2022-01-06T10:18:14Z</time>
      </trkpt>
      <trkpt lat="45.996632846072316" lon="8.146414188668132">
        <ele>970.89999999999998</ele>
        <time>2022-01-06T10:18:26Z</time>
      </trkpt>
      <trkpt lat="45.996665200218558" lon="8.146343445405364">
        <ele>972.78999999999996</ele>
        <time>2022-01-06T10:18:41Z</time>
      </trkpt>
      <trkpt lat="45.996693447232246" lon="8.146276054903865">
        <ele>975.98000000000002</ele>
        <time>2022-01-06T10:18:57Z</time>
      </trkpt>
      <trkpt lat="45.996733345091343" lon="8.146203551441431">
        <ele>977.78999999999996</ele>
        <time>2022-01-06T10:19:10Z</time>
      </trkpt>
      <trkpt lat="45.996781624853611" lon="8.146093329414725">
        <ele>980.00999999999999</ele>
        <time>2022-01-06T10:19:27Z</time>
      </trkpt>
      <trkpt lat="45.996796879917383" lon="8.145971121266484">
        <ele>982.54999999999995</ele>
        <time>2022-01-06T10:19:44Z</time>
      </trkpt>
      <trkpt lat="45.996832503005862" lon="8.145832987502217">
        <ele>984.97000000000003</ele>
        <time>2022-01-06T10:20:01Z</time>
      </trkpt>
      <trkpt lat="45.996846249327064" lon="8.14573491923511">
        <ele>986.13999999999999</ele>
        <time>2022-01-06T10:20:11Z</time>
      </trkpt>
      <trkpt lat="45.996861252933741" lon="8.145606927573681">
        <ele>987.97000000000003</ele>
        <time>2022-01-06T10:20:23Z</time>
      </trkpt>
      <trkpt lat="45.996905509382486" lon="8.145488407462835">
        <ele>989.84000000000003</ele>
        <time>2022-01-06T10:20:37Z</time>
      </trkpt>
      <trkpt lat="45.996943898499012" lon="8.145353207364678">
        <ele>992.09000000000003</ele>
        <time>2022-01-06T10:20:55Z</time>
      </trkpt>
      <trkpt lat="45.996973570436239" lon="8.145216330885887">
        <ele>994.49000000000001</ele>
        <time>2022-01-06T10:21:10Z</time>
      </trkpt>
      <trkpt lat="45.996977090835571" lon="8.145088003948331">
        <ele>997.44000000000005</ele>
        <time>2022-01-06T10:21:27Z</time>
      </trkpt>
      <trkpt lat="45.996975414454937" lon="8.144975770264864">
        <ele>1000.02</ele>
        <time>2022-01-06T10:21:43Z</time>
      </trkpt>
      <trkpt lat="45.99702293984592" lon="8.144893208518624">
        <ele>1002.01</ele>
        <time>2022-01-06T10:21:57Z</time>
      </trkpt>
      <trkpt lat="45.997099634259939" lon="8.144792374223471">
        <ele>1004.3</ele>
        <time>2022-01-06T10:22:14Z</time>
      </trkpt>
      <trkpt lat="45.997152356430888" lon="8.144667064771056">
        <ele>1007.08</ele>
        <time>2022-01-06T10:22:31Z</time>
      </trkpt>
      <trkpt lat="45.997173059731722" lon="8.144553238525987">
        <ele>1009.25</ele>
        <time>2022-01-06T10:22:47Z</time>
      </trkpt>
      <trkpt lat="45.997209353372455" lon="8.144467575475574">
        <ele>1011.6900000000001</ele>
        <time>2022-01-06T10:23:03Z</time>
      </trkpt>
      <trkpt lat="45.997236343100667" lon="8.144388366490603">
        <ele>1014.4299999999999</ele>
        <time>2022-01-06T10:23:19Z</time>
      </trkpt>
      <trkpt lat="45.997314713895321" lon="8.144328435882926">
        <ele>1016.4</ele>
        <time>2022-01-06T10:23:36Z</time>
      </trkpt>
      <trkpt lat="45.997355198487639" lon="8.144268924370408">
        <ele>1019.39</ele>
        <time>2022-01-06T10:23:54Z</time>
      </trkpt>
      <trkpt lat="45.997413787990808" lon="8.144230870530009">
        <ele>1022</ele>
        <time>2022-01-06T10:24:10Z</time>
      </trkpt>
      <trkpt lat="45.99745343439281" lon="8.144168090075254">
        <ele>1023.66</ele>
        <time>2022-01-06T10:24:25Z</time>
      </trkpt>
      <trkpt lat="45.997489644214511" lon="8.144122660160065">
        <ele>1026.1700000000001</ele>
        <time>2022-01-06T10:24:41Z</time>
      </trkpt>
      <trkpt lat="45.997517053037882" lon="8.1440794095397">
        <ele>1029.3399999999999</ele>
        <time>2022-01-06T10:25:01Z</time>
      </trkpt>
      <trkpt lat="45.997482351958752" lon="8.144048061221838">
        <ele>1031.2</ele>
        <time>2022-01-06T10:25:18Z</time>
      </trkpt>
      <trkpt lat="45.997464163228869" lon="8.143971618264914">
        <ele>1033.53</ele>
        <time>2022-01-06T10:25:33Z</time>
      </trkpt>
      <trkpt lat="45.997437005862594" lon="8.143911184743047">
        <ele>1035.7</ele>
        <time>2022-01-06T10:25:50Z</time>
      </trkpt>
      <trkpt lat="45.997424097731709" lon="8.143853601068258">
        <ele>1037.6700000000001</ele>
        <time>2022-01-06T10:26:04Z</time>
      </trkpt>
      <trkpt lat="45.997439688071609" lon="8.143780427053571">
        <ele>1040.0699999999999</ele>
        <time>2022-01-06T10:26:24Z</time>
      </trkpt>
      <trkpt lat="45.997455781325698" lon="8.143752431496978">
        <ele>1040.9400000000001</ele>
        <time>2022-01-06T10:26:44Z</time>
      </trkpt>
      <trkpt lat="45.997502049431205" lon="8.143717646598816">
        <ele>1043.3299999999999</ele>
        <time>2022-01-06T10:26:58Z</time>
      </trkpt>
      <trkpt lat="45.997536415234208" lon="8.143716137856245">
        <ele>1043.3299999999999</ele>
        <time>2022-01-06T10:27:15Z</time>
      </trkpt>
      <trkpt lat="45.99758293479681" lon="8.143711192533374">
        <ele>1043.74</ele>
        <time>2022-01-06T10:27:35Z</time>
      </trkpt>
      <trkpt lat="45.997617719694972" lon="8.143709432333708">
        <ele>1043.79</ele>
        <time>2022-01-06T10:27:57Z</time>
      </trkpt>
      <trkpt lat="45.997613864019513" lon="8.14368755556643">
        <ele>1044.26</ele>
        <time>2022-01-06T10:28:30Z</time>
      </trkpt>
      <trkpt lat="45.997583940625191" lon="8.143678503111005">
        <ele>1044.22</ele>
        <time>2022-01-06T10:28:53Z</time>
      </trkpt>
      <trkpt lat="45.997570194303989" lon="8.143671043217182">
        <ele>1044.74</ele>
        <time>2022-01-06T10:29:09Z</time>
      </trkpt>
      <trkpt lat="45.997571786865592" lon="8.143703145906329">
        <ele>1044.46</ele>
        <time>2022-01-06T10:29:27Z</time>
      </trkpt>
      <trkpt lat="45.997583353891969" lon="8.143760394304991">
        <ele>1043.3499999999999</ele>
        <time>2022-01-06T10:29:38Z</time>
      </trkpt>
      <trkpt lat="45.99756340496242" lon="8.143774894997478">
        <ele>1043.5699999999999</ele>
        <time>2022-01-06T10:29:55Z</time>
      </trkpt>
      <trkpt lat="45.99754479713738" lon="8.143782187253237">
        <ele>1043.6900000000001</ele>
        <time>2022-01-06T10:30:17Z</time>
      </trkpt>
      <trkpt lat="45.997536666691303" lon="8.143781013786793">
        <ele>1043.47</ele>
        <time>2022-01-06T10:30:36Z</time>
      </trkpt>
      <trkpt lat="45.997531889006495" lon="8.143770284950733">
        <ele>1043.6600000000001</ele>
        <time>2022-01-06T10:30:59Z</time>
      </trkpt>
      <trkpt lat="45.997521243989468" lon="8.143762825056911">
        <ele>1045.0899999999999</ele>
        <time>2022-01-06T10:31:14Z</time>
      </trkpt>
      <trkpt lat="45.997519986703992" lon="8.143753269687295">
        <ele>1043.8199999999999</ele>
        <time>2022-01-06T10:31:16Z</time>
      </trkpt>
      <trkpt lat="45.99751453846693" lon="8.143764501437545">
        <ele>1044.0899999999999</ele>
        <time>2022-01-06T10:31:36Z</time>
      </trkpt>
      <trkpt lat="45.99750766530633" lon="8.143768608570099">
        <ele>1044.4400000000001</ele>
        <time>2022-01-06T10:32:02Z</time>
      </trkpt>
      <trkpt lat="45.997505905106664" lon="8.143770704045892">
        <ele>1044.3399999999999</ele>
        <time>2022-01-06T10:32:19Z</time>
      </trkpt>
      <trkpt lat="45.997509341686964" lon="8.143775565549731">
        <ele>1044.6400000000001</ele>
        <time>2022-01-06T10:32:37Z</time>
      </trkpt>
      <trkpt lat="45.997514119371772" lon="8.143761232495308">
        <ele>1044.4200000000001</ele>
        <time>2022-01-06T10:32:55Z</time>
      </trkpt>
      <trkpt lat="45.997523171827197" lon="8.143759472295642">
        <ele>1045.02</ele>
        <time>2022-01-06T10:33:22Z</time>
      </trkpt>
      <trkpt lat="45.997516885399818" lon="8.143747402355075">
        <ele>1044.9400000000001</ele>
        <time>2022-01-06T10:33:54Z</time>
      </trkpt>
      <trkpt lat="45.99750037305057" lon="8.143728040158749">
        <ele>1045.7</ele>
        <time>2022-01-06T10:34:13Z</time>
      </trkpt>
      <trkpt lat="45.99749349988997" lon="8.143761483952403">
        <ele>1045.8699999999999</ele>
        <time>2022-01-06T10:34:42Z</time>
      </trkpt>
      <trkpt lat="45.997505653649569" lon="8.143801800906658">
        <ele>1046.25</ele>
        <time>2022-01-06T10:35:05Z</time>
      </trkpt>
      <trkpt lat="45.997509760782123" lon="8.143787635490298">
        <ele>1046.49</ele>
        <time>2022-01-06T10:35:32Z</time>
      </trkpt>
      <trkpt lat="45.997499534860253" lon="8.143786964938045">
        <ele>1046.28</ele>
        <time>2022-01-06T10:35:59Z</time>
      </trkpt>
      <trkpt lat="45.997485788539052" lon="8.143790736794472">
        <ele>1046.6900000000001</ele>
        <time>2022-01-06T10:36:21Z</time>
      </trkpt>
      <trkpt lat="45.99748813547194" lon="8.143780846148729">
        <ele>1046.6199999999999</ele>
        <time>2022-01-06T10:36:40Z</time>
      </trkpt>
      <trkpt lat="45.997501630336046" lon="8.143779002130032">
        <ele>1047.26</ele>
        <time>2022-01-06T10:37:07Z</time>
      </trkpt>
      <trkpt lat="45.997502636164427" lon="8.143760645762086">
        <ele>1047.1099999999999</ele>
        <time>2022-01-06T10:37:26Z</time>
      </trkpt>
      <trkpt lat="45.997515041381121" lon="8.143717981874943">
        <ele>1047.3199999999999</ele>
        <time>2022-01-06T10:37:45Z</time>
      </trkpt>
      <trkpt lat="45.997497271746397" lon="8.143699457868934">
        <ele>1047.3399999999999</ele>
        <time>2022-01-06T10:38:06Z</time>
      </trkpt>
      <trkpt lat="45.997508084401488" lon="8.143705995753408">
        <ele>1047.27</ele>
        <time>2022-01-06T10:38:28Z</time>
      </trkpt>
      <trkpt lat="45.997516298666596" lon="8.143697278574109">
        <ele>1047.45</ele>
        <time>2022-01-06T10:38:54Z</time>
      </trkpt>
      <trkpt lat="45.997517975047231" lon="8.14369099214673">
        <ele>1047.78</ele>
        <time>2022-01-06T10:39:12Z</time>
      </trkpt>
      <trkpt lat="45.997549071907997" lon="8.143625278025866">
        <ele>1049.0599999999999</ele>
        <time>2022-01-06T10:39:30Z</time>
      </trkpt>
      <trkpt lat="45.997592154890299" lon="8.143559396266937">
        <ele>1051.0599999999999</ele>
        <time>2022-01-06T10:39:46Z</time>
      </trkpt>
      <trkpt lat="45.997629705816507" lon="8.143514050170779">
        <ele>1051.8</ele>
        <time>2022-01-06T10:40:01Z</time>
      </trkpt>
      <trkpt lat="45.997634818777442" lon="8.143450263887644">
        <ele>1054.8800000000001</ele>
        <time>2022-01-06T10:40:16Z</time>
      </trkpt>
      <trkpt lat="45.997613193467259" lon="8.143392680212855">
        <ele>1055.9400000000001</ele>
        <time>2022-01-06T10:40:31Z</time>
      </trkpt>
      <trkpt lat="45.997582180425525" lon="8.143329480662942">
        <ele>1058.49</ele>
        <time>2022-01-06T10:40:47Z</time>
      </trkpt>
      <trkpt lat="45.997539097443223" lon="8.143236692994833">
        <ele>1061.46</ele>
        <time>2022-01-06T10:41:05Z</time>
      </trkpt>
      <trkpt lat="45.997568015009165" lon="8.143176762387157">
        <ele>1063.9200000000001</ele>
        <time>2022-01-06T10:41:19Z</time>
      </trkpt>
      <trkpt lat="45.997600704431534" lon="8.143101576715708">
        <ele>1067.03</ele>
        <time>2022-01-06T10:41:35Z</time>
      </trkpt>
      <trkpt lat="45.997637333348393" lon="8.143024882301688">
        <ele>1070.1099999999999</ele>
        <time>2022-01-06T10:41:52Z</time>
      </trkpt>
      <trkpt lat="45.997694581747055" lon="8.142954641953111">
        <ele>1073.1300000000001</ele>
        <time>2022-01-06T10:42:07Z</time>
      </trkpt>
      <trkpt lat="45.997745376080275" lon="8.142899321392179">
        <ele>1075.3599999999999</ele>
        <time>2022-01-06T10:42:21Z</time>
      </trkpt>
      <trkpt lat="45.997791225090623" lon="8.142842995002866">
        <ele>1078.1900000000001</ele>
        <time>2022-01-06T10:42:38Z</time>
      </trkpt>
      <trkpt lat="45.997866662219167" lon="8.142768228426576">
        <ele>1080.98</ele>
        <time>2022-01-06T10:42:56Z</time>
      </trkpt>
      <trkpt lat="45.997941847890615" lon="8.142734449356794">
        <ele>1082.6500000000001</ele>
        <time>2022-01-06T10:43:08Z</time>
      </trkpt>
      <trkpt lat="45.997997419908643" lon="8.14269807189703">
        <ele>1084.77</ele>
        <time>2022-01-06T10:43:21Z</time>
      </trkpt>
      <trkpt lat="45.998071767389774" lon="8.142630262300372">
        <ele>1086.6500000000001</ele>
        <time>2022-01-06T10:43:37Z</time>
      </trkpt>
      <trkpt lat="45.99815902300179" lon="8.142622886225581">
        <ele>1088.95</ele>
        <time>2022-01-06T10:43:54Z</time>
      </trkpt>
      <trkpt lat="45.998243596404791" lon="8.142564296722412">
        <ele>1090.96</ele>
        <time>2022-01-06T10:44:07Z</time>
      </trkpt>
      <trkpt lat="45.998272513970733" lon="8.142521800473332">
        <ele>1092.4100000000001</ele>
        <time>2022-01-06T10:44:20Z</time>
      </trkpt>
      <trkpt lat="45.998305035755038" lon="8.142474191263318">
        <ele>1094.4300000000001</ele>
        <time>2022-01-06T10:44:34Z</time>
      </trkpt>
      <trkpt lat="45.998402684926987" lon="8.142435634508729">
        <ele>1095.6199999999999</ele>
        <time>2022-01-06T10:44:47Z</time>
      </trkpt>
      <trkpt lat="45.998479295521975" lon="8.142404370009899">
        <ele>1097.04</ele>
        <time>2022-01-06T10:44:59Z</time>
      </trkpt>
      <trkpt lat="45.998535789549351" lon="8.142332369461656">
        <ele>1099.26</ele>
        <time>2022-01-06T10:45:13Z</time>
      </trkpt>
      <trkpt lat="45.998569736257195" lon="8.142255507409573">
        <ele>1102.1500000000001</ele>
        <time>2022-01-06T10:45:28Z</time>
      </trkpt>
      <trkpt lat="45.998615249991417" lon="8.142180908471346">
        <ele>1104.98</ele>
        <time>2022-01-06T10:45:44Z</time>
      </trkpt>
      <trkpt lat="45.998682305216789" lon="8.142129024490714">
        <ele>1107.52</ele>
        <time>2022-01-06T10:45:59Z</time>
      </trkpt>
      <trkpt lat="45.998739972710609" lon="8.142067082226276">
        <ele>1110.3699999999999</ele>
        <time>2022-01-06T10:46:17Z</time>
      </trkpt>
      <trkpt lat="45.998808033764362" lon="8.142012683674693">
        <ele>1112.52</ele>
        <time>2022-01-06T10:46:32Z</time>
      </trkpt>
      <trkpt lat="45.998906018212438" lon="8.141975803300738">
        <ele>1115.3199999999999</ele>
        <time>2022-01-06T10:46:47Z</time>
      </trkpt>
      <trkpt lat="45.998964356258512" lon="8.141893409192562">
        <ele>1117.8299999999999</ele>
        <time>2022-01-06T10:47:03Z</time>
      </trkpt>
      <trkpt lat="45.998959578573704" lon="8.141842782497406">
        <ele>1119.6600000000001</ele>
        <time>2022-01-06T10:47:18Z</time>
      </trkpt>
      <trkpt lat="45.998944574967027" lon="8.141752425581217">
        <ele>1122.22</ele>
        <time>2022-01-06T10:47:34Z</time>
      </trkpt>
      <trkpt lat="45.998995453119278" lon="8.14166609197855">
        <ele>1123.6800000000001</ele>
        <time>2022-01-06T10:47:46Z</time>
      </trkpt>
      <trkpt lat="45.999038619920611" lon="8.141581015661359">
        <ele>1126.3399999999999</ele>
        <time>2022-01-06T10:48:04Z</time>
      </trkpt>
      <trkpt lat="45.999081283807755" lon="8.141528628766537">
        <ele>1128.26</ele>
        <time>2022-01-06T10:48:18Z</time>
      </trkpt>
      <trkpt lat="45.999098885804415" lon="8.141507506370544">
        <ele>1128.9300000000001</ele>
        <time>2022-01-06T10:48:28Z</time>
      </trkpt>
      <trkpt lat="45.99918027408421" lon="8.141404073685408">
        <ele>1129.6400000000001</ele>
        <time>2022-01-06T10:48:42Z</time>
      </trkpt>
      <trkpt lat="45.99924623966217" lon="8.141311453655362">
        <ele>1131.1500000000001</ele>
        <time>2022-01-06T10:48:56Z</time>
      </trkpt>
      <trkpt lat="45.999289071187377" lon="8.141238363459706">
        <ele>1133.3</ele>
        <time>2022-01-06T10:49:08Z</time>
      </trkpt>
      <trkpt lat="45.999339278787374" lon="8.141097715124488">
        <ele>1134.73</ele>
        <time>2022-01-06T10:49:22Z</time>
      </trkpt>
      <trkpt lat="45.999355455860496" lon="8.141042143106461">
        <ele>1135.1700000000001</ele>
        <time>2022-01-06T10:49:34Z</time>
      </trkpt>
      <trkpt lat="45.99940306507051" lon="8.140933848917484">
        <ele>1137.0899999999999</ele>
        <time>2022-01-06T10:49:48Z</time>
      </trkpt>
      <trkpt lat="45.999391917139292" lon="8.140904847532511">
        <ele>1137.8399999999999</ele>
        <time>2022-01-06T10:50:05Z</time>
      </trkpt>
      <trkpt lat="45.999394347891212" lon="8.140894286334515">
        <ele>1137.8699999999999</ele>
        <time>2022-01-06T10:50:23Z</time>
      </trkpt>
      <trkpt lat="45.999412871897221" lon="8.140917336568236">
        <ele>1137.8900000000001</ele>
        <time>2022-01-06T10:50:51Z</time>
      </trkpt>
      <trkpt lat="45.999413961544633" lon="8.140826728194952">
        <ele>1139.6400000000001</ele>
        <time>2022-01-06T10:51:03Z</time>
      </trkpt>
      <trkpt lat="45.999347744509578" lon="8.140760930255055">
        <ele>1142.55</ele>
        <time>2022-01-06T10:51:16Z</time>
      </trkpt>
      <trkpt lat="45.999322347342968" lon="8.140612067654729">
        <ele>1145.6900000000001</ele>
        <time>2022-01-06T10:51:31Z</time>
      </trkpt>
      <trkpt lat="45.999300805851817" lon="8.140475023537874">
        <ele>1147.23</ele>
        <time>2022-01-06T10:51:44Z</time>
      </trkpt>
      <trkpt lat="45.999282281845808" lon="8.1403580121696">
        <ele>1149.99</ele>
        <time>2022-01-06T10:51:59Z</time>
      </trkpt>
      <trkpt lat="45.999286221340299" lon="8.140226248651743">
        <ele>1151.3599999999999</ele>
        <time>2022-01-06T10:52:12Z</time>
      </trkpt>
      <trkpt lat="45.999279348179698" lon="8.140077469870448">
        <ele>1154.03</ele>
        <time>2022-01-06T10:52:27Z</time>
      </trkpt>
      <trkpt lat="45.999233918264508" lon="8.139941347762942">
        <ele>1156.4000000000001</ele>
        <time>2022-01-06T10:52:42Z</time>
      </trkpt>
      <trkpt lat="45.999219752848148" lon="8.139826264232397">
        <ele>1158.78</ele>
        <time>2022-01-06T10:52:56Z</time>
      </trkpt>
      <trkpt lat="45.999246574938297" lon="8.139717048034072">
        <ele>1159.9400000000001</ele>
        <time>2022-01-06T10:53:12Z</time>
      </trkpt>
      <trkpt lat="45.999247580766678" lon="8.13958796672523">
        <ele>1161.96</ele>
        <time>2022-01-06T10:53:26Z</time>
      </trkpt>
      <trkpt lat="45.999240875244141" lon="8.139459891244769">
        <ele>1164.3599999999999</ele>
        <time>2022-01-06T10:53:42Z</time>
      </trkpt>
      <trkpt lat="45.999241210520267" lon="8.139390992000699">
        <ele>1167.3800000000001</ele>
        <time>2022-01-06T10:53:54Z</time>
      </trkpt>
      <trkpt lat="45.999232660979033" lon="8.139284206554294">
        <ele>1170.1400000000001</ele>
        <time>2022-01-06T10:54:11Z</time>
      </trkpt>
      <trkpt lat="45.999255543574691" lon="8.13918974250555">
        <ele>1172.79</ele>
        <time>2022-01-06T10:54:28Z</time>
      </trkpt>
      <trkpt lat="45.999281527474523" lon="8.139084633439779">
        <ele>1175.9300000000001</ele>
        <time>2022-01-06T10:54:46Z</time>
      </trkpt>
      <trkpt lat="45.999261159449816" lon="8.139016153290868">
        <ele>1178.76</ele>
        <time>2022-01-06T10:55:04Z</time>
      </trkpt>
      <trkpt lat="45.999227967113256" lon="8.139001233503223">
        <ele>1181.01</ele>
        <time>2022-01-06T10:55:19Z</time>
      </trkpt>
      <trkpt lat="45.999230397865176" lon="8.138906098902226">
        <ele>1183.79</ele>
        <time>2022-01-06T10:55:36Z</time>
      </trkpt>
      <trkpt lat="45.999224530532956" lon="8.13884130679071">
        <ele>1186.3800000000001</ele>
        <time>2022-01-06T10:55:52Z</time>
      </trkpt>
      <trkpt lat="45.99917440675199" lon="8.138864105567336">
        <ele>1189.1800000000001</ele>
        <time>2022-01-06T10:56:08Z</time>
      </trkpt>
      <trkpt lat="45.999120427295566" lon="8.13885404728353">
        <ele>1192.1500000000001</ele>
        <time>2022-01-06T10:56:25Z</time>
      </trkpt>
      <trkpt lat="45.999051360413432" lon="8.138834265992045">
        <ele>1195.1700000000001</ele>
        <time>2022-01-06T10:56:40Z</time>
      </trkpt>
      <trkpt lat="45.998994614928961" lon="8.138784896582365">
        <ele>1198.4300000000001</ele>
        <time>2022-01-06T10:56:57Z</time>
      </trkpt>
      <trkpt lat="45.999019425362349" lon="8.138686828315258">
        <ele>1201.04</ele>
        <time>2022-01-06T10:57:13Z</time>
      </trkpt>
      <trkpt lat="45.99903266876936" lon="8.138581719249487">
        <ele>1204.1500000000001</ele>
        <time>2022-01-06T10:57:30Z</time>
      </trkpt>
      <trkpt lat="45.999051025137305" lon="8.138503516092897">
        <ele>1207.0899999999999</ele>
        <time>2022-01-06T10:57:48Z</time>
      </trkpt>
      <trkpt lat="45.999037362635136" lon="8.138407459482551">
        <ele>1209.5699999999999</ele>
        <time>2022-01-06T10:58:04Z</time>
      </trkpt>
      <trkpt lat="45.998990591615438" lon="8.138354569673538">
        <ele>1212.1099999999999</ele>
        <time>2022-01-06T10:58:20Z</time>
      </trkpt>
      <trkpt lat="45.998989334329963" lon="8.138290951028466">
        <ele>1214.9400000000001</ele>
        <time>2022-01-06T10:58:38Z</time>
      </trkpt>
      <trkpt lat="45.999008947983384" lon="8.138218615204096">
        <ele>1217.3499999999999</ele>
        <time>2022-01-06T10:58:54Z</time>
      </trkpt>
      <trkpt lat="45.999006684869528" lon="8.138092467561364">
        <ele>1220.05</ele>
        <time>2022-01-06T10:59:10Z</time>
      </trkpt>
      <trkpt lat="45.99901414476335" lon="8.138034716248512">
        <ele>1221.5799999999999</ele>
        <time>2022-01-06T10:59:20Z</time>
      </trkpt>
      <trkpt lat="45.999094694852829" lon="8.137926254421473">
        <ele>1224.8599999999999</ele>
        <time>2022-01-06T10:59:40Z</time>
      </trkpt>
      <trkpt lat="45.999157894402742" lon="8.13782500103116">
        <ele>1227.8599999999999</ele>
        <time>2022-01-06T10:59:55Z</time>
      </trkpt>
      <trkpt lat="45.999220004305243" lon="8.137788875028491">
        <ele>1230.28</ele>
        <time>2022-01-06T11:00:12Z</time>
      </trkpt>
      <trkpt lat="45.999271385371685" lon="8.137705391272903">
        <ele>1233.29</ele>
        <time>2022-01-06T11:00:30Z</time>
      </trkpt>
      <trkpt lat="45.999263003468513" lon="8.137643616646528">
        <ele>1235.9200000000001</ele>
        <time>2022-01-06T11:00:45Z</time>
      </trkpt>
      <trkpt lat="45.99921053275466" lon="8.137627774849534">
        <ele>1237.6600000000001</ele>
        <time>2022-01-06T11:01:00Z</time>
      </trkpt>
      <trkpt lat="45.99913333542645" lon="8.137595839798451">
        <ele>1240.54</ele>
        <time>2022-01-06T11:01:15Z</time>
      </trkpt>
      <trkpt lat="45.999059909954667" lon="8.137578405439854">
        <ele>1241.6900000000001</ele>
        <time>2022-01-06T11:01:27Z</time>
      </trkpt>
      <trkpt lat="45.998975336551666" lon="8.137542866170406">
        <ele>1243.8199999999999</ele>
        <time>2022-01-06T11:01:43Z</time>
      </trkpt>
      <trkpt lat="45.998931750655174" lon="8.137461477890611">
        <ele>1246.9300000000001</ele>
        <time>2022-01-06T11:01:58Z</time>
      </trkpt>
      <trkpt lat="45.998868551105261" lon="8.137378161773086">
        <ele>1249.74</ele>
        <time>2022-01-06T11:02:14Z</time>
      </trkpt>
      <trkpt lat="45.998821947723627" lon="8.137307837605476">
        <ele>1252.6199999999999</ele>
        <time>2022-01-06T11:02:28Z</time>
      </trkpt>
      <trkpt lat="45.998749863356352" lon="8.1371961068362">
        <ele>1255.8</ele>
        <time>2022-01-06T11:02:47Z</time>
      </trkpt>
      <trkpt lat="45.998705942183733" lon="8.137087477371097">
        <ele>1258.28</ele>
        <time>2022-01-06T11:03:02Z</time>
      </trkpt>
      <trkpt lat="45.998667804524302" lon="8.137039532884955">
        <ele>1259.52</ele>
        <time>2022-01-06T11:03:13Z</time>
      </trkpt>
      <trkpt lat="45.998597983270884" lon="8.136973148211837">
        <ele>1261.3</ele>
        <time>2022-01-06T11:03:28Z</time>
      </trkpt>
      <trkpt lat="45.998534951359034" lon="8.136899387463927">
        <ele>1263.28</ele>
        <time>2022-01-06T11:03:42Z</time>
      </trkpt>
      <trkpt lat="45.998498070985079" lon="8.136803833767772">
        <ele>1266.4100000000001</ele>
        <time>2022-01-06T11:03:57Z</time>
      </trkpt>
      <trkpt lat="45.998471332713962" lon="8.136709872633219">
        <ele>1268.5899999999999</ele>
        <time>2022-01-06T11:04:11Z</time>
      </trkpt>
      <trkpt lat="45.998428165912628" lon="8.136615240946412">
        <ele>1271.8299999999999</ele>
        <time>2022-01-06T11:04:28Z</time>
      </trkpt>
      <trkpt lat="45.998374186456203" lon="8.136540809646249">
        <ele>1274.9200000000001</ele>
        <time>2022-01-06T11:04:46Z</time>
      </trkpt>
      <trkpt lat="45.998408803716302" lon="8.136444166302681">
        <ele>1277.97</ele>
        <time>2022-01-06T11:05:04Z</time>
      </trkpt>
      <trkpt lat="45.998378209769726" lon="8.136360766366124">
        <ele>1280.0599999999999</ele>
        <time>2022-01-06T11:05:20Z</time>
      </trkpt>
      <trkpt lat="45.998324733227491" lon="8.136255741119385">
        <ele>1282.3299999999999</ele>
        <time>2022-01-06T11:05:36Z</time>
      </trkpt>
      <trkpt lat="45.998269831761718" lon="8.136164965108037">
        <ele>1282.6400000000001</ele>
        <time>2022-01-06T11:05:49Z</time>
      </trkpt>
      <trkpt lat="45.998196573927999" lon="8.13612112775445">
        <ele>1281.8499999999999</ele>
        <time>2022-01-06T11:06:00Z</time>
      </trkpt>
      <trkpt lat="45.998146282508969" lon="8.136026496067643">
        <ele>1281.4300000000001</ele>
        <time>2022-01-06T11:06:11Z</time>
      </trkpt>
      <trkpt lat="45.998093895614147" lon="8.135972348973155">
        <ele>1280.5999999999999</ele>
        <time>2022-01-06T11:06:24Z</time>
      </trkpt>
      <trkpt lat="45.998089117929339" lon="8.135947789996862">
        <ele>1280.1300000000001</ele>
        <time>2022-01-06T11:06:27Z</time>
      </trkpt>
      <trkpt lat="45.998029438778758" lon="8.135875035077334">
        <ele>1279.79</ele>
        <time>2022-01-06T11:06:37Z</time>
      </trkpt>
      <trkpt lat="45.997998006641865" lon="8.135834634304047">
        <ele>1279.52</ele>
        <time>2022-01-06T11:06:41Z</time>
      </trkpt>
      <trkpt lat="45.99798166193068" lon="8.135800939053297">
        <ele>1279.6900000000001</ele>
        <time>2022-01-06T11:06:44Z</time>
      </trkpt>
      <trkpt lat="45.997917205095291" lon="8.135673031210899">
        <ele>1280.48</ele>
        <time>2022-01-06T11:06:56Z</time>
      </trkpt>
      <trkpt lat="45.997862555086613" lon="8.13555627129972">
        <ele>1281.5799999999999</ele>
        <time>2022-01-06T11:07:09Z</time>
      </trkpt>
      <trkpt lat="45.997821902856231" lon="8.135475805029273">
        <ele>1282.8199999999999</ele>
        <time>2022-01-06T11:07:24Z</time>
      </trkpt>
      <trkpt lat="45.997820645570755" lon="8.135481253266335">
        <ele>1283.28</ele>
        <time>2022-01-06T11:07:29Z</time>
      </trkpt>
      <trkpt lat="45.997833218425512" lon="8.135467590764165">
        <ele>1283.26</ele>
        <time>2022-01-06T11:07:37Z</time>
      </trkpt>
      <trkpt lat="45.997833972796798" lon="8.135469686239958">
        <ele>1283.27</ele>
        <time>2022-01-06T11:07:52Z</time>
      </trkpt>
      <trkpt lat="45.997848557308316" lon="8.135474883019924">
        <ele>1282.1500000000001</ele>
        <time>2022-01-06T11:08:03Z</time>
      </trkpt>
      <trkpt lat="45.997847970575094" lon="8.135474296286702">
        <ele>1282.3900000000001</ele>
        <time>2022-01-06T11:08:34Z</time>
      </trkpt>
      <trkpt lat="45.997851323336363" lon="8.135483851656318">
        <ele>1282.5799999999999</ele>
        <time>2022-01-06T11:08:55Z</time>
      </trkpt>
      <trkpt lat="45.997860291972756" lon="8.13550153747201">
        <ele>1282.8900000000001</ele>
        <time>2022-01-06T11:09:15Z</time>
      </trkpt>
      <trkpt lat="45.997853418812156" lon="8.135485108941793">
        <ele>1282.97</ele>
        <time>2022-01-06T11:09:33Z</time>
      </trkpt>
      <trkpt lat="45.997866913676262" lon="8.135480415076017">
        <ele>1282.5999999999999</ele>
        <time>2022-01-06T11:09:49Z</time>
      </trkpt>
      <trkpt lat="45.997838582843542" lon="8.135499693453312">
        <ele>1282.76</ele>
        <time>2022-01-06T11:10:14Z</time>
      </trkpt>
      <trkpt lat="45.997806480154395" lon="8.135491143912077">
        <ele>1282.75</ele>
        <time>2022-01-06T11:10:37Z</time>
      </trkpt>
      <trkpt lat="45.997810754925013" lon="8.135499944910407">
        <ele>1282.8699999999999</ele>
        <time>2022-01-06T11:11:02Z</time>
      </trkpt>
      <trkpt lat="45.997827351093292" lon="8.135502375662327">
        <ele>1282.8199999999999</ele>
        <time>2022-01-06T11:11:27Z</time>
      </trkpt>
      <trkpt lat="45.997809832915664" lon="8.135535316541791">
        <ele>1283.1199999999999</ele>
        <time>2022-01-06T11:11:52Z</time>
      </trkpt>
      <trkpt lat="45.997819220647216" lon="8.135525090619922">
        <ele>1282.8599999999999</ele>
        <time>2022-01-06T11:11:54Z</time>
      </trkpt>
      <trkpt lat="45.997841097414494" lon="8.135483851656318">
        <ele>1283.98</ele>
        <time>2022-01-06T11:12:07Z</time>
      </trkpt>
      <trkpt lat="45.997826512902975" lon="8.135486952960491">
        <ele>1282.8900000000001</ele>
        <time>2022-01-06T11:12:18Z</time>
      </trkpt>
      <trkpt lat="45.997822238132358" lon="8.135482342913747">
        <ele>1283.21</ele>
        <time>2022-01-06T11:12:24Z</time>
      </trkpt>
      <trkpt lat="45.997845036908984" lon="8.135440684854984">
        <ele>1283.1300000000001</ele>
        <time>2022-01-06T11:12:33Z</time>
      </trkpt>
      <trkpt lat="45.997845456004143" lon="8.135436158627272">
        <ele>1283.1800000000001</ele>
        <time>2022-01-06T11:12:42Z</time>
      </trkpt>
      <trkpt lat="45.99783699028194" lon="8.135464070364833">
        <ele>1283.04</ele>
        <time>2022-01-06T11:12:53Z</time>
      </trkpt>
      <trkpt lat="45.997828440740705" lon="8.135469267144799">
        <ele>1282.78</ele>
        <time>2022-01-06T11:12:58Z</time>
      </trkpt>
      <trkpt lat="45.997825171798468" lon="8.135470524430275">
        <ele>1282.8499999999999</ele>
        <time>2022-01-06T11:13:04Z</time>
      </trkpt>
      <trkpt lat="45.997805139049888" lon="8.135495334863663">
        <ele>1283.1500000000001</ele>
        <time>2022-01-06T11:13:19Z</time>
      </trkpt>
      <trkpt lat="45.997826848179102" lon="8.135507069528103">
        <ele>1283.75</ele>
        <time>2022-01-06T11:14:06Z</time>
      </trkpt>
      <trkpt lat="45.997834727168083" lon="8.135486030951142">
        <ele>1283.48</ele>
        <time>2022-01-06T11:14:51Z</time>
      </trkpt>
      <trkpt lat="45.997831458225846" lon="8.135472955182195">
        <ele>1284.02</ele>
        <time>2022-01-06T11:15:26Z</time>
      </trkpt>
      <trkpt lat="45.997816622257233" lon="8.135509919375181">
        <ele>1283.96</ele>
        <time>2022-01-06T11:15:45Z</time>
      </trkpt>
      <trkpt lat="45.997836738824844" lon="8.135499777272344">
        <ele>1284.71</ele>
        <time>2022-01-06T11:16:17Z</time>
      </trkpt>
      <trkpt lat="45.997830620035529" lon="8.135497597977519">
        <ele>1284.77</ele>
        <time>2022-01-06T11:16:50Z</time>
      </trkpt>
      <trkpt lat="45.997836738824844" lon="8.13549080863595">
        <ele>1285.25</ele>
        <time>2022-01-06T11:17:21Z</time>
      </trkpt>
      <trkpt lat="45.997789883986115" lon="8.135496005415916">
        <ele>1285.47</ele>
        <time>2022-01-06T11:17:54Z</time>
      </trkpt>
      <trkpt lat="45.997789716348052" lon="8.135494077578187">
        <ele>1285.8599999999999</ele>
        <time>2022-01-06T11:18:28Z</time>
      </trkpt>
      <trkpt lat="45.997803043574095" lon="8.13551134429872">
        <ele>1285.9300000000001</ele>
        <time>2022-01-06T11:18:59Z</time>
      </trkpt>
      <trkpt lat="45.99779449403286" lon="8.135482845827937">
        <ele>1286.3599999999999</ele>
        <time>2022-01-06T11:19:37Z</time>
      </trkpt>
      <trkpt lat="45.997842941433191" lon="8.135504303500056">
        <ele>1286.53</ele>
        <time>2022-01-06T11:20:13Z</time>
      </trkpt>
      <trkpt lat="45.99781989119947" lon="8.135504890233278">
        <ele>1286.6900000000001</ele>
        <time>2022-01-06T11:20:50Z</time>
      </trkpt>
      <trkpt lat="45.997821567580104" lon="8.135486450046301">
        <ele>1286.7</ele>
        <time>2022-01-06T11:21:16Z</time>
      </trkpt>
      <trkpt lat="45.997807653620839" lon="8.135489886626601">
        <ele>1286.8199999999999</ele>
        <time>2022-01-06T11:21:55Z</time>
      </trkpt>
      <trkpt lat="45.997804719954729" lon="8.135484689846635">
        <ele>1287.03</ele>
        <time>2022-01-06T11:22:25Z</time>
      </trkpt>
      <trkpt lat="45.997831374406815" lon="8.135501705110073">
        <ele>1287.3699999999999</ele>
        <time>2022-01-06T11:22:45Z</time>
      </trkpt>
      <trkpt lat="45.997824417427182" lon="8.135536657646298">
        <ele>1287.3900000000001</ele>
        <time>2022-01-06T11:23:06Z</time>
      </trkpt>
      <trkpt lat="45.997842606157064" lon="8.135537998750806">
        <ele>1287.3199999999999</ele>
        <time>2022-01-06T11:23:33Z</time>
      </trkpt>
      <trkpt lat="45.99784922786057" lon="8.135521905496717">
        <ele>1287.6500000000001</ele>
        <time>2022-01-06T11:24:11Z</time>
      </trkpt>
      <trkpt lat="45.997849814593792" lon="8.13551327213645">
        <ele>1287.54</ele>
        <time>2022-01-06T11:24:53Z</time>
      </trkpt>
      <trkpt lat="45.997858364135027" lon="8.13550983555615">
        <ele>1287.29</ele>
        <time>2022-01-06T11:25:32Z</time>
      </trkpt>
      <trkpt lat="45.997879905626178" lon="8.135523246601224">
        <ele>1287.6099999999999</ele>
        <time>2022-01-06T11:26:16Z</time>
      </trkpt>
      <trkpt lat="45.997846880927682" lon="8.135523246601224">
        <ele>1287.73</ele>
        <time>2022-01-06T11:26:53Z</time>
      </trkpt>
      <trkpt lat="45.997874205932021" lon="8.135539088398218">
        <ele>1287.6500000000001</ele>
        <time>2022-01-06T11:27:31Z</time>
      </trkpt>
      <trkpt lat="45.997876217588782" lon="8.135541519150138">
        <ele>1287.78</ele>
        <time>2022-01-06T11:28:02Z</time>
      </trkpt>
      <trkpt lat="45.997859872877598" lon="8.135524755343795">
        <ele>1287.5699999999999</ele>
        <time>2022-01-06T11:28:37Z</time>
      </trkpt>
      <trkpt lat="45.997854927554727" lon="8.135497514158487">
        <ele>1287.99</ele>
        <time>2022-01-06T11:29:11Z</time>
      </trkpt>
      <trkpt lat="45.997829446569085" lon="8.135493909940124">
        <ele>1288.1400000000001</ele>
        <time>2022-01-06T11:29:51Z</time>
      </trkpt>
      <trkpt lat="45.997859369963408" lon="8.135507069528103">
        <ele>1288.27</ele>
        <time>2022-01-06T11:30:22Z</time>
      </trkpt>
      <trkpt lat="45.997877642512321" lon="8.135511847212911">
        <ele>1288.22</ele>
        <time>2022-01-06T11:30:53Z</time>
      </trkpt>
      <trkpt lat="45.997850233688951" lon="8.135529030114412">
        <ele>1288.3599999999999</ele>
        <time>2022-01-06T11:31:21Z</time>
      </trkpt>
      <trkpt lat="45.997867751866579" lon="8.135534813627601">
        <ele>1288.55</ele>
        <time>2022-01-06T11:31:54Z</time>
      </trkpt>
      <trkpt lat="45.99781695753336" lon="8.135537160560489">
        <ele>1288.53</ele>
        <time>2022-01-06T11:32:33Z</time>
      </trkpt>
      <trkpt lat="45.997839001938701" lon="8.135543279349804">
        <ele>1288.78</ele>
        <time>2022-01-06T11:32:55Z</time>
      </trkpt>
      <trkpt lat="45.997867584228516" lon="8.135523162782192">
        <ele>1288.52</ele>
        <time>2022-01-06T11:33:29Z</time>
      </trkpt>
      <trkpt lat="45.997862974181771" lon="8.135520145297051">
        <ele>1288.48</ele>
        <time>2022-01-06T11:34:11Z</time>
      </trkpt>
      <trkpt lat="45.997853754088283" lon="8.13551427796483">
        <ele>1288.3499999999999</ele>
        <time>2022-01-06T11:34:45Z</time>
      </trkpt>
      <trkpt lat="45.997839253395796" lon="8.135512014850974">
        <ele>1288.6500000000001</ele>
        <time>2022-01-06T11:35:18Z</time>
      </trkpt>
      <trkpt lat="45.99784386344254" lon="8.135498519986868">
        <ele>1288.4100000000001</ele>
        <time>2022-01-06T11:35:56Z</time>
      </trkpt>
      <trkpt lat="45.997889712452888" lon="8.135519893839955">
        <ele>1288.4000000000001</ele>
        <time>2022-01-06T11:36:29Z</time>
      </trkpt>
      <trkpt lat="45.997866075485945" lon="8.135539339855313">
        <ele>1288.8199999999999</ele>
        <time>2022-01-06T11:37:12Z</time>
      </trkpt>
      <trkpt lat="45.99786439910531" lon="8.135527018457651">
        <ele>1288.8900000000001</ele>
        <time>2022-01-06T11:37:51Z</time>
      </trkpt>
      <trkpt lat="45.997891221195459" lon="8.135522743687034">
        <ele>1288.5</ele>
        <time>2022-01-06T11:38:22Z</time>
      </trkpt>
      <trkpt lat="45.997878229245543" lon="8.135531628504396">
        <ele>1288.73</ele>
        <time>2022-01-06T11:38:52Z</time>
      </trkpt>
      <trkpt lat="45.99787269718945" lon="8.135520899668336">
        <ele>1288.9300000000001</ele>
        <time>2022-01-06T11:39:25Z</time>
      </trkpt>
      <trkpt lat="45.997850317507982" lon="8.135517295449972">
        <ele>1288.9000000000001</ele>
        <time>2022-01-06T11:39:52Z</time>
      </trkpt>
      <trkpt lat="45.997863560914993" lon="8.135513942688704">
        <ele>1288.8399999999999</ele>
        <time>2022-01-06T11:40:11Z</time>
      </trkpt>
      <trkpt lat="45.997872864827514" lon="8.135518385097385">
        <ele>1289.1099999999999</ele>
        <time>2022-01-06T11:40:32Z</time>
      </trkpt>
      <trkpt lat="45.997894741594791" lon="8.13552157022059">
        <ele>1289.3599999999999</ele>
        <time>2022-01-06T11:40:54Z</time>
      </trkpt>
      <trkpt lat="45.997894490137696" lon="8.135534729808569">
        <ele>1289.3399999999999</ele>
        <time>2022-01-06T11:41:26Z</time>
      </trkpt>
      <trkpt lat="45.997903039678931" lon="8.135544620454311">
        <ele>1289.23</ele>
        <time>2022-01-06T11:41:57Z</time>
      </trkpt>
      <trkpt lat="45.997909661382437" lon="8.135534645989537">
        <ele>1289.55</ele>
        <time>2022-01-06T11:42:31Z</time>
      </trkpt>
      <trkpt lat="45.997895579785109" lon="8.135528191924095">
        <ele>1289.6500000000001</ele>
        <time>2022-01-06T11:43:08Z</time>
      </trkpt>
      <trkpt lat="45.997921647503972" lon="8.135532299056649">
        <ele>1289.72</ele>
        <time>2022-01-06T11:43:42Z</time>
      </trkpt>
      <trkpt lat="45.997894071042538" lon="8.135536406189203">
        <ele>1289.97</ele>
        <time>2022-01-06T11:44:22Z</time>
      </trkpt>
      <trkpt lat="45.997907314449549" lon="8.135531544685364">
        <ele>1289.6500000000001</ele>
        <time>2022-01-06T11:45:07Z</time>
      </trkpt>
      <trkpt lat="45.99794989451766" lon="8.13550983555615">
        <ele>1290.0699999999999</ele>
        <time>2022-01-06T11:45:32Z</time>
      </trkpt>
      <trkpt lat="45.997899686917663" lon="8.135506231337786">
        <ele>1289.98</ele>
        <time>2022-01-06T11:46:07Z</time>
      </trkpt>
      <trkpt lat="45.99788099527359" lon="8.135523917153478">
        <ele>1290.0999999999999</ele>
        <time>2022-01-06T11:46:44Z</time>
      </trkpt>
      <trkpt lat="45.99787169136107" lon="8.13552743755281">
        <ele>1290.3699999999999</ele>
        <time>2022-01-06T11:47:30Z</time>
      </trkpt>
      <trkpt lat="45.997874038293958" lon="8.13552500680089">
        <ele>1290.28</ele>
        <time>2022-01-06T11:47:47Z</time>
      </trkpt>
      <trkpt lat="45.997894825413823" lon="8.135531879961491">
        <ele>1290.3299999999999</ele>
        <time>2022-01-06T11:47:53Z</time>
      </trkpt>
      <trkpt lat="45.997918713837862" lon="8.135542524978519">
        <ele>1290.3699999999999</ele>
        <time>2022-01-06T11:48:00Z</time>
      </trkpt>
      <trkpt lat="45.997930867597461" lon="8.135538836941123">
        <ele>1290.4100000000001</ele>
        <time>2022-01-06T11:48:07Z</time>
      </trkpt>
      <trkpt lat="45.997920222580433" lon="8.135542692616582">
        <ele>1290.4200000000001</ele>
        <time>2022-01-06T11:48:27Z</time>
      </trkpt>
      <trkpt lat="45.997899100184441" lon="8.135529113933444">
        <ele>1290.4100000000001</ele>
        <time>2022-01-06T11:48:33Z</time>
      </trkpt>
      <trkpt lat="45.997905470430851" lon="8.135527772828937">
        <ele>1290.46</ele>
        <time>2022-01-06T11:48:46Z</time>
      </trkpt>
      <trkpt lat="45.997924832627177" lon="8.135525174438953">
        <ele>1290.3900000000001</ele>
        <time>2022-01-06T11:48:52Z</time>
      </trkpt>
      <trkpt lat="45.997950481250882" lon="8.135523833334446">
        <ele>1290.55</ele>
        <time>2022-01-06T11:49:00Z</time>
      </trkpt>
      <trkpt lat="45.997954923659563" lon="8.135523917153478">
        <ele>1290.74</ele>
        <time>2022-01-06T11:49:07Z</time>
      </trkpt>
      <trkpt lat="45.997917708009481" lon="8.135521737858653">
        <ele>1290.6900000000001</ele>
        <time>2022-01-06T11:49:11Z</time>
      </trkpt>
      <trkpt lat="45.997939500957727" lon="8.135541519150138">
        <ele>1290.96</ele>
        <time>2022-01-06T11:49:32Z</time>
      </trkpt>
      <trkpt lat="45.997925754636526" lon="8.135530706495047">
        <ele>1290.6900000000001</ele>
        <time>2022-01-06T11:49:38Z</time>
      </trkpt>
      <trkpt lat="45.997914439067245" lon="8.135523581877351">
        <ele>1290.8599999999999</ele>
        <time>2022-01-06T11:49:43Z</time>
      </trkpt>
      <trkpt lat="45.997922066599131" lon="8.135524755343795">
        <ele>1290.6900000000001</ele>
        <time>2022-01-06T11:49:49Z</time>
      </trkpt>
      <trkpt lat="45.997846964746714" lon="8.13551964238286">
        <ele>1290.8599999999999</ele>
        <time>2022-01-06T11:50:09Z</time>
      </trkpt>
      <trkpt lat="45.997870014980435" lon="8.135525342077017">
        <ele>1291.02</ele>
        <time>2022-01-06T11:50:20Z</time>
      </trkpt>
      <trkpt lat="45.997897926717997" lon="8.135527940467">
        <ele>1291.2</ele>
        <time>2022-01-06T11:50:41Z</time>
      </trkpt>
      <trkpt lat="45.997925503179431" lon="8.135536406189203">
        <ele>1290.8199999999999</ele>
        <time>2022-01-06T11:50:54Z</time>
      </trkpt>
      <trkpt lat="45.997917372733355" lon="8.135539423674345">
        <ele>1290.96</ele>
        <time>2022-01-06T11:51:03Z</time>
      </trkpt>
      <trkpt lat="45.99793036468327" lon="8.135538334026933">
        <ele>1291.1099999999999</ele>
        <time>2022-01-06T11:51:08Z</time>
      </trkpt>
      <trkpt lat="45.99788585677743" lon="8.135536909103394">
        <ele>1290.8199999999999</ele>
        <time>2022-01-06T11:51:15Z</time>
      </trkpt>
      <trkpt lat="45.997852329164743" lon="8.135527269914746">
        <ele>1290.8800000000001</ele>
        <time>2022-01-06T11:51:23Z</time>
      </trkpt>
      <trkpt lat="45.997881162911654" lon="8.135534645989537">
        <ele>1290.8800000000001</ele>
        <time>2022-01-06T11:51:28Z</time>
      </trkpt>
      <trkpt lat="45.997851993888617" lon="8.135529365390539">
        <ele>1290.8699999999999</ele>
        <time>2022-01-06T11:51:35Z</time>
      </trkpt>
      <trkpt lat="45.997848473489285" lon="8.135551325976849">
        <ele>1290.95</ele>
        <time>2022-01-06T11:51:46Z</time>
      </trkpt>
      <trkpt lat="45.997861800715327" lon="8.135557360947132">
        <ele>1290.8199999999999</ele>
        <time>2022-01-06T11:51:51Z</time>
      </trkpt>
      <trkpt lat="45.997869595885277" lon="8.135555097833276">
        <ele>1290.8499999999999</ele>
        <time>2022-01-06T11:51:57Z</time>
      </trkpt>
      <trkpt lat="45.997851574793458" lon="8.135538585484028">
        <ele>1290.9300000000001</ele>
        <time>2022-01-06T11:52:04Z</time>
      </trkpt>
      <trkpt lat="45.997854089364409" lon="8.135534897446632">
        <ele>1291.05</ele>
        <time>2022-01-06T11:52:11Z</time>
      </trkpt>
      <trkpt lat="45.997879737988114" lon="8.135531293228269">
        <ele>1291.01</ele>
        <time>2022-01-06T11:52:19Z</time>
      </trkpt>
      <trkpt lat="45.997875714674592" lon="8.135532550513744">
        <ele>1291.0899999999999</ele>
        <time>2022-01-06T11:52:58Z</time>
      </trkpt>
      <trkpt lat="45.997874541208148" lon="8.135531879961491">
        <ele>1291.27</ele>
        <time>2022-01-06T11:53:44Z</time>
      </trkpt>
      <trkpt lat="45.997858950868249" lon="8.135531125590205">
        <ele>1291.1800000000001</ele>
        <time>2022-01-06T11:54:30Z</time>
      </trkpt>
      <trkpt lat="45.997866243124008" lon="8.135523833334446">
        <ele>1291.3699999999999</ele>
        <time>2022-01-06T11:55:22Z</time>
      </trkpt>
      <trkpt lat="45.997848054394126" lon="8.135517546907067">
        <ele>1291.45</ele>
        <time>2022-01-06T11:56:05Z</time>
      </trkpt>
      <trkpt lat="45.99786582402885" lon="8.135518385097385">
        <ele>1291.46</ele>
        <time>2022-01-06T11:56:50Z</time>
      </trkpt>
      <trkpt lat="45.997868673875928" lon="8.13553330488503">
        <ele>1291.22</ele>
        <time>2022-01-06T11:57:32Z</time>
      </trkpt>
      <trkpt lat="45.997876385226846" lon="8.135541938245297">
        <ele>1291.3399999999999</ele>
        <time>2022-01-06T11:58:20Z</time>
      </trkpt>
      <trkpt lat="45.997887616977096" lon="8.135541854426265">
        <ele>1291</ele>
        <time>2022-01-06T11:59:06Z</time>
      </trkpt>
      <trkpt lat="45.997890634462237" lon="8.135539842769504">
        <ele>1291</ele>
        <time>2022-01-06T11:59:49Z</time>
      </trkpt>
      <trkpt lat="45.997877642512321" lon="8.135531460866332">
        <ele>1291.25</ele>
        <time>2022-01-06T12:00:28Z</time>
      </trkpt>
      <trkpt lat="45.997861884534359" lon="8.135537495836616">
        <ele>1291.0999999999999</ele>
        <time>2022-01-06T12:01:11Z</time>
      </trkpt>
      <trkpt lat="45.997856268659234" lon="8.135531460866332">
        <ele>1291.28</ele>
        <time>2022-01-06T12:01:49Z</time>
      </trkpt>
      <trkpt lat="45.997871104627848" lon="8.135526934638619">
        <ele>1291.5</ele>
        <time>2022-01-06T12:02:30Z</time>
      </trkpt>
      <trkpt lat="45.997877810150385" lon="8.135527102276683">
        <ele>1291.21</ele>
        <time>2022-01-06T12:02:46Z</time>
      </trkpt>
      <trkpt lat="45.997875463217497" lon="8.135528862476349">
        <ele>1291.45</ele>
        <time>2022-01-06T12:03:27Z</time>
      </trkpt>
      <trkpt lat="45.997872948646545" lon="8.135535819455981">
        <ele>1291.77</ele>
        <time>2022-01-06T12:04:09Z</time>
      </trkpt>
      <trkpt lat="45.997854173183441" lon="8.135547051206231">
        <ele>1291.9000000000001</ele>
        <time>2022-01-06T12:04:49Z</time>
      </trkpt>
      <trkpt lat="45.997864985838532" lon="8.135539926588535">
        <ele>1291.96</ele>
        <time>2022-01-06T12:05:38Z</time>
      </trkpt>
      <trkpt lat="45.99786682985723" lon="8.135521989315748">
        <ele>1291.6400000000001</ele>
        <time>2022-01-06T12:06:26Z</time>
      </trkpt>
      <trkpt lat="45.997861633077264" lon="8.13551670871675">
        <ele>1291.8699999999999</ele>
        <time>2022-01-06T12:07:11Z</time>
      </trkpt>
      <trkpt lat="45.997864902019501" lon="8.135539088398218">
        <ele>1292.0599999999999</ele>
        <time>2022-01-06T12:07:57Z</time>
      </trkpt>
      <trkpt lat="45.997873032465577" lon="8.13555677421391">
        <ele>1292</ele>
        <time>2022-01-06T12:08:45Z</time>
      </trkpt>
      <trkpt lat="45.997879486531019" lon="8.135546045377851">
        <ele>1292.22</ele>
        <time>2022-01-06T12:09:29Z</time>
      </trkpt>
      <trkpt lat="45.99788443185389" lon="8.135539758950472">
        <ele>1292.1300000000001</ele>
        <time>2022-01-06T12:10:09Z</time>
      </trkpt>
      <trkpt lat="45.997878145426512" lon="8.135537663474679">
        <ele>1292</ele>
        <time>2022-01-06T12:10:59Z</time>
      </trkpt>
      <trkpt lat="45.997887449339032" lon="8.135544955730438">
        <ele>1292.29</ele>
        <time>2022-01-06T12:11:48Z</time>
      </trkpt>
      <trkpt lat="45.997890802100301" lon="8.135549984872341">
        <ele>1292.6099999999999</ele>
        <time>2022-01-06T12:12:33Z</time>
      </trkpt>
      <trkpt lat="45.997895328328013" lon="8.135555516928434">
        <ele>1292.48</ele>
        <time>2022-01-06T12:13:23Z</time>
      </trkpt>
      <trkpt lat="45.997883509844542" lon="8.135536322370172">
        <ele>1292.4100000000001</ele>
        <time>2022-01-06T12:14:10Z</time>
      </trkpt>
      <trkpt lat="45.997883258387446" lon="8.135535484179854">
        <ele>1292.4000000000001</ele>
        <time>2022-01-06T12:15:01Z</time>
      </trkpt>
      <trkpt lat="45.99786339327693" lon="8.135534981265664">
        <ele>1291.96</ele>
        <time>2022-01-06T12:15:51Z</time>
      </trkpt>
      <trkpt lat="45.99785559810698" lon="8.135545123368502">
        <ele>1291.8099999999999</ele>
        <time>2022-01-06T12:16:34Z</time>
      </trkpt>
      <trkpt lat="45.997889377176762" lon="8.135547637939453">
        <ele>1291.9400000000001</ele>
        <time>2022-01-06T12:17:21Z</time>
      </trkpt>
      <trkpt lat="45.997876971960068" lon="8.135529616847634">
        <ele>1291.8699999999999</ele>
        <time>2022-01-06T12:18:08Z</time>
      </trkpt>
      <trkpt lat="45.997876049950719" lon="8.135534226894379">
        <ele>1291.99</ele>
        <time>2022-01-06T12:19:00Z</time>
      </trkpt>
      <trkpt lat="45.997877223417163" lon="8.135530538856983">
        <ele>1291.9200000000001</ele>
        <time>2022-01-06T12:19:52Z</time>
      </trkpt>
      <trkpt lat="45.997902033850551" lon="8.135550571605563">
        <ele>1291.97</ele>
        <time>2022-01-06T12:20:38Z</time>
      </trkpt>
      <trkpt lat="45.997890802100301" lon="8.135540094226599">
        <ele>1291.7</ele>
        <time>2022-01-06T12:21:27Z</time>
      </trkpt>
      <trkpt lat="45.997867500409484" lon="8.135534813627601">
        <ele>1291.95</ele>
        <time>2022-01-06T12:22:19Z</time>
      </trkpt>
      <trkpt lat="45.997869344428182" lon="8.135541351512075">
        <ele>1292.3199999999999</ele>
        <time>2022-01-06T12:23:11Z</time>
      </trkpt>
      <trkpt lat="45.997872361913323" lon="8.135527018457651">
        <ele>1292.2</ele>
        <time>2022-01-06T12:24:00Z</time>
      </trkpt>
      <trkpt lat="45.997891975566745" lon="8.135536657646298">
        <ele>1292.3199999999999</ele>
        <time>2022-01-06T12:24:51Z</time>
      </trkpt>
      <trkpt lat="45.997879570350051" lon="8.135546967387199">
        <ele>1292.04</ele>
        <time>2022-01-06T12:25:39Z</time>
      </trkpt>
      <trkpt lat="45.99787856452167" lon="8.135537914931774">
        <ele>1292.6099999999999</ele>
        <time>2022-01-06T12:26:27Z</time>
      </trkpt>
      <trkpt lat="45.99786389619112" lon="8.135540680959821">
        <ele>1292.6400000000001</ele>
        <time>2022-01-06T12:27:18Z</time>
      </trkpt>
      <trkpt lat="45.997859034687281" lon="8.13555090688169">
        <ele>1292.9400000000001</ele>
        <time>2022-01-06T12:28:11Z</time>
      </trkpt>
      <trkpt lat="45.997864231467247" lon="8.135548727586865">
        <ele>1293.0999999999999</ele>
        <time>2022-01-06T12:29:05Z</time>
      </trkpt>
      <trkpt lat="45.997869092971087" lon="8.135527605190873">
        <ele>1293.24</ele>
        <time>2022-01-06T12:29:50Z</time>
      </trkpt>
      <trkpt lat="45.997883342206478" lon="8.135534981265664">
        <ele>1293.4100000000001</ele>
        <time>2022-01-06T12:30:33Z</time>
      </trkpt>
      <trkpt lat="45.997880408540368" lon="8.135534729808569">
        <ele>1293.6199999999999</ele>
        <time>2022-01-06T12:31:25Z</time>
      </trkpt>
      <trkpt lat="45.997875966131687" lon="8.135544285178185">
        <ele>1293.4000000000001</ele>
        <time>2022-01-06T12:32:14Z</time>
      </trkpt>
      <trkpt lat="45.997894825413823" lon="8.13555283471942">
        <ele>1293.6800000000001</ele>
        <time>2022-01-06T12:33:01Z</time>
      </trkpt>
      <trkpt lat="45.997901363298297" lon="8.135547135025263">
        <ele>1293.5999999999999</ele>
        <time>2022-01-06T12:33:52Z</time>
      </trkpt>
      <trkpt lat="45.997864734381437" lon="8.135542692616582">
        <ele>1293.73</ele>
        <time>2022-01-06T12:34:43Z</time>
      </trkpt>
      <trkpt lat="45.997878480702639" lon="8.135543195530772">
        <ele>1293.8800000000001</ele>
        <time>2022-01-06T12:35:29Z</time>
      </trkpt>
      <trkpt lat="45.997877726331353" lon="8.135547554120421">
        <ele>1293.52</ele>
        <time>2022-01-06T12:36:22Z</time>
      </trkpt>
      <trkpt lat="45.997862052172422" lon="8.135544955730438">
        <ele>1293.5599999999999</ele>
        <time>2022-01-06T12:37:11Z</time>
      </trkpt>
      <trkpt lat="45.997876133769751" lon="8.135553505271673">
        <ele>1293.6900000000001</ele>
        <time>2022-01-06T12:37:59Z</time>
      </trkpt>
      <trkpt lat="45.997877642512321" lon="8.135553924366832">
        <ele>1293.6900000000001</ele>
        <time>2022-01-06T12:38:41Z</time>
      </trkpt>
      <trkpt lat="45.99787806160748" lon="8.135552750900388">
        <ele>1293.5999999999999</ele>
        <time>2022-01-06T12:39:29Z</time>
      </trkpt>
      <trkpt lat="45.997886108234525" lon="8.135550571605563">
        <ele>1293.6400000000001</ele>
        <time>2022-01-06T12:40:19Z</time>
      </trkpt>
      <trkpt lat="45.997877810150385" lon="8.135541183874011">
        <ele>1293.8199999999999</ele>
        <time>2022-01-06T12:41:08Z</time>
      </trkpt>
      <trkpt lat="45.997876552864909" lon="8.13554847612977">
        <ele>1294.0699999999999</ele>
        <time>2022-01-06T12:41:40Z</time>
      </trkpt>
      <trkpt lat="45.99788443185389" lon="8.135558366775513">
        <ele>1293.96</ele>
        <time>2022-01-06T12:42:08Z</time>
      </trkpt>
      <trkpt lat="45.997867751866579" lon="8.135579321533442">
        <ele>1294.1800000000001</ele>
        <time>2022-01-06T12:42:32Z</time>
      </trkpt>
      <trkpt lat="45.997852412983775" lon="8.135572867468">
        <ele>1294.03</ele>
        <time>2022-01-06T12:43:07Z</time>
      </trkpt>
      <trkpt lat="45.997870853170753" lon="8.135571191087365">
        <ele>1293.9200000000001</ele>
        <time>2022-01-06T12:43:28Z</time>
      </trkpt>
      <trkpt lat="45.997874038293958" lon="8.135576974600554">
        <ele>1293.54</ele>
        <time>2022-01-06T12:43:42Z</time>
      </trkpt>
      <trkpt lat="45.997864985838532" lon="8.13558854162693">
        <ele>1293.48</ele>
        <time>2022-01-06T12:44:08Z</time>
      </trkpt>
      <trkpt lat="45.997857274487615" lon="8.135579992085695">
        <ele>1293.5999999999999</ele>
        <time>2022-01-06T12:44:42Z</time>
      </trkpt>
      <trkpt lat="45.997859872877598" lon="8.135594325140119">
        <ele>1293.55</ele>
        <time>2022-01-06T12:45:27Z</time>
      </trkpt>
      <trkpt lat="45.997873535379767" lon="8.135613100603223">
        <ele>1293.6900000000001</ele>
        <time>2022-01-06T12:45:52Z</time>
      </trkpt>
      <trkpt lat="45.997890131548047" lon="8.135633049532771">
        <ele>1293.76</ele>
        <time>2022-01-06T12:46:14Z</time>
      </trkpt>
      <trkpt lat="45.997881917282939" lon="8.13562223687768">
        <ele>1293.54</ele>
        <time>2022-01-06T12:46:32Z</time>
      </trkpt>
      <trkpt lat="45.997853586450219" lon="8.135619051754475">
        <ele>1293.76</ele>
        <time>2022-01-06T12:46:54Z</time>
      </trkpt>
      <trkpt lat="45.997839588671923" lon="8.135607903823257">
        <ele>1293.47</ele>
        <time>2022-01-06T12:47:14Z</time>
      </trkpt>
      <trkpt lat="45.997861968353391" lon="8.135586194694042">
        <ele>1293.6099999999999</ele>
        <time>2022-01-06T12:47:59Z</time>
      </trkpt>
      <trkpt lat="45.997861968353391" lon="8.135592397302389">
        <ele>1293.79</ele>
        <time>2022-01-06T12:48:53Z</time>
      </trkpt>
      <trkpt lat="45.997857693582773" lon="8.13559390604496">
        <ele>1293.76</ele>
        <time>2022-01-06T12:49:47Z</time>
      </trkpt>
      <trkpt lat="45.997853502631187" lon="8.135593235492706">
        <ele>1293.51</ele>
        <time>2022-01-06T12:50:34Z</time>
      </trkpt>
      <trkpt lat="45.997842606157064" lon="8.135595247149468">
        <ele>1293.71</ele>
        <time>2022-01-06T12:51:20Z</time>
      </trkpt>
      <trkpt lat="45.997843192890286" lon="8.135598935186863">
        <ele>1294.23</ele>
        <time>2022-01-06T12:52:01Z</time>
      </trkpt>
      <trkpt lat="45.997842187061906" lon="8.135604131966829">
        <ele>1294.5899999999999</ele>
        <time>2022-01-06T12:52:47Z</time>
      </trkpt>
      <trkpt lat="45.997852496802807" lon="8.135596755892038">
        <ele>1294.6500000000001</ele>
        <time>2022-01-06T12:53:38Z</time>
      </trkpt>
      <trkpt lat="45.997843611985445" lon="8.135593989863992">
        <ele>1294.4100000000001</ele>
        <time>2022-01-06T12:54:19Z</time>
      </trkpt>
      <trkpt lat="45.997847635298967" lon="8.135595079511404">
        <ele>1294.47</ele>
        <time>2022-01-06T12:54:59Z</time>
      </trkpt>
      <trkpt lat="45.997838415205479" lon="8.135610586032271">
        <ele>1294.55</ele>
        <time>2022-01-06T12:55:44Z</time>
      </trkpt>
      <trkpt lat="45.997833972796798" lon="8.135617543011904">
        <ele>1294.78</ele>
        <time>2022-01-06T12:56:29Z</time>
      </trkpt>
      <trkpt lat="45.997839253395796" lon="8.135618129745126">
        <ele>1294.8499999999999</ele>
        <time>2022-01-06T12:57:16Z</time>
      </trkpt>
      <trkpt lat="45.997843444347382" lon="8.135609161108732">
        <ele>1294.9400000000001</ele>
        <time>2022-01-06T12:58:05Z</time>
      </trkpt>
      <trkpt lat="45.997833721339703" lon="8.135603126138449">
        <ele>1294.96</ele>
        <time>2022-01-06T12:58:58Z</time>
      </trkpt>
      <trkpt lat="45.997836487367749" lon="8.13560807146132">
        <ele>1294.99</ele>
        <time>2022-01-06T12:59:46Z</time>
      </trkpt>
      <trkpt lat="45.997843025252223" lon="8.135615028440952">
        <ele>1295.1099999999999</ele>
        <time>2022-01-06T13:00:30Z</time>
      </trkpt>
      <trkpt lat="45.997852748259902" lon="8.135618465021253">
        <ele>1295.0999999999999</ele>
        <time>2022-01-06T13:01:09Z</time>
      </trkpt>
      <trkpt lat="45.997851993888617" lon="8.135620895773172">
        <ele>1294.99</ele>
        <time>2022-01-06T13:01:49Z</time>
      </trkpt>
      <trkpt lat="45.997858447954059" lon="8.135617459192872">
        <ele>1294.8499999999999</ele>
        <time>2022-01-06T13:02:42Z</time>
      </trkpt>
      <trkpt lat="45.997838582843542" lon="8.13560857437551">
        <ele>1294.6099999999999</ele>
        <time>2022-01-06T13:03:27Z</time>
      </trkpt>
      <trkpt lat="45.997822908684611" lon="8.1356056407094">
        <ele>1294.5699999999999</ele>
        <time>2022-01-06T13:03:52Z</time>
      </trkpt>
      <trkpt lat="45.997830536216497" lon="8.135592984035611">
        <ele>1294.53</ele>
        <time>2022-01-06T13:04:33Z</time>
      </trkpt>
      <trkpt lat="45.997835230082273" lon="8.135589128360152">
        <ele>1294.29</ele>
        <time>2022-01-06T13:05:20Z</time>
      </trkpt>
      <trkpt lat="45.9978355653584" lon="8.135583763942123">
        <ele>1294.0699999999999</ele>
        <time>2022-01-06T13:05:59Z</time>
      </trkpt>
      <trkpt lat="45.997839756309986" lon="8.135569430887699">
        <ele>1293.9100000000001</ele>
        <time>2022-01-06T13:06:38Z</time>
      </trkpt>
      <trkpt lat="45.997842606157064" lon="8.135560797527432">
        <ele>1293.8099999999999</ele>
        <time>2022-01-06T13:07:29Z</time>
      </trkpt>
      <trkpt lat="45.997833805158734" lon="8.135567922145128">
        <ele>1293.6199999999999</ele>
        <time>2022-01-06T13:08:22Z</time>
      </trkpt>
      <trkpt lat="45.997833805158734" lon="8.135566832497716">
        <ele>1293.6300000000001</ele>
        <time>2022-01-06T13:09:14Z</time>
      </trkpt>
      <trkpt lat="45.997841935604811" lon="8.13557873480022">
        <ele>1293.8</ele>
        <time>2022-01-06T13:09:54Z</time>
      </trkpt>
      <trkpt lat="45.997843192890286" lon="8.135594241321087">
        <ele>1293.1900000000001</ele>
        <time>2022-01-06T13:10:45Z</time>
      </trkpt>
      <trkpt lat="45.997832966968417" lon="8.135582841932774">
        <ele>1293.1199999999999</ele>
        <time>2022-01-06T13:11:30Z</time>
      </trkpt>
      <trkpt lat="45.997831542044878" lon="8.135588876903057">
        <ele>1293.1600000000001</ele>
        <time>2022-01-06T13:12:14Z</time>
      </trkpt>
      <trkpt lat="45.997833553701639" lon="8.135592313483357">
        <ele>1293.0699999999999</ele>
        <time>2022-01-06T13:13:00Z</time>
      </trkpt>
      <trkpt lat="45.997840007767081" lon="8.135589044541121">
        <ele>1293.1400000000001</ele>
        <time>2022-01-06T13:13:10Z</time>
      </trkpt>
      <trkpt lat="45.997820226475596" lon="8.135591307654977">
        <ele>1293.0799999999999</ele>
        <time>2022-01-06T13:13:22Z</time>
      </trkpt>
      <trkpt lat="45.997812682762742" lon="8.135597174987197">
        <ele>1293.21</ele>
        <time>2022-01-06T13:14:06Z</time>
      </trkpt>
      <trkpt lat="45.997818382456899" lon="8.135586865246296">
        <ele>1293.29</ele>
        <time>2022-01-06T13:14:49Z</time>
      </trkpt>
      <trkpt lat="45.997827602550387" lon="8.135583680123091">
        <ele>1293.79</ele>
        <time>2022-01-06T13:15:31Z</time>
      </trkpt>
      <trkpt lat="45.997814778238535" lon="8.135574292391539">
        <ele>1294.3800000000001</ele>
        <time>2022-01-06T13:16:16Z</time>
      </trkpt>
      <trkpt lat="45.997827099636197" lon="8.135577226057649">
        <ele>1294.1700000000001</ele>
        <time>2022-01-06T13:16:58Z</time>
      </trkpt>
      <trkpt lat="45.997829027473927" lon="8.135580914095044">
        <ele>1294.01</ele>
        <time>2022-01-06T13:17:43Z</time>
      </trkpt>
      <trkpt lat="45.997819388285279" lon="8.135567167773843">
        <ele>1293.9100000000001</ele>
        <time>2022-01-06T13:18:29Z</time>
      </trkpt>
      <trkpt lat="45.997822070494294" lon="8.135574962943792">
        <ele>1293.95</ele>
        <time>2022-01-06T13:19:10Z</time>
      </trkpt>
      <trkpt lat="45.997818633913994" lon="8.135587200522423">
        <ele>1293.9300000000001</ele>
        <time>2022-01-06T13:19:52Z</time>
      </trkpt>
      <trkpt lat="45.997824752703309" lon="8.135586446151137">
        <ele>1293.72</ele>
        <time>2022-01-06T13:20:40Z</time>
      </trkpt>
      <trkpt lat="45.997827434912324" lon="8.135598683729768">
        <ele>1293.6900000000001</ele>
        <time>2022-01-06T13:21:28Z</time>
      </trkpt>
      <trkpt lat="45.997821651399136" lon="8.1355987675488">
        <ele>1293.6199999999999</ele>
        <time>2022-01-06T13:22:09Z</time>
      </trkpt>
      <trkpt lat="45.997817208990455" lon="8.135609328746796">
        <ele>1293.79</ele>
        <time>2022-01-06T13:22:57Z</time>
      </trkpt>
      <trkpt lat="45.997822321951389" lon="8.135613603517413">
        <ele>1293.6199999999999</ele>
        <time>2022-01-06T13:23:46Z</time>
      </trkpt>
      <trkpt lat="45.99782089702785" lon="8.135624416172504">
        <ele>1293.6900000000001</ele>
        <time>2022-01-06T13:24:28Z</time>
      </trkpt>
      <trkpt lat="45.99782282486558" lon="8.135615196079016">
        <ele>1294.3</ele>
        <time>2022-01-06T13:25:18Z</time>
      </trkpt>
      <trkpt lat="45.997824920341372" lon="8.135597426444292">
        <ele>1294.26</ele>
        <time>2022-01-06T13:26:06Z</time>
      </trkpt>
      <trkpt lat="45.997819639742374" lon="8.135600527748466">
        <ele>1293.6900000000001</ele>
        <time>2022-01-06T13:26:44Z</time>
      </trkpt>
      <trkpt lat="45.997808910906315" lon="8.135600527748466">
        <ele>1293.9300000000001</ele>
        <time>2022-01-06T13:27:29Z</time>
      </trkpt>
      <trkpt lat="45.997816789895296" lon="8.135589547455311">
        <ele>1293.8900000000001</ele>
        <time>2022-01-06T13:28:13Z</time>
      </trkpt>
      <trkpt lat="45.997826512902975" lon="8.135591223835945">
        <ele>1293.28</ele>
        <time>2022-01-06T13:28:59Z</time>
      </trkpt>
      <trkpt lat="45.997811090201139" lon="8.13558854162693">
        <ele>1293.24</ele>
        <time>2022-01-06T13:29:41Z</time>
      </trkpt>
      <trkpt lat="45.997814862057567" lon="8.135600611567497">
        <ele>1293.05</ele>
        <time>2022-01-06T13:30:23Z</time>
      </trkpt>
      <trkpt lat="45.997815867885947" lon="8.135588960722089">
        <ele>1293.0899999999999</ele>
        <time>2022-01-06T13:31:06Z</time>
      </trkpt>
      <trkpt lat="45.997809749096632" lon="8.135600779205561">
        <ele>1292.97</ele>
        <time>2022-01-06T13:31:46Z</time>
      </trkpt>
      <trkpt lat="45.997815448790789" lon="8.135614357888699">
        <ele>1292.74</ele>
        <time>2022-01-06T13:32:28Z</time>
      </trkpt>
      <trkpt lat="45.997806983068585" lon="8.135611340403557">
        <ele>1292.96</ele>
        <time>2022-01-06T13:33:10Z</time>
      </trkpt>
      <trkpt lat="45.997803881764412" lon="8.135624835267663">
        <ele>1292.9200000000001</ele>
        <time>2022-01-06T13:33:51Z</time>
      </trkpt>
      <trkpt lat="45.997800612822175" lon="8.135625338181853">
        <ele>1292.98</ele>
        <time>2022-01-06T13:34:30Z</time>
      </trkpt>
      <trkpt lat="45.997808827087283" lon="8.135611843317747">
        <ele>1292.6900000000001</ele>
        <time>2022-01-06T13:35:15Z</time>
      </trkpt>
      <trkpt lat="45.997806396335363" lon="8.135605724528432">
        <ele>1292.95</ele>
        <time>2022-01-06T13:35:57Z</time>
      </trkpt>
      <trkpt lat="45.997817125171423" lon="8.1356056407094">
        <ele>1292.8099999999999</ele>
        <time>2022-01-06T13:36:39Z</time>
      </trkpt>
      <trkpt lat="45.997815784066916" lon="8.135616621002555">
        <ele>1292.75</ele>
        <time>2022-01-06T13:37:22Z</time>
      </trkpt>
      <trkpt lat="45.997813772410154" lon="8.135606981813908">
        <ele>1292.3699999999999</ele>
        <time>2022-01-06T13:38:06Z</time>
      </trkpt>
      <trkpt lat="45.997809497639537" lon="8.135603964328766">
        <ele>1292.4100000000001</ele>
        <time>2022-01-06T13:38:53Z</time>
      </trkpt>
      <trkpt lat="45.997808324173093" lon="8.135600443929434">
        <ele>1292.3299999999999</ele>
        <time>2022-01-06T13:39:06Z</time>
      </trkpt>
      <trkpt lat="45.997804300859571" lon="8.135579824447632">
        <ele>1292.53</ele>
        <time>2022-01-06T13:39:16Z</time>
      </trkpt>
      <trkpt lat="45.997799439355731" lon="8.135567167773843">
        <ele>1292.4300000000001</ele>
        <time>2022-01-06T13:39:23Z</time>
      </trkpt>
      <trkpt lat="45.997792985290289" lon="8.135568844154477">
        <ele>1292.6099999999999</ele>
        <time>2022-01-06T13:39:31Z</time>
      </trkpt>
      <trkpt lat="45.997796505689621" lon="8.135573789477348">
        <ele>1292.22</ele>
        <time>2022-01-06T13:39:44Z</time>
      </trkpt>
      <trkpt lat="45.997803378850222" lon="8.135571107268333">
        <ele>1292.4400000000001</ele>
        <time>2022-01-06T13:39:51Z</time>
      </trkpt>
      <trkpt lat="45.997811928391457" lon="8.13556163571775">
        <ele>1292.23</ele>
        <time>2022-01-06T13:39:58Z</time>
      </trkpt>
      <trkpt lat="45.997821483761072" lon="8.135546715930104">
        <ele>1292.28</ele>
        <time>2022-01-06T13:40:08Z</time>
      </trkpt>
      <trkpt lat="45.997826680541039" lon="8.135537579655647">
        <ele>1292.3499999999999</ele>
        <time>2022-01-06T13:40:16Z</time>
      </trkpt>
      <trkpt lat="45.997829027473927" lon="8.135529113933444">
        <ele>1292.1600000000001</ele>
        <time>2022-01-06T13:40:24Z</time>
      </trkpt>
      <trkpt lat="45.99783162586391" lon="8.135516457259655">
        <ele>1292.1099999999999</ele>
        <time>2022-01-06T13:40:32Z</time>
      </trkpt>
      <trkpt lat="45.997827602550387" lon="8.135517882183194">
        <ele>1292.0599999999999</ele>
        <time>2022-01-06T13:40:40Z</time>
      </trkpt>
      <trkpt lat="45.997824082151055" lon="8.135530622676015">
        <ele>1292.0599999999999</ele>
        <time>2022-01-06T13:40:51Z</time>
      </trkpt>
      <trkpt lat="45.997829027473927" lon="8.135518468916416">
        <ele>1291.97</ele>
        <time>2022-01-06T13:41:01Z</time>
      </trkpt>
      <trkpt lat="45.997827015817165" lon="8.135528359562159">
        <ele>1291.8399999999999</ele>
        <time>2022-01-06T13:41:15Z</time>
      </trkpt>
      <trkpt lat="45.997828776016831" lon="8.135531544685364">
        <ele>1291.9400000000001</ele>
        <time>2022-01-06T13:41:22Z</time>
      </trkpt>
      <trkpt lat="45.997831374406815" lon="8.135525761172175">
        <ele>1292.0999999999999</ele>
        <time>2022-01-06T13:41:30Z</time>
      </trkpt>
      <trkpt lat="45.997831122949719" lon="8.135527353733778">
        <ele>1291.98</ele>
        <time>2022-01-06T13:41:38Z</time>
      </trkpt>
      <trkpt lat="45.997830452397466" lon="8.135519893839955">
        <ele>1292.1199999999999</ele>
        <time>2022-01-06T13:41:49Z</time>
      </trkpt>
      <trkpt lat="45.997829111292958" lon="8.135514697059989">
        <ele>1292.1300000000001</ele>
        <time>2022-01-06T13:42:01Z</time>
      </trkpt>
      <trkpt lat="45.997833553701639" lon="8.135514361783862">
        <ele>1291.8699999999999</ele>
        <time>2022-01-06T13:42:13Z</time>
      </trkpt>
      <trkpt lat="45.997832296416163" lon="8.135523246601224">
        <ele>1291.73</ele>
        <time>2022-01-06T13:42:22Z</time>
      </trkpt>
      <trkpt lat="45.997834140434861" lon="8.135529784485698">
        <ele>1291.5799999999999</ele>
        <time>2022-01-06T13:42:33Z</time>
      </trkpt>
      <trkpt lat="45.997834810987115" lon="8.13552986830473">
        <ele>1291.55</ele>
        <time>2022-01-06T13:42:45Z</time>
      </trkpt>
      <trkpt lat="45.997836906462908" lon="8.135515870526433">
        <ele>1291.54</ele>
        <time>2022-01-06T13:42:53Z</time>
      </trkpt>
      <trkpt lat="45.997823243960738" lon="8.135552331805229">
        <ele>1291.55</ele>
        <time>2022-01-06T13:43:05Z</time>
      </trkpt>
      <trkpt lat="45.997819472104311" lon="8.135537914931774">
        <ele>1291.72</ele>
        <time>2022-01-06T13:43:15Z</time>
      </trkpt>
      <trkpt lat="45.997813604772091" lon="8.135537998750806">
        <ele>1291.5799999999999</ele>
        <time>2022-01-06T13:43:31Z</time>
      </trkpt>
      <trkpt lat="45.99780916236341" lon="8.135536909103394">
        <ele>1291.6500000000001</ele>
        <time>2022-01-06T13:43:39Z</time>
      </trkpt>
      <trkpt lat="45.997809246182442" lon="8.135531796142459">
        <ele>1289.8399999999999</ele>
        <time>2022-01-06T13:43:44Z</time>
      </trkpt>
      <trkpt lat="45.997808491811156" lon="8.135530790314078">
        <ele>1291.8399999999999</ele>
        <time>2022-01-06T13:43:47Z</time>
      </trkpt>
      <trkpt lat="45.997798098251224" lon="8.135545207187533">
        <ele>1291.0999999999999</ele>
        <time>2022-01-06T13:44:10Z</time>
      </trkpt>
      <trkpt lat="45.997796086594462" lon="8.135547554120421">
        <ele>1290.78</ele>
        <time>2022-01-06T13:44:23Z</time>
      </trkpt>
      <trkpt lat="45.997799271717668" lon="8.135555433109403">
        <ele>1290.9000000000001</ele>
        <time>2022-01-06T13:44:39Z</time>
      </trkpt>
      <trkpt lat="45.997799606993794" lon="8.135561468079686">
        <ele>1290.8699999999999</ele>
        <time>2022-01-06T13:44:48Z</time>
      </trkpt>
      <trkpt lat="45.997797092422843" lon="8.135567000135779">
        <ele>1291.28</ele>
        <time>2022-01-06T13:44:58Z</time>
      </trkpt>
      <trkpt lat="45.99779206328094" lon="8.135567335411906">
        <ele>1290.97</ele>
        <time>2022-01-06T13:45:12Z</time>
      </trkpt>
      <trkpt lat="45.997785357758403" lon="8.13555434346199">
        <ele>1290.71</ele>
        <time>2022-01-06T13:45:32Z</time>
      </trkpt>
      <trkpt lat="45.997781585901976" lon="8.135538166388869">
        <ele>1290.9000000000001</ele>
        <time>2022-01-06T13:45:45Z</time>
      </trkpt>
      <trkpt lat="45.997771862894297" lon="8.13556850887835">
        <ele>1290.8900000000001</ele>
        <time>2022-01-06T13:45:52Z</time>
      </trkpt>
      <trkpt lat="45.997780077159405" lon="8.135571945458651">
        <ele>1290.54</ele>
        <time>2022-01-06T13:46:11Z</time>
      </trkpt>
      <trkpt lat="45.997781502082944" lon="8.135564066469669">
        <ele>1290.6700000000001</ele>
        <time>2022-01-06T13:46:28Z</time>
      </trkpt>
      <trkpt lat="45.997787537053227" lon="8.135566748678684">
        <ele>1289.73</ele>
        <time>2022-01-06T13:46:53Z</time>
      </trkpt>
      <trkpt lat="45.997780747711658" lon="8.135561132803559">
        <ele>1290.4200000000001</ele>
        <time>2022-01-06T13:47:05Z</time>
      </trkpt>
      <trkpt lat="45.997778484597802" lon="8.135569179430604">
        <ele>1290.3699999999999</ele>
        <time>2022-01-06T13:47:15Z</time>
      </trkpt>
      <trkpt lat="45.997771359980106" lon="8.135574124753475">
        <ele>1290.7</ele>
        <time>2022-01-06T13:47:23Z</time>
      </trkpt>
      <trkpt lat="45.997771024703979" lon="8.135575633496046">
        <ele>1290.6700000000001</ele>
        <time>2022-01-06T13:47:39Z</time>
      </trkpt>
      <trkpt lat="45.997746801003814" lon="8.135542776435614">
        <ele>1291.1500000000001</ele>
        <time>2022-01-06T13:47:47Z</time>
      </trkpt>
      <trkpt lat="45.997736491262913" lon="8.135529784485698">
        <ele>1291.3399999999999</ele>
        <time>2022-01-06T13:47:49Z</time>
      </trkpt>
      <trkpt lat="45.99775736220181" lon="8.135503465309739">
        <ele>1291.3599999999999</ele>
        <time>2022-01-06T13:47:55Z</time>
      </trkpt>
      <trkpt lat="45.997768174856901" lon="8.135523917153478">
        <ele>1291.1300000000001</ele>
        <time>2022-01-06T13:47:57Z</time>
      </trkpt>
      <trkpt lat="45.997765157371759" lon="8.135542441159487">
        <ele>1291.2</ele>
        <time>2022-01-06T13:48:05Z</time>
      </trkpt>
      <trkpt lat="45.997759876772761" lon="8.135511176660657">
        <ele>1291.3399999999999</ele>
        <time>2022-01-06T13:48:08Z</time>
      </trkpt>
      <trkpt lat="45.997739592567086" lon="8.135474128648639">
        <ele>1291.6300000000001</ele>
        <time>2022-01-06T13:48:11Z</time>
      </trkpt>
      <trkpt lat="45.997708244249225" lon="8.135446216911078">
        <ele>1291.7</ele>
        <time>2022-01-06T13:48:14Z</time>
      </trkpt>
      <trkpt lat="45.997628616169095" lon="8.135438337922096">
        <ele>1290.5699999999999</ele>
        <time>2022-01-06T13:48:21Z</time>
      </trkpt>
      <trkpt lat="45.997612690553069" lon="8.135439343750477">
        <ele>1292.99</ele>
        <time>2022-01-06T13:48:23Z</time>
      </trkpt>
      <trkpt lat="45.997600788250566" lon="8.135438924655318">
        <ele>1292.5</ele>
        <time>2022-01-06T13:48:24Z</time>
      </trkpt>
      <trkpt lat="45.997589807957411" lon="8.135433560237289">
        <ele>1291.7</ele>
        <time>2022-01-06T13:48:26Z</time>
      </trkpt>
      <trkpt lat="45.99757706746459" lon="8.135360972955823">
        <ele>1291.4100000000001</ele>
        <time>2022-01-06T13:48:39Z</time>
      </trkpt>
      <trkpt lat="45.997559046372771" lon="8.135309675708413">
        <ele>1290.5699999999999</ele>
        <time>2022-01-06T13:48:44Z</time>
      </trkpt>
      <trkpt lat="45.997528452426195" lon="8.135271286591888">
        <ele>1290.4100000000001</ele>
        <time>2022-01-06T13:48:58Z</time>
      </trkpt>
      <trkpt lat="45.997513700276613" lon="8.135258378461003">
        <ele>1290.3099999999999</ele>
        <time>2022-01-06T13:49:09Z</time>
      </trkpt>
      <trkpt lat="45.997510850429535" lon="8.135254187509418">
        <ele>1290.21</ele>
        <time>2022-01-06T13:49:30Z</time>
      </trkpt>
      <trkpt lat="45.997514873743057" lon="8.135245302692056">
        <ele>1290.49</ele>
        <time>2022-01-06T13:49:49Z</time>
      </trkpt>
      <trkpt lat="45.997517639771104" lon="8.135250080376864">
        <ele>1290.74</ele>
        <time>2022-01-06T13:50:03Z</time>
      </trkpt>
      <trkpt lat="45.997516885399818" lon="8.13523231074214">
        <ele>1290.9300000000001</ele>
        <time>2022-01-06T13:50:18Z</time>
      </trkpt>
      <trkpt lat="45.997505905106664" lon="8.135230969637632">
        <ele>1290.9000000000001</ele>
        <time>2022-01-06T13:50:33Z</time>
      </trkpt>
      <trkpt lat="45.997503641992807" lon="8.13521328382194">
        <ele>1291.3900000000001</ele>
        <time>2022-01-06T13:50:48Z</time>
      </trkpt>
      <trkpt lat="45.997500792145729" lon="8.135224934667349">
        <ele>1291.1700000000001</ele>
        <time>2022-01-06T13:51:10Z</time>
      </trkpt>
      <trkpt lat="45.997465336695313" lon="8.135164249688387">
        <ele>1291.54</ele>
        <time>2022-01-06T13:51:20Z</time>
      </trkpt>
      <trkpt lat="45.997445303946733" lon="8.135063331574202">
        <ele>1291.95</ele>
        <time>2022-01-06T13:51:27Z</time>
      </trkpt>
      <trkpt lat="45.997437005862594" lon="8.135032653808594">
        <ele>1291.5899999999999</ele>
        <time>2022-01-06T13:51:29Z</time>
      </trkpt>
      <trkpt lat="45.997430719435215" lon="8.134861662983894">
        <ele>1288.95</ele>
        <time>2022-01-06T13:51:43Z</time>
      </trkpt>
      <trkpt lat="45.997427450492978" lon="8.134728725999594">
        <ele>1287.28</ele>
        <time>2022-01-06T13:51:56Z</time>
      </trkpt>
      <trkpt lat="45.997430048882961" lon="8.134683212265372">
        <ele>1286.8599999999999</ele>
        <time>2022-01-06T13:52:01Z</time>
      </trkpt>
      <trkpt lat="45.997412027791142" lon="8.134570391848683">
        <ele>1284.4100000000001</ele>
        <time>2022-01-06T13:52:15Z</time>
      </trkpt>
      <trkpt lat="45.997415715828538" lon="8.134546503424645">
        <ele>1283.4200000000001</ele>
        <time>2022-01-06T13:52:26Z</time>
      </trkpt>
      <trkpt lat="45.997375482693315" lon="8.134491350501776">
        <ele>1282.0599999999999</ele>
        <time>2022-01-06T13:52:38Z</time>
      </trkpt>
      <trkpt lat="45.9973210003227" lon="8.134402921423316">
        <ele>1279.8099999999999</ele>
        <time>2022-01-06T13:52:47Z</time>
      </trkpt>
      <trkpt lat="45.997367268428206" lon="8.134324382990599">
        <ele>1277.28</ele>
        <time>2022-01-06T13:52:57Z</time>
      </trkpt>
      <trkpt lat="45.997404316440225" lon="8.134231930598617">
        <ele>1274.3</ele>
        <time>2022-01-06T13:53:09Z</time>
      </trkpt>
      <trkpt lat="45.997380511835217" lon="8.134175185114145">
        <ele>1270.95</ele>
        <time>2022-01-06T13:53:20Z</time>
      </trkpt>
      <trkpt lat="45.997361736372113" lon="8.134130341932178">
        <ele>1268.47</ele>
        <time>2022-01-06T13:53:31Z</time>
      </trkpt>
      <trkpt lat="45.997364250943065" lon="8.134051384404302">
        <ele>1266.3</ele>
        <time>2022-01-06T13:53:41Z</time>
      </trkpt>
      <trkpt lat="45.997352600097656" lon="8.134020119905472">
        <ele>1264.21</ele>
        <time>2022-01-06T13:53:47Z</time>
      </trkpt>
      <trkpt lat="45.997368106618524" lon="8.133872263133526">
        <ele>1261.4100000000001</ele>
        <time>2022-01-06T13:53:59Z</time>
      </trkpt>
      <trkpt lat="45.99739626981318" lon="8.133736979216337">
        <ele>1258.98</ele>
        <time>2022-01-06T13:54:11Z</time>
      </trkpt>
      <trkpt lat="45.997374812141061" lon="8.13366724178195">
        <ele>1257.6900000000001</ele>
        <time>2022-01-06T13:54:17Z</time>
      </trkpt>
      <trkpt lat="45.997378416359425" lon="8.133545536547899">
        <ele>1255.9300000000001</ele>
        <time>2022-01-06T13:54:27Z</time>
      </trkpt>
      <trkpt lat="45.997380847111344" lon="8.133514691144228">
        <ele>1255.22</ele>
        <time>2022-01-06T13:54:29Z</time>
      </trkpt>
      <trkpt lat="45.997420242056251" lon="8.133378149941564">
        <ele>1253.99</ele>
        <time>2022-01-06T13:54:43Z</time>
      </trkpt>
      <trkpt lat="45.99737866781652" lon="8.133328277617693">
        <ele>1251.1600000000001</ele>
        <time>2022-01-06T13:54:55Z</time>
      </trkpt>
      <trkpt lat="45.997365843504667" lon="8.133327271789312">
        <ele>1250.54</ele>
        <time>2022-01-06T13:54:57Z</time>
      </trkpt>
      <trkpt lat="45.997328627854586" lon="8.133245212957263">
        <ele>1247.26</ele>
        <time>2022-01-06T13:55:08Z</time>
      </trkpt>
      <trkpt lat="45.997295686975121" lon="8.133283266797662">
        <ele>1244.6300000000001</ele>
        <time>2022-01-06T13:55:19Z</time>
      </trkpt>
      <trkpt lat="45.997266350314021" lon="8.133239345625043">
        <ele>1242.47</ele>
        <time>2022-01-06T13:55:30Z</time>
      </trkpt>
      <trkpt lat="45.997214466333389" lon="8.133246973156929">
        <ele>1239.3699999999999</ele>
        <time>2022-01-06T13:55:40Z</time>
      </trkpt>
      <trkpt lat="45.997165599837899" lon="8.133184863254428">
        <ele>1236.9200000000001</ele>
        <time>2022-01-06T13:55:50Z</time>
      </trkpt>
      <trkpt lat="45.997127294540405" lon="8.133055865764618">
        <ele>1233.8800000000001</ele>
        <time>2022-01-06T13:56:05Z</time>
      </trkpt>
      <trkpt lat="45.997071051970124" lon="8.133010771125555">
        <ele>1231.95</ele>
        <time>2022-01-06T13:56:14Z</time>
      </trkpt>
      <trkpt lat="45.997095610946417" lon="8.132945895195007">
        <ele>1229.8499999999999</ele>
        <time>2022-01-06T13:56:24Z</time>
      </trkpt>
      <trkpt lat="45.997119918465614" lon="8.132884707301855">
        <ele>1226.8499999999999</ele>
        <time>2022-01-06T13:56:32Z</time>
      </trkpt>
      <trkpt lat="45.997188482433558" lon="8.132811030372977">
        <ele>1223.8099999999999</ele>
        <time>2022-01-06T13:56:45Z</time>
      </trkpt>
      <trkpt lat="45.997186386957765" lon="8.132691420614719">
        <ele>1221.27</ele>
        <time>2022-01-06T13:56:59Z</time>
      </trkpt>
      <trkpt lat="45.9971690364182" lon="8.132573068141937">
        <ele>1218.8199999999999</ele>
        <time>2022-01-06T13:57:10Z</time>
      </trkpt>
      <trkpt lat="45.997079182416201" lon="8.132473658770323">
        <ele>1216.5699999999999</ele>
        <time>2022-01-06T13:57:22Z</time>
      </trkpt>
      <trkpt lat="45.997012462466955" lon="8.132295878604055">
        <ele>1213.23</ele>
        <time>2022-01-06T13:57:37Z</time>
      </trkpt>
      <trkpt lat="45.996971223503351" lon="8.132153134793043">
        <ele>1210.1900000000001</ele>
        <time>2022-01-06T13:57:49Z</time>
      </trkpt>
      <trkpt lat="45.996928475797176" lon="8.132054144516587">
        <ele>1206.98</ele>
        <time>2022-01-06T13:58:00Z</time>
      </trkpt>
      <trkpt lat="45.996887823566794" lon="8.132035536691546">
        <ele>1203.8</ele>
        <time>2022-01-06T13:58:13Z</time>
      </trkpt>
      <trkpt lat="45.996817834675312" lon="8.132040565833449">
        <ele>1201.0799999999999</ele>
        <time>2022-01-06T13:58:27Z</time>
      </trkpt>
      <trkpt lat="45.996810542419553" lon="8.132069148123264">
        <ele>1200.53</ele>
        <time>2022-01-06T13:58:43Z</time>
      </trkpt>
      <trkpt lat="45.996770225465298" lon="8.1321139074862">
        <ele>1199.54</ele>
        <time>2022-01-06T13:58:49Z</time>
      </trkpt>
      <trkpt lat="45.996667966246605" lon="8.132185488939285">
        <ele>1198.99</ele>
        <time>2022-01-06T13:59:00Z</time>
      </trkpt>
      <trkpt lat="45.996632091701031" lon="8.132179453969002">
        <ele>1198.8499999999999</ele>
        <time>2022-01-06T13:59:04Z</time>
      </trkpt>
      <trkpt lat="45.996561013162136" lon="8.13215984031558">
        <ele>1197.0999999999999</ele>
        <time>2022-01-06T13:59:15Z</time>
      </trkpt>
      <trkpt lat="45.996548859402537" lon="8.132138382643461">
        <ele>1196.1600000000001</ele>
        <time>2022-01-06T13:59:18Z</time>
      </trkpt>
      <trkpt lat="45.996517678722739" lon="8.131996309384704">
        <ele>1193.2</ele>
        <time>2022-01-06T13:59:29Z</time>
      </trkpt>
      <trkpt lat="45.996466381475329" lon="8.131891032680869">
        <ele>1192.95</ele>
        <time>2022-01-06T13:59:40Z</time>
      </trkpt>
      <trkpt lat="45.996404187753797" lon="8.131858007982373">
        <ele>1190.23</ele>
        <time>2022-01-06T13:59:51Z</time>
      </trkpt>
      <trkpt lat="45.996345765888691" lon="8.131832778453827">
        <ele>1187.1300000000001</ele>
        <time>2022-01-06T13:59:59Z</time>
      </trkpt>
      <trkpt lat="45.996310729533434" lon="8.131816685199738">
        <ele>1185.4300000000001</ele>
        <time>2022-01-06T14:00:12Z</time>
      </trkpt>
      <trkpt lat="45.996312573552132" lon="8.1318031065166">
        <ele>1184.8199999999999</ele>
        <time>2022-01-06T14:00:35Z</time>
      </trkpt>
      <trkpt lat="45.996317602694035" lon="8.131799921393395">
        <ele>1185.8499999999999</ele>
        <time>2022-01-06T14:00:44Z</time>
      </trkpt>
      <trkpt lat="45.996305365115404" lon="8.131789024919272">
        <ele>1185.2</ele>
        <time>2022-01-06T14:01:01Z</time>
      </trkpt>
      <trkpt lat="45.996309388428926" lon="8.131789360195398">
        <ele>1185.1800000000001</ele>
        <time>2022-01-06T14:01:18Z</time>
      </trkpt>
      <trkpt lat="45.996314501389861" lon="8.131794976070523">
        <ele>1185.6600000000001</ele>
        <time>2022-01-06T14:01:42Z</time>
      </trkpt>
      <trkpt lat="45.996322631835938" lon="8.131818613037467">
        <ele>1185.0899999999999</ele>
        <time>2022-01-06T14:01:55Z</time>
      </trkpt>
      <trkpt lat="45.996325984597206" lon="8.131887847557664">
        <ele>1182.6199999999999</ele>
        <time>2022-01-06T14:02:06Z</time>
      </trkpt>
      <trkpt lat="45.996292792260647" lon="8.131925733759999">
        <ele>1180.01</ele>
        <time>2022-01-06T14:02:17Z</time>
      </trkpt>
      <trkpt lat="45.996249709278345" lon="8.131967559456825">
        <ele>1176.24</ele>
        <time>2022-01-06T14:02:28Z</time>
      </trkpt>
      <trkpt lat="45.996197406202555" lon="8.131960770115256">
        <ele>1173.5899999999999</ele>
        <time>2022-01-06T14:02:40Z</time>
      </trkpt>
      <trkpt lat="45.996143678203225" lon="8.131897235289216">
        <ele>1170.9100000000001</ele>
        <time>2022-01-06T14:02:52Z</time>
      </trkpt>
      <trkpt lat="45.996091375127435" lon="8.131911065429449">
        <ele>1167.79</ele>
        <time>2022-01-06T14:03:03Z</time>
      </trkpt>
      <trkpt lat="45.996053656563163" lon="8.131990525871515">
        <ele>1164.8299999999999</ele>
        <time>2022-01-06T14:03:14Z</time>
      </trkpt>
      <trkpt lat="45.996034378185868" lon="8.132077278569341">
        <ele>1161.5999999999999</ele>
        <time>2022-01-06T14:03:25Z</time>
      </trkpt>
      <trkpt lat="45.995977548882365" lon="8.132053557783365">
        <ele>1158.47</ele>
        <time>2022-01-06T14:03:34Z</time>
      </trkpt>
      <trkpt lat="45.995906470343471" lon="8.131992621347308">
        <ele>1155.5899999999999</ele>
        <time>2022-01-06T14:03:45Z</time>
      </trkpt>
      <trkpt lat="45.99583019502461" lon="8.13193017616868">
        <ele>1152.3800000000001</ele>
        <time>2022-01-06T14:03:55Z</time>
      </trkpt>
      <trkpt lat="45.995785351842642" lon="8.13188667409122">
        <ele>1150.22</ele>
        <time>2022-01-06T14:04:01Z</time>
      </trkpt>
      <trkpt lat="45.995736652985215" lon="8.131868150085211">
        <ele>1147.3399999999999</ele>
        <time>2022-01-06T14:04:12Z</time>
      </trkpt>
      <trkpt lat="45.995734725147486" lon="8.131893379613757">
        <ele>1146.8</ele>
        <time>2022-01-06T14:04:14Z</time>
      </trkpt>
      <trkpt lat="45.995714105665684" lon="8.13199513591826">
        <ele>1143.3800000000001</ele>
        <time>2022-01-06T14:04:26Z</time>
      </trkpt>
      <trkpt lat="45.995705220848322" lon="8.131979545578361">
        <ele>1142.97</ele>
        <time>2022-01-06T14:04:28Z</time>
      </trkpt>
      <trkpt lat="45.995652163401246" lon="8.131885500624776">
        <ele>1139.95</ele>
        <time>2022-01-06T14:04:39Z</time>
      </trkpt>
      <trkpt lat="45.995612349361181" lon="8.131748205050826">
        <ele>1137.22</ele>
        <time>2022-01-06T14:04:50Z</time>
      </trkpt>
      <trkpt lat="45.995561638846993" lon="8.131680730730295">
        <ele>1134.0799999999999</ele>
        <time>2022-01-06T14:05:00Z</time>
      </trkpt>
      <trkpt lat="45.995486034080386" lon="8.131628343835473">
        <ele>1132.0699999999999</ele>
        <time>2022-01-06T14:05:12Z</time>
      </trkpt>
      <trkpt lat="45.995435155928135" lon="8.131574532017112">
        <ele>1128.9400000000001</ele>
        <time>2022-01-06T14:05:21Z</time>
      </trkpt>
      <trkpt lat="45.995387462899089" lon="8.131518037989736">
        <ele>1125.8099999999999</ele>
        <time>2022-01-06T14:05:30Z</time>
      </trkpt>
      <trkpt lat="45.995336584746838" lon="8.13140831887722">
        <ele>1122.54</ele>
        <time>2022-01-06T14:05:41Z</time>
      </trkpt>
      <trkpt lat="45.99532694555819" lon="8.131401194259524">
        <ele>1122.3199999999999</ele>
        <time>2022-01-06T14:05:42Z</time>
      </trkpt>
      <trkpt lat="45.995298447087407" lon="8.13126222230494">
        <ele>1120.5</ele>
        <time>2022-01-06T14:05:52Z</time>
      </trkpt>
      <trkpt lat="45.995248658582568" lon="8.131136912852526">
        <ele>1118.1700000000001</ele>
        <time>2022-01-06T14:06:03Z</time>
      </trkpt>
      <trkpt lat="45.995167689397931" lon="8.131006071344018">
        <ele>1115.01</ele>
        <time>2022-01-06T14:06:15Z</time>
      </trkpt>
      <trkpt lat="45.995110273361206" lon="8.130960138514638">
        <ele>1112.23</ele>
        <time>2022-01-06T14:06:26Z</time>
      </trkpt>
      <trkpt lat="45.995117900893092" lon="8.131098775193095">
        <ele>1110.01</ele>
        <time>2022-01-06T14:06:39Z</time>
      </trkpt>
      <trkpt lat="45.995087809860706" lon="8.131153006106615">
        <ele>1106.8800000000001</ele>
        <time>2022-01-06T14:06:49Z</time>
      </trkpt>
      <trkpt lat="45.995019497349858" lon="8.131116628646851">
        <ele>1103.51</ele>
        <time>2022-01-06T14:07:00Z</time>
      </trkpt>
      <trkpt lat="45.994949424639344" lon="8.131048819050193">
        <ele>1100.4000000000001</ele>
        <time>2022-01-06T14:07:11Z</time>
      </trkpt>
      <trkpt lat="45.994943138211966" lon="8.131039850413799">
        <ele>1099.98</ele>
        <time>2022-01-06T14:07:12Z</time>
      </trkpt>
      <trkpt lat="45.994874741882086" lon="8.13090548850596">
        <ele>1096.5</ele>
        <time>2022-01-06T14:07:25Z</time>
      </trkpt>
      <trkpt lat="45.994821516796947" lon="8.130787638947368">
        <ele>1093.5599999999999</ele>
        <time>2022-01-06T14:07:37Z</time>
      </trkpt>
      <trkpt lat="45.994783043861389" lon="8.13069736585021">
        <ele>1090.53</ele>
        <time>2022-01-06T14:07:46Z</time>
      </trkpt>
      <trkpt lat="45.994754964485765" lon="8.13065193593502">
        <ele>1089.24</ele>
        <time>2022-01-06T14:07:50Z</time>
      </trkpt>
      <trkpt lat="45.994677599519491" lon="8.130483375862241">
        <ele>1086.0599999999999</ele>
        <time>2022-01-06T14:08:04Z</time>
      </trkpt>
      <trkpt lat="45.994635438546538" lon="8.130349097773433">
        <ele>1084.76</ele>
        <time>2022-01-06T14:08:13Z</time>
      </trkpt>
      <trkpt lat="45.994559163227677" lon="8.130223285406828">
        <ele>1081.7</ele>
        <time>2022-01-06T14:08:25Z</time>
      </trkpt>
      <trkpt lat="45.994544578716159" lon="8.130180537700653">
        <ele>1080.45</ele>
        <time>2022-01-06T14:08:29Z</time>
      </trkpt>
      <trkpt lat="45.994476266205311" lon="8.13008607365191">
        <ele>1077.21</ele>
        <time>2022-01-06T14:08:40Z</time>
      </trkpt>
      <trkpt lat="45.994431590661407" lon="8.130018096417189">
        <ele>1074.1400000000001</ele>
        <time>2022-01-06T14:08:50Z</time>
      </trkpt>
      <trkpt lat="45.994388172402978" lon="8.129990100860596">
        <ele>1072.4400000000001</ele>
        <time>2022-01-06T14:08:55Z</time>
      </trkpt>
      <trkpt lat="45.994355818256736" lon="8.129914747551084">
        <ele>1071.4200000000001</ele>
        <time>2022-01-06T14:09:02Z</time>
      </trkpt>
      <trkpt lat="45.994312148541212" lon="8.129822127521038">
        <ele>1068.71</ele>
        <time>2022-01-06T14:09:13Z</time>
      </trkpt>
      <trkpt lat="45.994267472997308" lon="8.129763035103679">
        <ele>1065.54</ele>
        <time>2022-01-06T14:09:21Z</time>
      </trkpt>
      <trkpt lat="45.994246182963252" lon="8.129669576883316">
        <ele>1063.8599999999999</ele>
        <time>2022-01-06T14:09:30Z</time>
      </trkpt>
      <trkpt lat="45.994205279275775" lon="8.129677623510361">
        <ele>1060.5999999999999</ele>
        <time>2022-01-06T14:09:40Z</time>
      </trkpt>
      <trkpt lat="45.994155490770936" lon="8.129661194980145">
        <ele>1057.54</ele>
        <time>2022-01-06T14:09:47Z</time>
      </trkpt>
      <trkpt lat="45.994115173816681" lon="8.129532281309366">
        <ele>1054.8399999999999</ele>
        <time>2022-01-06T14:09:58Z</time>
      </trkpt>
      <trkpt lat="45.994067816063762" lon="8.12947922386229">
        <ele>1051.77</ele>
        <time>2022-01-06T14:10:05Z</time>
      </trkpt>
      <trkpt lat="45.994033785536885" lon="8.129382245242596">
        <ele>1049.46</ele>
        <time>2022-01-06T14:10:13Z</time>
      </trkpt>
      <trkpt lat="45.993990199640393" lon="8.129259198904038">
        <ele>1046.8</ele>
        <time>2022-01-06T14:10:25Z</time>
      </trkpt>
      <trkpt lat="45.993949044495821" lon="8.129234723746777">
        <ele>1043.5599999999999</ele>
        <time>2022-01-06T14:10:35Z</time>
      </trkpt>
      <trkpt lat="45.993957761675119" lon="8.129142690449953">
        <ele>1041.45</ele>
        <time>2022-01-06T14:10:44Z</time>
      </trkpt>
      <trkpt lat="45.993960695341229" lon="8.129101283848286">
        <ele>1039.0999999999999</ele>
        <time>2022-01-06T14:10:50Z</time>
      </trkpt>
      <trkpt lat="45.99396756850183" lon="8.129043197259307">
        <ele>1037.0999999999999</ele>
        <time>2022-01-06T14:10:57Z</time>
      </trkpt>
      <trkpt lat="45.994023727253079" lon="8.128976728767157">
        <ele>1033.5899999999999</ele>
        <time>2022-01-06T14:11:10Z</time>
      </trkpt>
      <trkpt lat="45.994056165218353" lon="8.128898860886693">
        <ele>1030.5</ele>
        <time>2022-01-06T14:11:19Z</time>
      </trkpt>
      <trkpt lat="45.994048118591309" lon="8.128812611103058">
        <ele>1027.3699999999999</ele>
        <time>2022-01-06T14:11:30Z</time>
      </trkpt>
      <trkpt lat="45.993958935141563" lon="8.128709429875016">
        <ele>1024.01</ele>
        <time>2022-01-06T14:11:42Z</time>
      </trkpt>
      <trkpt lat="45.99388056434691" lon="8.128633573651314">
        <ele>1020.95</ele>
        <time>2022-01-06T14:11:54Z</time>
      </trkpt>
      <trkpt lat="45.993831111118197" lon="8.128597363829613">
        <ele>1019.1</ele>
        <time>2022-01-06T14:12:05Z</time>
      </trkpt>
      <trkpt lat="45.993812084197998" lon="8.128576995804906">
        <ele>1018.49</ele>
        <time>2022-01-06T14:12:07Z</time>
      </trkpt>
      <trkpt lat="45.993712088093162" lon="8.128425367176533">
        <ele>1016.62</ele>
        <time>2022-01-06T14:12:21Z</time>
      </trkpt>
      <trkpt lat="45.993673531338573" lon="8.128370298072696">
        <ele>1014.63</ele>
        <time>2022-01-06T14:12:28Z</time>
      </trkpt>
      <trkpt lat="45.99362307228148" lon="8.128259070217609">
        <ele>1011.77</ele>
        <time>2022-01-06T14:12:39Z</time>
      </trkpt>
      <trkpt lat="45.993595495820045" lon="8.128162175416946">
        <ele>1008.67</ele>
        <time>2022-01-06T14:12:50Z</time>
      </trkpt>
      <trkpt lat="45.993571607396007" lon="8.128139460459352">
        <ele>1007.21</ele>
        <time>2022-01-06T14:12:54Z</time>
      </trkpt>
      <trkpt lat="45.993558950722218" lon="8.128058910369873">
        <ele>1004.05</ele>
        <time>2022-01-06T14:13:04Z</time>
      </trkpt>
      <trkpt lat="45.993504468351603" lon="8.127992190420628">
        <ele>1000.9299999999999</ele>
        <time>2022-01-06T14:13:15Z</time>
      </trkpt>
      <trkpt lat="45.993441771715879" lon="8.127866629511118">
        <ele>998.74000000000001</ele>
        <time>2022-01-06T14:13:26Z</time>
      </trkpt>
      <trkpt lat="45.993449734523892" lon="8.127880208194256">
        <ele>995.62</ele>
        <time>2022-01-06T14:13:38Z</time>
      </trkpt>
      <trkpt lat="45.99341151304543" lon="8.127853805199266">
        <ele>992.5</ele>
        <time>2022-01-06T14:13:50Z</time>
      </trkpt>
      <trkpt lat="45.993360886350274" lon="8.127840394154191">
        <ele>989.21000000000004</ele>
        <time>2022-01-06T14:13:59Z</time>
      </trkpt>
      <trkpt lat="45.99329860880971" lon="8.127845926210284">
        <ele>986.05999999999995</ele>
        <time>2022-01-06T14:14:10Z</time>
      </trkpt>
      <trkpt lat="45.993219986557961" lon="8.127827821299434">
        <ele>982.79999999999995</ele>
        <time>2022-01-06T14:14:21Z</time>
      </trkpt>
      <trkpt lat="45.993203055113554" lon="8.127846093848348">
        <ele>981.22000000000003</ele>
        <time>2022-01-06T14:14:26Z</time>
      </trkpt>
      <trkpt lat="45.993116553872824" lon="8.127829078584909">
        <ele>977.65999999999997</ele>
        <time>2022-01-06T14:14:36Z</time>
      </trkpt>
      <trkpt lat="45.993092078715563" lon="8.127808710560203">
        <ele>976.53999999999996</ele>
        <time>2022-01-06T14:14:39Z</time>
      </trkpt>
      <trkpt lat="45.992979174479842" lon="8.127775099128485">
        <ele>973.11000000000001</ele>
        <time>2022-01-06T14:14:50Z</time>
      </trkpt>
      <trkpt lat="45.992889571934938" lon="8.127682730555534">
        <ele>970.61000000000001</ele>
        <time>2022-01-06T14:15:02Z</time>
      </trkpt>
      <trkpt lat="45.992875071242452" lon="8.1277035176754">
        <ele>968.34000000000003</ele>
        <time>2022-01-06T14:15:09Z</time>
      </trkpt>
      <trkpt lat="45.992834586650133" lon="8.127694884315133">
        <ele>966.25</ele>
        <time>2022-01-06T14:15:16Z</time>
      </trkpt>
      <trkpt lat="45.992788402363658" lon="8.127593547105789">
        <ele>962.71000000000004</ele>
        <time>2022-01-06T14:15:26Z</time>
      </trkpt>
      <trkpt lat="45.992702068760991" lon="8.127532610669732">
        <ele>959.63999999999999</ele>
        <time>2022-01-06T14:15:36Z</time>
      </trkpt>
      <trkpt lat="45.992605509236455" lon="8.127495311200619">
        <ele>956.44000000000005</ele>
        <time>2022-01-06T14:15:47Z</time>
      </trkpt>
      <trkpt lat="45.992546668276191" lon="8.127476703375578">
        <ele>953.29999999999995</ele>
        <time>2022-01-06T14:15:56Z</time>
      </trkpt>
      <trkpt lat="45.9924909286201" lon="8.12740352936089">
        <ele>950.11000000000001</ele>
        <time>2022-01-06T14:16:06Z</time>
      </trkpt>
      <trkpt lat="45.992426723241806" lon="8.127301773056388">
        <ele>946.87</ele>
        <time>2022-01-06T14:16:14Z</time>
      </trkpt>
      <trkpt lat="45.992417251691222" lon="8.127294983714819">
        <ele>946.58000000000004</ele>
        <time>2022-01-06T14:16:15Z</time>
      </trkpt>
      <trkpt lat="45.99232136271894" lon="8.127210326492786">
        <ele>943.55999999999995</ele>
        <time>2022-01-06T14:16:26Z</time>
      </trkpt>
      <trkpt lat="45.992263611406088" lon="8.127128183841705">
        <ele>942.35000000000002</ele>
        <time>2022-01-06T14:16:35Z</time>
      </trkpt>
      <trkpt lat="45.9922094643116" lon="8.127040090039372">
        <ele>941.90999999999997</ele>
        <time>2022-01-06T14:16:44Z</time>
      </trkpt>
      <trkpt lat="45.992124723270535" lon="8.126968424767256">
        <ele>940.86000000000001</ele>
        <time>2022-01-06T14:16:56Z</time>
      </trkpt>
      <trkpt lat="45.992096560075879" lon="8.126955265179277">
        <ele>940.07000000000005</ele>
        <time>2022-01-06T14:17:03Z</time>
      </trkpt>
      <trkpt lat="45.99206730723381" lon="8.126965574920178">
        <ele>939.01999999999998</ele>
        <time>2022-01-06T14:17:06Z</time>
      </trkpt>
      <trkpt lat="45.991966808214784" lon="8.126986110582948">
        <ele>935.63</ele>
        <time>2022-01-06T14:17:17Z</time>
      </trkpt>
      <trkpt lat="45.991952642798424" lon="8.126977561041713">
        <ele>935.37</ele>
        <time>2022-01-06T14:17:27Z</time>
      </trkpt>
      <trkpt lat="45.991943925619125" lon="8.126995749771595">
        <ele>934.41999999999996</ele>
        <time>2022-01-06T14:17:36Z</time>
      </trkpt>
      <trkpt lat="45.991940908133984" lon="8.126995246857405">
        <ele>934.39999999999998</ele>
        <time>2022-01-06T14:17:38Z</time>
      </trkpt>
      <trkpt lat="45.991916097700596" lon="8.127018632367253">
        <ele>934.37</ele>
        <time>2022-01-06T14:17:49Z</time>
      </trkpt>
      <trkpt lat="45.991918528452516" lon="8.127020979300141">
        <ele>934.45000000000005</ele>
        <time>2022-01-06T14:17:56Z</time>
      </trkpt>
      <trkpt lat="45.991895729675889" lon="8.127010837197304">
        <ele>935.29999999999995</ele>
        <time>2022-01-06T14:18:11Z</time>
      </trkpt>
      <trkpt lat="45.991918109357357" lon="8.126969011500478">
        <ele>935.00999999999999</ele>
        <time>2022-01-06T14:18:31Z</time>
      </trkpt>
      <trkpt lat="45.99192070774734" lon="8.126979740336537">
        <ele>934.91999999999996</ele>
        <time>2022-01-06T14:18:48Z</time>
      </trkpt>
      <trkpt lat="45.991935962811112" lon="8.126953421160579">
        <ele>935.13</ele>
        <time>2022-01-06T14:19:06Z</time>
      </trkpt>
      <trkpt lat="45.99192900583148" lon="8.126955516636372">
        <ele>934.62</ele>
        <time>2022-01-06T14:19:21Z</time>
      </trkpt>
      <trkpt lat="45.991907380521297" lon="8.127014609053731">
        <ele>934.98000000000002</ele>
        <time>2022-01-06T14:19:32Z</time>
      </trkpt>
      <trkpt lat="45.991910481825471" lon="8.127008993178606">
        <ele>935.08000000000004</ele>
        <time>2022-01-06T14:19:38Z</time>
      </trkpt>
      <trkpt lat="45.991894640028477" lon="8.127031875774264">
        <ele>934.67999999999995</ele>
        <time>2022-01-06T14:19:48Z</time>
      </trkpt>
      <trkpt lat="45.991881564259529" lon="8.127022068947554">
        <ele>934.75</ele>
        <time>2022-01-06T14:20:06Z</time>
      </trkpt>
      <trkpt lat="45.991892293095589" lon="8.127037659287453">
        <ele>934.94000000000005</ele>
        <time>2022-01-06T14:20:22Z</time>
      </trkpt>
      <trkpt lat="45.991885336115956" lon="8.127017375081778">
        <ele>935.49000000000001</ele>
        <time>2022-01-06T14:20:38Z</time>
      </trkpt>
      <trkpt lat="45.991887431591749" lon="8.127045622095466">
        <ele>935.57000000000005</ele>
        <time>2022-01-06T14:20:53Z</time>
      </trkpt>
      <trkpt lat="45.991901094093919" lon="8.127054423093796">
        <ele>935.58000000000004</ele>
        <time>2022-01-06T14:21:05Z</time>
      </trkpt>
      <trkpt lat="45.991910817101598" lon="8.127052914351225">
        <ele>935.69000000000005</ele>
        <time>2022-01-06T14:21:19Z</time>
      </trkpt>
      <trkpt lat="45.991901177912951" lon="8.127064062282443">
        <ele>935.74000000000001</ele>
        <time>2022-01-06T14:21:27Z</time>
      </trkpt>
      <trkpt lat="45.991891957819462" lon="8.127071270719171">
        <ele>935.82000000000005</ele>
        <time>2022-01-06T14:21:45Z</time>
      </trkpt>
      <trkpt lat="45.991903860121965" lon="8.127063475549221">
        <ele>936.59000000000003</ele>
        <time>2022-01-06T14:22:08Z</time>
      </trkpt>
      <trkpt lat="45.991923306137323" lon="8.127042101696134">
        <ele>937.76999999999998</ele>
        <time>2022-01-06T14:22:23Z</time>
      </trkpt>
      <trkpt lat="45.991925820708275" lon="8.127041766420007">
        <ele>936.89999999999998</ele>
        <time>2022-01-06T14:22:25Z</time>
      </trkpt>
      <trkpt lat="45.99192950874567" lon="8.127032797783613">
        <ele>930.60000000000002</ele>
        <time>2022-01-06T14:22:30Z</time>
      </trkpt>
      <trkpt lat="45.991930933669209" lon="8.127032462507486">
        <ele>933.76999999999998</ele>
        <time>2022-01-06T14:22:31Z</time>
      </trkpt>
      <trkpt lat="45.99193193949759" lon="8.127032965421677">
        <ele>941.96000000000004</ele>
        <time>2022-01-06T14:22:32Z</time>
      </trkpt>
      <trkpt lat="45.991932107135653" lon="8.127032797783613">
        <ele>939.13</ele>
        <time>2022-01-06T14:22:33Z</time>
      </trkpt>
      <trkpt lat="45.991930430755019" lon="8.127033300697804">
        <ele>937.22000000000003</ele>
        <time>2022-01-06T14:22:36Z</time>
      </trkpt>
      <trkpt lat="45.991929257288575" lon="8.127032546326518">
        <ele>933.51999999999998</ele>
        <time>2022-01-06T14:22:41Z</time>
      </trkpt>
      <trkpt lat="45.991929089650512" lon="8.127032881602645">
        <ele>935.30999999999995</ele>
        <time>2022-01-06T14:22:42Z</time>
      </trkpt>
      <trkpt lat="45.991926323622465" lon="8.127033971250057">
        <ele>940.85000000000002</ele>
        <time>2022-01-06T14:22:46Z</time>
      </trkpt>
      <trkpt lat="45.991924814879894" lon="8.127036150544882">
        <ele>938.91999999999996</ele>
        <time>2022-01-06T14:22:47Z</time>
      </trkpt>
      <trkpt lat="45.991918863728642" lon="8.127039754763246">
        <ele>936.69000000000005</ele>
        <time>2022-01-06T14:22:50Z</time>
      </trkpt>
      <trkpt lat="45.991908889263868" lon="8.127028690651059">
        <ele>936.38</ele>
        <time>2022-01-06T14:23:08Z</time>
      </trkpt>
      <trkpt lat="45.991901513189077" lon="8.127006143331528">
        <ele>936.79999999999995</ele>
        <time>2022-01-06T14:23:30Z</time>
      </trkpt>
      <trkpt lat="45.991927329450846" lon="8.126994576305151">
        <ele>936.88999999999999</ele>
        <time>2022-01-06T14:23:50Z</time>
      </trkpt>
      <trkpt lat="45.991971669718623" lon="8.126978063955903">
        <ele>936.71000000000004</ele>
        <time>2022-01-06T14:24:08Z</time>
      </trkpt>
      <trkpt lat="45.992003856226802" lon="8.126966245472431">
        <ele>936.86000000000001</ele>
        <time>2022-01-06T14:24:29Z</time>
      </trkpt>
      <trkpt lat="45.992013327777386" lon="8.126951744779944">
        <ele>936.74000000000001</ele>
        <time>2022-01-06T14:24:53Z</time>
      </trkpt>
      <trkpt lat="45.99198424257338" lon="8.126968257129192">
        <ele>936.87</ele>
        <time>2022-01-06T14:25:12Z</time>
      </trkpt>
      <trkpt lat="45.991990026086569" lon="8.126940848305821">
        <ele>936.92999999999995</ele>
        <time>2022-01-06T14:25:46Z</time>
      </trkpt>
      <trkpt lat="45.991995390504599" lon="8.12696666456759">
        <ele>936.91999999999996</ele>
        <time>2022-01-06T14:26:14Z</time>
      </trkpt>
      <trkpt lat="45.991972256451845" lon="8.126985523849726">
        <ele>936.85000000000002</ele>
        <time>2022-01-06T14:26:35Z</time>
      </trkpt>
      <trkpt lat="45.991936717182398" lon="8.127005305141211">
        <ele>936.95000000000005</ele>
        <time>2022-01-06T14:26:52Z</time>
      </trkpt>
      <trkpt lat="45.991943506523967" lon="8.127011172473431">
        <ele>936.88999999999999</ele>
        <time>2022-01-06T14:27:12Z</time>
      </trkpt>
      <trkpt lat="45.991962114349008" lon="8.127008574083448">
        <ele>937.00999999999999</ele>
        <time>2022-01-06T14:27:35Z</time>
      </trkpt>
      <trkpt lat="45.991966472938657" lon="8.126988457515836">
        <ele>936.84000000000003</ele>
        <time>2022-01-06T14:27:59Z</time>
      </trkpt>
      <trkpt lat="45.991959348320961" lon="8.126980662345886">
        <ele>936.98000000000002</ele>
        <time>2022-01-06T14:28:18Z</time>
      </trkpt>
      <trkpt lat="45.991956582292914" lon="8.126973202452064">
        <ele>937.25999999999999</ele>
        <time>2022-01-06T14:28:40Z</time>
      </trkpt>
      <trkpt lat="45.99197200499475" lon="8.126963395625353">
        <ele>937.11000000000001</ele>
        <time>2022-01-06T14:29:02Z</time>
      </trkpt>
      <trkpt lat="45.992001509293914" lon="8.126964066177607">
        <ele>937.07000000000005</ele>
        <time>2022-01-06T14:29:24Z</time>
      </trkpt>
      <trkpt lat="45.992011986672878" lon="8.126973789185286">
        <ele>937.38</ele>
        <time>2022-01-06T14:29:46Z</time>
      </trkpt>
      <trkpt lat="45.991979129612446" lon="8.126987116411328">
        <ele>937.67999999999995</ele>
        <time>2022-01-06T14:30:12Z</time>
      </trkpt>
      <trkpt lat="45.991959851235151" lon="8.127001617103815">
        <ele>937.59000000000003</ele>
        <time>2022-01-06T14:30:39Z</time>
      </trkpt>
      <trkpt lat="45.99197250790894" lon="8.126973873004317">
        <ele>937.34000000000003</ele>
        <time>2022-01-06T14:30:59Z</time>
      </trkpt>
      <trkpt lat="45.991966053843498" lon="8.127002287656069">
        <ele>937.65999999999997</ele>
        <time>2022-01-06T14:31:14Z</time>
      </trkpt>
      <trkpt lat="45.991982314735651" lon="8.127006310969591">
        <ele>937.65999999999997</ele>
        <time>2022-01-06T14:31:38Z</time>
      </trkpt>
      <trkpt lat="45.9919798001647" lon="8.126976555213332">
        <ele>937.58000000000004</ele>
        <time>2022-01-06T14:31:57Z</time>
      </trkpt>
      <trkpt lat="45.991949625313282" lon="8.126968005672097">
        <ele>937.75</ele>
        <time>2022-01-06T14:32:14Z</time>
      </trkpt>
      <trkpt lat="45.991937639191747" lon="8.126957947388291">
        <ele>936.03999999999996</ele>
        <time>2022-01-06T14:32:33Z</time>
      </trkpt>
      <trkpt lat="45.991935208439827" lon="8.126957947388291">
        <ele>939.25999999999999</ele>
        <time>2022-01-06T14:32:34Z</time>
      </trkpt>
      <trkpt lat="45.991929844021797" lon="8.126962389796972">
        <ele>938.33000000000004</ele>
        <time>2022-01-06T14:32:35Z</time>
      </trkpt>
      <trkpt lat="45.991939986124635" lon="8.126990469172597">
        <ele>937.80999999999995</ele>
        <time>2022-01-06T14:32:55Z</time>
      </trkpt>
      <trkpt lat="45.991932358592749" lon="8.126978650689125">
        <ele>937.58000000000004</ele>
        <time>2022-01-06T14:33:17Z</time>
      </trkpt>
      <trkpt lat="45.991904195398092" lon="8.126976387575269">
        <ele>937.80999999999995</ele>
        <time>2022-01-06T14:33:35Z</time>
      </trkpt>
      <trkpt lat="45.991846946999431" lon="8.126928778365254">
        <ele>936.66999999999996</ele>
        <time>2022-01-06T14:33:51Z</time>
      </trkpt>
      <trkpt lat="45.991806127130985" lon="8.126877564936876">
        <ele>933.85000000000002</ele>
        <time>2022-01-06T14:34:03Z</time>
      </trkpt>
      <trkpt lat="45.991766396909952" lon="8.12691293656826">
        <ele>931.13</ele>
        <time>2022-01-06T14:34:14Z</time>
      </trkpt>
      <trkpt lat="45.991763295605779" lon="8.126993905752897">
        <ele>927.94000000000005</ele>
        <time>2022-01-06T14:34:27Z</time>
      </trkpt>
      <trkpt lat="45.991722978651524" lon="8.127065235748887">
        <ele>924.70000000000005</ele>
        <time>2022-01-06T14:34:38Z</time>
      </trkpt>
      <trkpt lat="45.991730857640505" lon="8.127187108621001">
        <ele>921.62</ele>
        <time>2022-01-06T14:34:48Z</time>
      </trkpt>
      <trkpt lat="45.991732282564044" lon="8.12723446637392">
        <ele>920.42999999999995</ele>
        <time>2022-01-06T14:34:52Z</time>
      </trkpt>
      <trkpt lat="45.991789866238832" lon="8.127335216850042">
        <ele>918.01999999999998</ele>
        <time>2022-01-06T14:35:03Z</time>
      </trkpt>
      <trkpt lat="45.991831608116627" lon="8.127355333417654">
        <ele>916.34000000000003</ele>
        <time>2022-01-06T14:35:09Z</time>
      </trkpt>
      <trkpt lat="45.991901597008109" lon="8.127389783039689">
        <ele>913.01999999999998</ele>
        <time>2022-01-06T14:35:20Z</time>
      </trkpt>
      <trkpt lat="45.991912828758359" lon="8.127408558502793">
        <ele>912.10000000000002</ele>
        <time>2022-01-06T14:35:22Z</time>
      </trkpt>
      <trkpt lat="45.991863878443837" lon="8.127453234046698">
        <ele>909.25999999999999</ele>
        <time>2022-01-06T14:35:32Z</time>
      </trkpt>
      <trkpt lat="45.991784334182739" lon="8.127522803843021">
        <ele>905.95000000000005</ele>
        <time>2022-01-06T14:35:43Z</time>
      </trkpt>
      <trkpt lat="45.991667238995433" lon="8.127520959824324">
        <ele>902.95000000000005</ele>
        <time>2022-01-06T14:35:56Z</time>
      </trkpt>
      <trkpt lat="45.99163337610662" lon="8.127573681995273">
        <ele>899.82000000000005</ele>
        <time>2022-01-06T14:36:06Z</time>
      </trkpt>
      <trkpt lat="45.991669669747353" lon="8.127655489370227">
        <ele>897.66999999999996</ele>
        <time>2022-01-06T14:36:15Z</time>
      </trkpt>
      <trkpt lat="45.991579229012132" lon="8.127679545432329">
        <ele>894.50999999999999</ele>
        <time>2022-01-06T14:36:25Z</time>
      </trkpt>
      <trkpt lat="45.991504546254873" lon="8.127649622038007">
        <ele>892.01999999999998</ele>
        <time>2022-01-06T14:36:33Z</time>
      </trkpt>
      <trkpt lat="45.991385271772742" lon="8.127632439136505">
        <ele>888.63</ele>
        <time>2022-01-06T14:36:45Z</time>
      </trkpt>
      <trkpt lat="45.991314863786101" lon="8.127528503537178">
        <ele>885.57000000000005</ele>
        <time>2022-01-06T14:36:56Z</time>
      </trkpt>
      <trkpt lat="45.991266667842865" lon="8.127434123307467">
        <ele>883</ele>
        <time>2022-01-06T14:37:08Z</time>
      </trkpt>
      <trkpt lat="45.991219561547041" lon="8.12742255628109">
        <ele>880.38</ele>
        <time>2022-01-06T14:37:18Z</time>
      </trkpt>
      <trkpt lat="45.991213358938694" lon="8.127421969547868">
        <ele>880.13999999999999</ele>
        <time>2022-01-06T14:37:19Z</time>
      </trkpt>
      <trkpt lat="45.991196846589446" lon="8.127429597079754">
        <ele>879.04999999999995</ele>
        <time>2022-01-06T14:37:21Z</time>
      </trkpt>
      <trkpt lat="45.99117262288928" lon="8.127541914582253">
        <ele>876.71000000000004</ele>
        <time>2022-01-06T14:37:31Z</time>
      </trkpt>
      <trkpt lat="45.991152757778764" lon="8.127525150775909">
        <ele>876.38</ele>
        <time>2022-01-06T14:37:41Z</time>
      </trkpt>
      <trkpt lat="45.991134904325008" lon="8.127516349777579">
        <ele>876.25</ele>
        <time>2022-01-06T14:37:59Z</time>
      </trkpt>
      <trkpt lat="45.99113549105823" lon="8.127497406676412">
        <ele>876.34000000000003</ele>
        <time>2022-01-06T14:38:18Z</time>
      </trkpt>
      <trkpt lat="45.991127863526344" lon="8.127575190737844">
        <ele>876.79999999999995</ele>
        <time>2022-01-06T14:38:34Z</time>
      </trkpt>
      <trkpt lat="45.991140939295292" lon="8.12759698368609">
        <ele>876.88</ele>
        <time>2022-01-06T14:38:48Z</time>
      </trkpt>
      <trkpt lat="45.991119649261236" lon="8.127526408061385">
        <ele>876.88</ele>
        <time>2022-01-06T14:39:01Z</time>
      </trkpt>
      <trkpt lat="45.991124846041203" lon="8.127485672011972">
        <ele>876.74000000000001</ele>
        <time>2022-01-06T14:39:16Z</time>
      </trkpt>
      <trkpt lat="45.991102466359735" lon="8.127479217946529">
        <ele>875.5</ele>
        <time>2022-01-06T14:39:27Z</time>
      </trkpt>
      <trkpt lat="45.991063071414828" lon="8.127531688660383">
        <ele>872.78999999999996</ele>
        <time>2022-01-06T14:39:36Z</time>
      </trkpt>
      <trkpt lat="45.991059467196465" lon="8.127570999786258">
        <ele>872.19000000000005</ele>
        <time>2022-01-06T14:39:39Z</time>
      </trkpt>
      <trkpt lat="45.991080002859235" lon="8.127658506855369">
        <ele>871.51999999999998</ele>
        <time>2022-01-06T14:39:44Z</time>
      </trkpt>
      <trkpt lat="45.991105819121003" lon="8.127725059166551">
        <ele>870.84000000000003</ele>
        <time>2022-01-06T14:39:50Z</time>
      </trkpt>
      <trkpt lat="45.991098191589117" lon="8.127787923440337">
        <ele>868.82000000000005</ele>
        <time>2022-01-06T14:39:55Z</time>
      </trkpt>
      <trkpt lat="45.991104226559401" lon="8.127871407195926">
        <ele>867.76999999999998</ele>
        <time>2022-01-06T14:40:00Z</time>
      </trkpt>
      <trkpt lat="45.991140268743038" lon="8.127910047769547">
        <ele>867.15999999999997</ele>
        <time>2022-01-06T14:40:07Z</time>
      </trkpt>
      <trkpt lat="45.991147980093956" lon="8.12801381573081">
        <ele>864.90999999999997</ele>
        <time>2022-01-06T14:40:16Z</time>
      </trkpt>
      <trkpt lat="45.991233224049211" lon="8.128084223717451">
        <ele>863.39999999999998</ele>
        <time>2022-01-06T14:40:27Z</time>
      </trkpt>
      <trkpt lat="45.991253592073917" lon="8.128091935068369">
        <ele>862.92999999999995</ele>
        <time>2022-01-06T14:40:29Z</time>
      </trkpt>
      <trkpt lat="45.991264237090945" lon="8.128128480166197">
        <ele>861.71000000000004</ele>
        <time>2022-01-06T14:40:33Z</time>
      </trkpt>
      <trkpt lat="45.991252586245537" lon="8.128213137388229">
        <ele>859.63</ele>
        <time>2022-01-06T14:40:40Z</time>
      </trkpt>
      <trkpt lat="45.991256525740027" lon="8.128233924508095">
        <ele>858.97000000000003</ele>
        <time>2022-01-06T14:40:42Z</time>
      </trkpt>
      <trkpt lat="45.991274127736688" lon="8.128310367465019">
        <ele>855.40999999999997</ele>
        <time>2022-01-06T14:40:51Z</time>
      </trkpt>
      <trkpt lat="45.991316037252545" lon="8.128342302516103">
        <ele>853.74000000000001</ele>
        <time>2022-01-06T14:40:58Z</time>
      </trkpt>
      <trkpt lat="45.991362808272243" lon="8.128364514559507">
        <ele>852.37</ele>
        <time>2022-01-06T14:41:03Z</time>
      </trkpt>
      <trkpt lat="45.991449309512973" lon="8.128407513722777">
        <ele>849.20000000000005</ele>
        <time>2022-01-06T14:41:14Z</time>
      </trkpt>
      <trkpt lat="45.991496248170733" lon="8.128445316106081">
        <ele>846.16999999999996</ele>
        <time>2022-01-06T14:41:27Z</time>
      </trkpt>
      <trkpt lat="45.99155031144619" lon="8.128466019406915">
        <ele>842.91999999999996</ele>
        <time>2022-01-06T14:41:38Z</time>
      </trkpt>
      <trkpt lat="45.99156204611063" lon="8.128517651930451">
        <ele>839.79999999999995</ele>
        <time>2022-01-06T14:41:50Z</time>
      </trkpt>
      <trkpt lat="45.99155374802649" lon="8.128519663587213">
        <ele>839.62</ele>
        <time>2022-01-06T14:41:51Z</time>
      </trkpt>
      <trkpt lat="45.991467162966728" lon="8.128569032996893">
        <ele>837.79999999999995</ele>
        <time>2022-01-06T14:42:01Z</time>
      </trkpt>
      <trkpt lat="45.991459116339684" lon="8.128593927249312">
        <ele>836.26999999999998</ele>
        <time>2022-01-06T14:42:08Z</time>
      </trkpt>
      <trkpt lat="45.991521645337343" lon="8.128638351336122">
        <ele>833.13</ele>
        <time>2022-01-06T14:42:21Z</time>
      </trkpt>
      <trkpt lat="45.991570763289928" lon="8.128668945282698">
        <ele>829.91999999999996</ele>
        <time>2022-01-06T14:42:30Z</time>
      </trkpt>
      <trkpt lat="45.99157671444118" lon="8.128673136234283">
        <ele>829.63</ele>
        <time>2022-01-06T14:42:31Z</time>
      </trkpt>
      <trkpt lat="45.991650139912963" lon="8.128696018829942">
        <ele>826.47000000000003</ele>
        <time>2022-01-06T14:42:43Z</time>
      </trkpt>
      <trkpt lat="45.99169640801847" lon="8.128749998286367">
        <ele>823.76999999999998</ele>
        <time>2022-01-06T14:42:54Z</time>
      </trkpt>
      <trkpt lat="45.991739742457867" lon="8.128811353817582">
        <ele>820.89999999999998</ele>
        <time>2022-01-06T14:43:04Z</time>
      </trkpt>
      <trkpt lat="45.991775868460536" lon="8.128880001604557">
        <ele>817.83000000000004</ele>
        <time>2022-01-06T14:43:15Z</time>
      </trkpt>
      <trkpt lat="45.991746028885245" lon="8.128907661885023">
        <ele>814.78999999999996</ele>
        <time>2022-01-06T14:43:27Z</time>
      </trkpt>
      <trkpt lat="45.991729935631156" lon="8.128893496468663">
        <ele>812.26999999999998</ele>
        <time>2022-01-06T14:43:39Z</time>
      </trkpt>
      <trkpt lat="45.991734294220805" lon="8.128947643563151">
        <ele>809.14999999999998</ele>
        <time>2022-01-06T14:43:50Z</time>
      </trkpt>
      <trkpt lat="45.991746950894594" lon="8.12904235906899">
        <ele>806.26999999999998</ele>
        <time>2022-01-06T14:44:01Z</time>
      </trkpt>
      <trkpt lat="45.991751309484243" lon="8.129116874188185">
        <ele>803.67999999999995</ele>
        <time>2022-01-06T14:44:10Z</time>
      </trkpt>
      <trkpt lat="45.991756338626146" lon="8.129137828946114">
        <ele>803.15999999999997</ele>
        <time>2022-01-06T14:44:13Z</time>
      </trkpt>
      <trkpt lat="45.991774862632155" lon="8.129179235547781">
        <ele>801.83000000000004</ele>
        <time>2022-01-06T14:44:17Z</time>
      </trkpt>
      <trkpt lat="45.991709567606449" lon="8.129225755110383">
        <ele>800.44000000000005</ele>
        <time>2022-01-06T14:44:26Z</time>
      </trkpt>
      <trkpt lat="45.991694312542677" lon="8.129277219995856">
        <ele>798.67999999999995</ele>
        <time>2022-01-06T14:44:36Z</time>
      </trkpt>
      <trkpt lat="45.991677129641175" lon="8.129309825599194">
        <ele>797.54999999999995</ele>
        <time>2022-01-06T14:44:40Z</time>
      </trkpt>
      <trkpt lat="45.991693893447518" lon="8.129329774528742">
        <ele>796.95000000000005</ele>
        <time>2022-01-06T14:44:53Z</time>
      </trkpt>
      <trkpt lat="45.991745861247182" lon="8.129370929673314">
        <ele>795.38</ele>
        <time>2022-01-06T14:45:07Z</time>
      </trkpt>
      <trkpt lat="45.991721637547016" lon="8.129422394558787">
        <ele>792.88</ele>
        <time>2022-01-06T14:45:16Z</time>
      </trkpt>
      <trkpt lat="45.991680398583412" lon="8.129469668492675">
        <ele>789.78999999999996</ele>
        <time>2022-01-06T14:45:27Z</time>
      </trkpt>
      <trkpt lat="45.991687690839171" lon="8.129490623250604">
        <ele>789.30999999999995</ele>
        <time>2022-01-06T14:45:29Z</time>
      </trkpt>
      <trkpt lat="45.991749297827482" lon="8.1295529846102">
        <ele>786.71000000000004</ele>
        <time>2022-01-06T14:45:39Z</time>
      </trkpt>
      <trkpt lat="45.991753069683909" lon="8.129562120884657">
        <ele>786.60000000000002</ele>
        <time>2022-01-06T14:45:40Z</time>
      </trkpt>
      <trkpt lat="45.991789698600769" lon="8.129599504172802">
        <ele>784.63999999999999</ele>
        <time>2022-01-06T14:45:47Z</time>
      </trkpt>
      <trkpt lat="45.991771426051855" lon="8.129607047885656">
        <ele>782.47000000000003</ele>
        <time>2022-01-06T14:45:57Z</time>
      </trkpt>
      <trkpt lat="45.991758769378066" lon="8.129618111997843">
        <ele>781.15999999999997</ele>
        <time>2022-01-06T14:46:02Z</time>
      </trkpt>
      <trkpt lat="45.991756757721305" lon="8.129665050655603">
        <ele>779.29999999999995</ele>
        <time>2022-01-06T14:46:09Z</time>
      </trkpt>
      <trkpt lat="45.991729181259871" lon="8.12969421967864">
        <ele>776.75999999999999</ele>
        <time>2022-01-06T14:46:20Z</time>
      </trkpt>
      <trkpt lat="45.991672268137336" lon="8.129665469750762">
        <ele>775.04999999999995</ele>
        <time>2022-01-06T14:46:27Z</time>
      </trkpt>
      <trkpt lat="45.991600938141346" lon="8.129599504172802">
        <ele>774.87</ele>
        <time>2022-01-06T14:46:36Z</time>
      </trkpt>
      <trkpt lat="45.991532541811466" lon="8.129533706232905">
        <ele>772.65999999999997</ele>
        <time>2022-01-06T14:46:47Z</time>
      </trkpt>
      <trkpt lat="45.991475293412805" lon="8.129514260217547">
        <ele>770.09000000000003</ele>
        <time>2022-01-06T14:46:57Z</time>
      </trkpt>
      <trkpt lat="45.991428270936012" lon="8.129449300467968">
        <ele>767.87</ele>
        <time>2022-01-06T14:47:08Z</time>
      </trkpt>
      <trkpt lat="45.991401029750705" lon="8.129382245242596">
        <ele>765.57000000000005</ele>
        <time>2022-01-06T14:47:17Z</time>
      </trkpt>
      <trkpt lat="45.991392228752375" lon="8.129371013492346">
        <ele>764.71000000000004</ele>
        <time>2022-01-06T14:47:19Z</time>
      </trkpt>
      <trkpt lat="45.991350067779422" lon="8.129306975752115">
        <ele>762.42999999999995</ele>
        <time>2022-01-06T14:47:29Z</time>
      </trkpt>
      <trkpt lat="45.991294663399458" lon="8.129270598292351">
        <ele>759.51999999999998</ele>
        <time>2022-01-06T14:47:40Z</time>
      </trkpt>
      <trkpt lat="45.991253592073917" lon="8.129227096214891">
        <ele>757.57000000000005</ele>
        <time>2022-01-06T14:47:49Z</time>
      </trkpt>
      <trkpt lat="45.991228111088276" lon="8.129195747897029">
        <ele>755.48000000000002</ele>
        <time>2022-01-06T14:47:54Z</time>
      </trkpt>
      <trkpt lat="45.991175305098295" lon="8.129147803410888">
        <ele>752.72000000000003</ele>
        <time>2022-01-06T14:48:05Z</time>
      </trkpt>
      <trkpt lat="45.991111686453223" lon="8.129083514213562">
        <ele>749.50999999999999</ele>
        <time>2022-01-06T14:48:16Z</time>
      </trkpt>
      <trkpt lat="45.991079416126013" lon="8.12903649173677">
        <ele>747.94000000000005</ele>
        <time>2022-01-06T14:48:22Z</time>
      </trkpt>
      <trkpt lat="45.991042787209153" lon="8.129024170339108">
        <ele>745.44000000000005</ele>
        <time>2022-01-06T14:48:32Z</time>
      </trkpt>
      <trkpt lat="45.991045804694295" lon="8.129083011299372">
        <ele>742.90999999999997</ele>
        <time>2022-01-06T14:48:41Z</time>
      </trkpt>
      <trkpt lat="45.991004649549723" lon="8.129100529477">
        <ele>740.41999999999996</ele>
        <time>2022-01-06T14:48:50Z</time>
      </trkpt>
      <trkpt lat="45.99100255407393" lon="8.129120981320739">
        <ele>738.80999999999995</ele>
        <time>2022-01-06T14:49:02Z</time>
      </trkpt>
      <trkpt lat="45.990971708670259" lon="8.129113353788853">
        <ele>737.88</ele>
        <time>2022-01-06T14:49:05Z</time>
      </trkpt>
      <trkpt lat="45.990946143865585" lon="8.129010759294033">
        <ele>737.13999999999999</ele>
        <time>2022-01-06T14:49:14Z</time>
      </trkpt>
      <trkpt lat="45.99090289324522" lon="8.128985865041614">
        <ele>736.73000000000002</ele>
        <time>2022-01-06T14:49:18Z</time>
      </trkpt>
      <trkpt lat="45.990833407267928" lon="8.128986116498709">
        <ele>735.35000000000002</ele>
        <time>2022-01-06T14:49:26Z</time>
      </trkpt>
      <trkpt lat="45.990806417539716" lon="8.129002377390862">
        <ele>734.51999999999998</ele>
        <time>2022-01-06T14:49:29Z</time>
      </trkpt>
      <trkpt lat="45.99070256575942" lon="8.128997934982181">
        <ele>731.72000000000003</ele>
        <time>2022-01-06T14:49:39Z</time>
      </trkpt>
      <trkpt lat="45.990648837760091" lon="8.129014614969492">
        <ele>729.35000000000002</ele>
        <time>2022-01-06T14:49:46Z</time>
      </trkpt>
      <trkpt lat="45.99058379419148" lon="8.129002964124084">
        <ele>726.74000000000001</ele>
        <time>2022-01-06T14:49:58Z</time>
      </trkpt>
      <trkpt lat="45.990582620725036" lon="8.129035905003548">
        <ele>723.66999999999996</ele>
        <time>2022-01-06T14:50:10Z</time>
      </trkpt>
      <trkpt lat="45.990564180538058" lon="8.129107905551791">
        <ele>720.65999999999997</ele>
        <time>2022-01-06T14:50:22Z</time>
      </trkpt>
      <trkpt lat="45.990471225231886" lon="8.129094578325748">
        <ele>718.28999999999996</ele>
        <time>2022-01-06T14:50:33Z</time>
      </trkpt>
      <trkpt lat="45.990417245775461" lon="8.129050405696034">
        <ele>716.47000000000003</ele>
        <time>2022-01-06T14:50:43Z</time>
      </trkpt>
      <trkpt lat="45.990397883579135" lon="8.129033138975501">
        <ele>715.51999999999998</ele>
        <time>2022-01-06T14:50:47Z</time>
      </trkpt>
      <trkpt lat="45.990323955193162" lon="8.129009669646621">
        <ele>712.38</ele>
        <time>2022-01-06T14:50:59Z</time>
      </trkpt>
      <trkpt lat="45.990289840847254" lon="8.129080999642611">
        <ele>709.52999999999997</ele>
        <time>2022-01-06T14:51:09Z</time>
      </trkpt>
      <trkpt lat="45.990252206102014" lon="8.129138918593526">
        <ele>707.47000000000003</ele>
        <time>2022-01-06T14:51:20Z</time>
      </trkpt>
      <trkpt lat="45.990199986845255" lon="8.129115113988519">
        <ele>704.24000000000001</ele>
        <time>2022-01-06T14:51:31Z</time>
      </trkpt>
      <trkpt lat="45.990160340443254" lon="8.129149898886681">
        <ele>701.87</ele>
        <time>2022-01-06T14:51:39Z</time>
      </trkpt>
      <trkpt lat="45.990160591900349" lon="8.129159789532423">
        <ele>701.62</ele>
        <time>2022-01-06T14:51:40Z</time>
      </trkpt>
      <trkpt lat="45.990144666284323" lon="8.129268921911717">
        <ele>698.02999999999997</ele>
        <time>2022-01-06T14:51:49Z</time>
      </trkpt>
      <trkpt lat="45.99014550447464" lon="8.12938341870904">
        <ele>696.25</ele>
        <time>2022-01-06T14:52:00Z</time>
      </trkpt>
      <trkpt lat="45.990129075944424" lon="8.129431447014213">
        <ele>693.64999999999998</ele>
        <time>2022-01-06T14:52:12Z</time>
      </trkpt>
      <trkpt lat="45.990147180855274" lon="8.129501771181822">
        <ele>690.61000000000001</ele>
        <time>2022-01-06T14:52:24Z</time>
      </trkpt>
      <trkpt lat="45.990081466734409" lon="8.129556002095342">
        <ele>687.55999999999995</ele>
        <time>2022-01-06T14:52:35Z</time>
      </trkpt>
      <trkpt lat="45.990003431215882" lon="8.129584584385157">
        <ele>684.34000000000003</ele>
        <time>2022-01-06T14:52:45Z</time>
      </trkpt>
      <trkpt lat="45.989962108433247" lon="8.129569161683321">
        <ele>682.61000000000001</ele>
        <time>2022-01-06T14:52:50Z</time>
      </trkpt>
      <trkpt lat="45.989907374605536" lon="8.129549380391836">
        <ele>681.04999999999995</ele>
        <time>2022-01-06T14:52:55Z</time>
      </trkpt>
      <trkpt lat="45.989847276359797" lon="8.129460783675313">
        <ele>679.16999999999996</ele>
        <time>2022-01-06T14:53:04Z</time>
      </trkpt>
      <trkpt lat="45.989831686019897" lon="8.129325499758124">
        <ele>678.28999999999996</ele>
        <time>2022-01-06T14:53:16Z</time>
      </trkpt>
      <trkpt lat="45.989791033789515" lon="8.129294151440263">
        <ele>675.64999999999998</ele>
        <time>2022-01-06T14:53:26Z</time>
      </trkpt>
      <trkpt lat="45.989729342982173" lon="8.129284763708711">
        <ele>672.58000000000004</ele>
        <time>2022-01-06T14:53:36Z</time>
      </trkpt>
      <trkpt lat="45.9896778780967" lon="8.129228018224239">
        <ele>669.34000000000003</ele>
        <time>2022-01-06T14:53:50Z</time>
      </trkpt>
      <trkpt lat="45.989608056843281" lon="8.129244027659297">
        <ele>666.89999999999998</ele>
        <time>2022-01-06T14:54:01Z</time>
      </trkpt>
      <trkpt lat="45.989525662735105" lon="8.129242602735758">
        <ele>663.67999999999995</ele>
        <time>2022-01-06T14:54:13Z</time>
      </trkpt>
      <trkpt lat="45.989438826218247" lon="8.129238747060299">
        <ele>660.77999999999997</ele>
        <time>2022-01-06T14:54:25Z</time>
      </trkpt>
      <trkpt lat="45.989360958337784" lon="8.129223240539432">
        <ele>657.57000000000005</ele>
        <time>2022-01-06T14:54:38Z</time>
      </trkpt>
      <trkpt lat="45.989304045215249" lon="8.129304377362132">
        <ele>654.88999999999999</ele>
        <time>2022-01-06T14:54:52Z</time>
      </trkpt>
      <trkpt lat="45.989208994433284" lon="8.12930278480053">
        <ele>652.00999999999999</ele>
        <time>2022-01-06T14:55:04Z</time>
      </trkpt>
      <trkpt lat="45.989140598103404" lon="8.129239585250616">
        <ele>650.22000000000003</ele>
        <time>2022-01-06T14:55:16Z</time>
      </trkpt>
      <trkpt lat="45.989121152088046" lon="8.12924612313509">
        <ele>649.90999999999997</ele>
        <time>2022-01-06T14:55:18Z</time>
      </trkpt>
      <trkpt lat="45.989075051620603" lon="8.129204465076327">
        <ele>648.87</ele>
        <time>2022-01-06T14:55:24Z</time>
      </trkpt>
      <trkpt lat="45.989039428532124" lon="8.129152581095696">
        <ele>649.37</ele>
        <time>2022-01-06T14:55:29Z</time>
      </trkpt>
      <trkpt lat="45.988983856514096" lon="8.129075970500708">
        <ele>648.03999999999996</ele>
        <time>2022-01-06T14:55:39Z</time>
      </trkpt>
      <trkpt lat="45.988992154598236" lon="8.129058787599206">
        <ele>648.24000000000001</ele>
        <time>2022-01-06T14:55:53Z</time>
      </trkpt>
      <trkpt lat="45.988999363034964" lon="8.129053423181176">
        <ele>642.00999999999999</ele>
        <time>2022-01-06T14:55:59Z</time>
      </trkpt>
      <trkpt lat="45.989001207053661" lon="8.129051830619574">
        <ele>645.63999999999999</ele>
        <time>2022-01-06T14:56:01Z</time>
      </trkpt>
      <trkpt lat="45.989001542329788" lon="8.129053842276335">
        <ele>649.11000000000001</ele>
        <time>2022-01-06T14:56:02Z</time>
      </trkpt>
      <trkpt lat="45.989005314186215" lon="8.129047136753798">
        <ele>648.86000000000001</ele>
        <time>2022-01-06T14:56:03Z</time>
      </trkpt>
      <trkpt lat="45.989044373854995" lon="8.129035402089357">
        <ele>647.63999999999999</ele>
        <time>2022-01-06T14:56:25Z</time>
      </trkpt>
      <trkpt lat="45.989064071327448" lon="8.129036407917738">
        <ele>646.52999999999997</ele>
        <time>2022-01-06T14:56:34Z</time>
      </trkpt>
      <trkpt lat="45.989071698859334" lon="8.129020817577839">
        <ele>650.92999999999995</ele>
        <time>2022-01-06T14:56:42Z</time>
      </trkpt>
      <trkpt lat="45.989071615040302" lon="8.129020733758807">
        <ele>649.15999999999997</ele>
        <time>2022-01-06T14:56:43Z</time>
      </trkpt>
      <trkpt lat="45.989072620868683" lon="8.129023415967822">
        <ele>647.59000000000003</ele>
        <time>2022-01-06T14:56:46Z</time>
      </trkpt>
      <trkpt lat="45.989054599776864" lon="8.129020817577839">
        <ele>647.54999999999995</ele>
        <time>2022-01-06T14:57:09Z</time>
      </trkpt>
      <trkpt lat="45.989050408825278" lon="8.128997515887022">
        <ele>647.91999999999996</ele>
        <time>2022-01-06T14:57:31Z</time>
      </trkpt>
      <trkpt lat="45.989037333056331" lon="8.129010507836938">
        <ele>647.64999999999998</ele>
        <time>2022-01-06T14:57:54Z</time>
      </trkpt>
      <trkpt lat="45.989038674160838" lon="8.129026098176837">
        <ele>647.70000000000005</ele>
        <time>2022-01-06T14:58:15Z</time>
      </trkpt>
      <trkpt lat="45.989036494866014" lon="8.129058284685016">
        <ele>647.85000000000002</ele>
        <time>2022-01-06T14:58:36Z</time>
      </trkpt>
      <trkpt lat="45.989040518179536" lon="8.129033977165818">
        <ele>647.72000000000003</ele>
        <time>2022-01-06T14:58:57Z</time>
      </trkpt>
      <trkpt lat="45.989045295864344" lon="8.128991480916739">
        <ele>647.60000000000002</ele>
        <time>2022-01-06T14:59:18Z</time>
      </trkpt>
      <trkpt lat="45.98904806189239" lon="8.129017380997539">
        <ele>647.75999999999999</ele>
        <time>2022-01-06T14:59:47Z</time>
      </trkpt>
      <trkpt lat="45.9890509955585" lon="8.129002545028925">
        <ele>647.60000000000002</ele>
        <time>2022-01-06T15:00:12Z</time>
      </trkpt>
      <trkpt lat="45.989040266722441" lon="8.12898620031774">
        <ele>647.75999999999999</ele>
        <time>2022-01-06T15:00:35Z</time>
      </trkpt>
      <trkpt lat="45.989051833748817" lon="8.128974633291364">
        <ele>647.45000000000005</ele>
        <time>2022-01-06T15:00:58Z</time>
      </trkpt>
      <trkpt lat="45.989064825698733" lon="8.128964155912399">
        <ele>647.38</ele>
        <time>2022-01-06T15:01:20Z</time>
      </trkpt>
      <trkpt lat="45.989066502079368" lon="8.128967676311731">
        <ele>647.48000000000002</ele>
        <time>2022-01-06T15:01:44Z</time>
      </trkpt>
      <trkpt lat="45.989078655838966" lon="8.128945380449295">
        <ele>647.29999999999995</ele>
        <time>2022-01-06T15:02:12Z</time>
      </trkpt>
      <trkpt lat="45.989081924781203" lon="8.128926521167159">
        <ele>647.27999999999997</ele>
        <time>2022-01-06T15:02:32Z</time>
      </trkpt>
      <trkpt lat="45.989085780456662" lon="8.128894837573171">
        <ele>647.46000000000004</ele>
        <time>2022-01-06T15:02:57Z</time>
      </trkpt>
      <trkpt lat="45.989080583676696" lon="8.128934651613236">
        <ele>647.38999999999999</ele>
        <time>2022-01-06T15:03:22Z</time>
      </trkpt>
      <trkpt lat="45.989087373018265" lon="8.128960216417909">
        <ele>647.23000000000002</ele>
        <time>2022-01-06T15:03:45Z</time>
      </trkpt>
      <trkpt lat="45.98906809464097" lon="8.128985026851296">
        <ele>647.34000000000003</ele>
        <time>2022-01-06T15:04:08Z</time>
      </trkpt>
      <trkpt lat="45.989047139883041" lon="8.12897983007133">
        <ele>647.38999999999999</ele>
        <time>2022-01-06T15:04:33Z</time>
      </trkpt>
      <trkpt lat="45.989035069942474" lon="8.12899743206799">
        <ele>647.45000000000005</ele>
        <time>2022-01-06T15:04:59Z</time>
      </trkpt>
      <trkpt lat="45.989035489037633" lon="8.12897345982492">
        <ele>647.45000000000005</ele>
        <time>2022-01-06T15:05:25Z</time>
      </trkpt>
      <trkpt lat="45.989020066335797" lon="8.1289934925735">
        <ele>647.37</ele>
        <time>2022-01-06T15:05:51Z</time>
      </trkpt>
      <trkpt lat="45.9890250954777" lon="8.129003969952464">
        <ele>647.25999999999999</ele>
        <time>2022-01-06T15:06:11Z</time>
      </trkpt>
      <trkpt lat="45.989035908132792" lon="8.129000868648291">
        <ele>647.21000000000004</ele>
        <time>2022-01-06T15:06:32Z</time>
      </trkpt>
      <trkpt lat="45.989033728837967" lon="8.128989469259977">
        <ele>647.11000000000001</ele>
        <time>2022-01-06T15:06:56Z</time>
      </trkpt>
      <trkpt lat="45.989029202610254" lon="8.128957534208894">
        <ele>646.88</ele>
        <time>2022-01-06T15:07:18Z</time>
      </trkpt>
      <trkpt lat="45.989030543714762" lon="8.128927862271667">
        <ele>647.14999999999998</ele>
        <time>2022-01-06T15:07:40Z</time>
      </trkpt>
      <trkpt lat="45.989029202610254" lon="8.128919312730432">
        <ele>652.39999999999998</ele>
        <time>2022-01-06T15:07:50Z</time>
      </trkpt>
      <trkpt lat="45.989027945324779" lon="8.12891285866499">
        <ele>650.17999999999995</ele>
        <time>2022-01-06T15:07:51Z</time>
      </trkpt>
      <trkpt lat="45.989026771858335" lon="8.1288967654109">
        <ele>647.35000000000002</ele>
        <time>2022-01-06T15:07:54Z</time>
      </trkpt>
      <trkpt lat="45.988980000838637" lon="8.129000617191196">
        <ele>647.17999999999995</ele>
        <time>2022-01-06T15:08:05Z</time>
      </trkpt>
      <trkpt lat="45.988820912316442" lon="8.129034144803882">
        <ele>647.00999999999999</ele>
        <time>2022-01-06T15:08:19Z</time>
      </trkpt>
      <trkpt lat="45.988801885396242" lon="8.12902039848268">
        <ele>646.88999999999999</ele>
        <time>2022-01-06T15:08:21Z</time>
      </trkpt>
      <trkpt lat="45.988730303943157" lon="8.128869943320751">
        <ele>646.05999999999995</ele>
        <time>2022-01-06T15:08:36Z</time>
      </trkpt>
      <trkpt lat="45.98870943300426" lon="8.128733402118087">
        <ele>644.38</ele>
        <time>2022-01-06T15:08:49Z</time>
      </trkpt>
      <trkpt lat="45.988718317821622" lon="8.128703813999891">
        <ele>643.99000000000001</ele>
        <time>2022-01-06T15:09:03Z</time>
      </trkpt>
      <trkpt lat="45.988721586763859" lon="8.128652768209577">
        <ele>643.33000000000004</ele>
        <time>2022-01-06T15:09:18Z</time>
      </trkpt>
      <trkpt lat="45.988724855706096" lon="8.128625275567174">
        <ele>643.33000000000004</ele>
        <time>2022-01-06T15:09:20Z</time>
      </trkpt>
      <trkpt lat="45.988785959780216" lon="8.128423020243645">
        <ele>641.49000000000001</ele>
        <time>2022-01-06T15:09:32Z</time>
      </trkpt>
      <trkpt lat="45.988801550120115" lon="8.128286646679044">
        <ele>640.17999999999995</ele>
        <time>2022-01-06T15:09:41Z</time>
      </trkpt>
      <trkpt lat="45.988810267299414" lon="8.128187572583556">
        <ele>638.89999999999998</ele>
        <time>2022-01-06T15:09:47Z</time>
      </trkpt>
      <trkpt lat="45.988805238157511" lon="8.128122193738818">
        <ele>638.13</ele>
        <time>2022-01-06T15:09:51Z</time>
      </trkpt>
      <trkpt lat="45.98880423232913" lon="8.127911556512117">
        <ele>634.95000000000005</ele>
        <time>2022-01-06T15:10:03Z</time>
      </trkpt>
      <trkpt lat="45.988806746900082" lon="8.127723801881075">
        <ele>632.34000000000003</ele>
        <time>2022-01-06T15:10:14Z</time>
      </trkpt>
      <trkpt lat="45.988812949508429" lon="8.127674181014299">
        <ele>631.50999999999999</ele>
        <time>2022-01-06T15:10:17Z</time>
      </trkpt>
      <trkpt lat="45.98880079574883" lon="8.127518696710467">
        <ele>629.61000000000001</ele>
        <time>2022-01-06T15:10:26Z</time>
      </trkpt>
      <trkpt lat="45.988768944516778" lon="8.127453736960888">
        <ele>628.79999999999995</ele>
        <time>2022-01-06T15:10:30Z</time>
      </trkpt>
      <trkpt lat="45.988705325871706" lon="8.127209739759564">
        <ele>625.55999999999995</ele>
        <time>2022-01-06T15:10:43Z</time>
      </trkpt>
      <trkpt lat="45.988614298403263" lon="8.127021985128522">
        <ele>622.80999999999995</ele>
        <time>2022-01-06T15:10:56Z</time>
      </trkpt>
      <trkpt lat="45.988514889031649" lon="8.127001784741879">
        <ele>621.75</ele>
        <time>2022-01-06T15:11:02Z</time>
      </trkpt>
      <trkpt lat="45.988508183509111" lon="8.127192137762904">
        <ele>618.99000000000001</ele>
        <time>2022-01-06T15:11:14Z</time>
      </trkpt>
      <trkpt lat="45.988511284813285" lon="8.127206219360232">
        <ele>618.76999999999998</ele>
        <time>2022-01-06T15:11:15Z</time>
      </trkpt>
      <trkpt lat="45.988530898466706" lon="8.127263216301799">
        <ele>617.94000000000005</ele>
        <time>2022-01-06T15:11:19Z</time>
      </trkpt>
      <trkpt lat="45.98853500559926" lon="8.127289619296789">
        <ele>617.59000000000003</ele>
        <time>2022-01-06T15:11:21Z</time>
      </trkpt>
      <trkpt lat="45.988541459664702" lon="8.127324739471078">
        <ele>617.30999999999995</ele>
        <time>2022-01-06T15:11:23Z</time>
      </trkpt>
      <trkpt lat="45.988540956750512" lon="8.127402607351542">
        <ele>616.30999999999995</ele>
        <time>2022-01-06T15:11:28Z</time>
      </trkpt>
      <trkpt lat="45.988481780514121" lon="8.127466393634677">
        <ele>614.98000000000002</ele>
        <time>2022-01-06T15:11:34Z</time>
      </trkpt>
      <trkpt lat="45.988306347280741" lon="8.127441918477416">
        <ele>613.05999999999995</ele>
        <time>2022-01-06T15:11:50Z</time>
      </trkpt>
      <trkpt lat="45.98827357403934" lon="8.127427166327834">
        <ele>613.34000000000003</ele>
        <time>2022-01-06T15:11:53Z</time>
      </trkpt>
      <trkpt lat="45.988233927637339" lon="8.1274289265275">
        <ele>612.78999999999996</ele>
        <time>2022-01-06T15:11:56Z</time>
      </trkpt>
      <trkpt lat="45.988134266808629" lon="8.127586087211967">
        <ele>610.63999999999999</ele>
        <time>2022-01-06T15:12:10Z</time>
      </trkpt>
      <trkpt lat="45.988081460818648" lon="8.127664038911462">
        <ele>611.17999999999995</ele>
        <time>2022-01-06T15:12:17Z</time>
      </trkpt>
      <trkpt lat="45.987976770848036" lon="8.127680132165551">
        <ele>608.75</ele>
        <time>2022-01-06T15:12:26Z</time>
      </trkpt>
      <trkpt lat="45.987823884934187" lon="8.127546859905124">
        <ele>607.37</ele>
        <time>2022-01-06T15:12:39Z</time>
      </trkpt>
      <trkpt lat="45.987803181633353" lon="8.1275256536901">
        <ele>607.08000000000004</ele>
        <time>2022-01-06T15:12:42Z</time>
      </trkpt>
      <trkpt lat="45.987772336229682" lon="8.127500340342522">
        <ele>606.75999999999999</ele>
        <time>2022-01-06T15:12:45Z</time>
      </trkpt>
      <trkpt lat="45.987710561603308" lon="8.127468908205628">
        <ele>605.90999999999997</ele>
        <time>2022-01-06T15:12:50Z</time>
      </trkpt>
      <trkpt lat="45.987693630158901" lon="8.127555241808295">
        <ele>604.19000000000005</ele>
        <time>2022-01-06T15:12:58Z</time>
      </trkpt>
      <trkpt lat="45.98782405257225" lon="8.127654315903783">
        <ele>602.73000000000002</ele>
        <time>2022-01-06T15:13:11Z</time>
      </trkpt>
      <trkpt lat="45.987956821918488" lon="8.127782139927149">
        <ele>601.83000000000004</ele>
        <time>2022-01-06T15:13:23Z</time>
      </trkpt>
      <trkpt lat="45.988017758354545" lon="8.127943072468042">
        <ele>599.89999999999998</ele>
        <time>2022-01-06T15:13:35Z</time>
      </trkpt>
      <trkpt lat="45.987979201599956" lon="8.127973834052682">
        <ele>599.27999999999997</ele>
        <time>2022-01-06T15:13:39Z</time>
      </trkpt>
      <trkpt lat="45.987857999280095" lon="8.127936702221632">
        <ele>598.07000000000005</ele>
        <time>2022-01-06T15:13:49Z</time>
      </trkpt>
      <trkpt lat="45.987737216055393" lon="8.12779781408608">
        <ele>596.62</ele>
        <time>2022-01-06T15:14:02Z</time>
      </trkpt>
      <trkpt lat="45.987619617953897" lon="8.127678036689758">
        <ele>595.67999999999995</ele>
        <time>2022-01-06T15:14:13Z</time>
      </trkpt>
      <trkpt lat="45.987549042329192" lon="8.127678204327822">
        <ele>595.19000000000005</ele>
        <time>2022-01-06T15:14:19Z</time>
      </trkpt>
      <trkpt lat="45.98751719109714" lon="8.127797059714794">
        <ele>594.40999999999997</ele>
        <time>2022-01-06T15:14:24Z</time>
      </trkpt>
      <trkpt lat="45.987618779763579" lon="8.128022532910109">
        <ele>592.60000000000002</ele>
        <time>2022-01-06T15:14:38Z</time>
      </trkpt>
      <trkpt lat="45.987754818052053" lon="8.128212047740817">
        <ele>590.84000000000003</ele>
        <time>2022-01-06T15:14:53Z</time>
      </trkpt>
      <trkpt lat="45.987835954874754" lon="8.128344062715769">
        <ele>588.97000000000003</ele>
        <time>2022-01-06T15:15:06Z</time>
      </trkpt>
      <trkpt lat="45.987829165533185" lon="8.128369627520442">
        <ele>588.61000000000001</ele>
        <time>2022-01-06T15:15:08Z</time>
      </trkpt>
      <trkpt lat="45.987713327631354" lon="8.128397790715098">
        <ele>587.01999999999998</ele>
        <time>2022-01-06T15:15:20Z</time>
      </trkpt>
      <trkpt lat="45.987634621560574" lon="8.128274157643318">
        <ele>586.30999999999995</ele>
        <time>2022-01-06T15:15:30Z</time>
      </trkpt>
      <trkpt lat="45.987512245774269" lon="8.128088917583227">
        <ele>584.75999999999999</ele>
        <time>2022-01-06T15:15:45Z</time>
      </trkpt>
      <trkpt lat="45.987475533038378" lon="8.128081122413278">
        <ele>584.29999999999995</ele>
        <time>2022-01-06T15:15:48Z</time>
      </trkpt>
      <trkpt lat="45.987431108951569" lon="8.128259824588895">
        <ele>582.84000000000003</ele>
        <time>2022-01-06T15:16:01Z</time>
      </trkpt>
      <trkpt lat="45.98750495351851" lon="8.128465851768851">
        <ele>581.07000000000005</ele>
        <time>2022-01-06T15:16:15Z</time>
      </trkpt>
      <trkpt lat="45.987534793093801" lon="8.128740275278688">
        <ele>578.96000000000004</ele>
        <time>2022-01-06T15:16:32Z</time>
      </trkpt>
      <trkpt lat="45.987406885251403" lon="8.128749830648303">
        <ele>577.27999999999997</ele>
        <time>2022-01-06T15:16:44Z</time>
      </trkpt>
      <trkpt lat="45.987336141988635" lon="8.128596022725105">
        <ele>575.85000000000002</ele>
        <time>2022-01-06T15:16:55Z</time>
      </trkpt>
      <trkpt lat="45.987310661002994" lon="8.128544390201569">
        <ele>575.44000000000005</ele>
        <time>2022-01-06T15:16:59Z</time>
      </trkpt>
      <trkpt lat="45.987244946882129" lon="8.128341045230627">
        <ele>573.57000000000005</ele>
        <time>2022-01-06T15:17:13Z</time>
      </trkpt>
      <trkpt lat="45.987175460904837" lon="8.128183549270034">
        <ele>572.28999999999996</ele>
        <time>2022-01-06T15:17:24Z</time>
      </trkpt>
      <trkpt lat="45.987116368487477" lon="8.128112135455012">
        <ele>572.70000000000005</ele>
        <time>2022-01-06T15:17:36Z</time>
      </trkpt>
      <trkpt lat="45.987075213342905" lon="8.128129318356514">
        <ele>572.73000000000002</ele>
        <time>2022-01-06T15:17:46Z</time>
      </trkpt>
      <trkpt lat="45.987054593861103" lon="8.128053713589907">
        <ele>573.03999999999996</ele>
        <time>2022-01-06T15:17:57Z</time>
      </trkpt>
      <trkpt lat="45.98707303404808" lon="8.128032339736819">
        <ele>572.86000000000001</ele>
        <time>2022-01-06T15:18:06Z</time>
      </trkpt>
      <trkpt lat="45.987123660743237" lon="8.128023790195584">
        <ele>573</ele>
        <time>2022-01-06T15:18:22Z</time>
      </trkpt>
      <trkpt lat="45.987131707370281" lon="8.128035357221961">
        <ele>572.83000000000004</ele>
        <time>2022-01-06T15:18:36Z</time>
      </trkpt>
      <trkpt lat="45.987136317417026" lon="8.128054803237319">
        <ele>572.63999999999999</ele>
        <time>2022-01-06T15:18:57Z</time>
      </trkpt>
    </trkseg>
  </trk>

</gpx>